     2.11           OBSERVATION DATA    G (GPS)             RINEX VERSION / TYPE
teqc 2010Oct21 OPUS Account 20111028 01:30:10UTC            PGM / RUN BY / DATE
H 1526                                                      MARKER NAME
3046                                                        MARKER NUMBER
CSMIDDLETON NGS                                             OBSERVER / AGENCY
0220320152 TRIMBLE 5700 2.01                                REC # / TYPE / VERS
12214372 TRM41249.00 NONE                                   ANT # / TYPE
  -754582.4586 -5566736.2356  3010321.1540                  APPROX POSITION XYZ
        2.0000        0.0000        0.0000                  ANTENNA: DELTA H/E/N
     1     1                                                WAVELENGTH FACT L1/2
     5    L1    L2    C1    P1    P2                        # / TYPES OF OBSERV
    15                                                      LEAP SECONDS
  2011     8    21     0     0   30.0000000     GPS         TIME OF FIRST OBS
                                                            END OF HEADER
 11  8 21  0  0 30.0000000  0  7G12G17G10G05G04G09G02
 -19285756.74658 -15016399.30156  21735624.7114                   21735622.9184
 -29963570.71957 -23336361.88355  22760936.6644                   22760935.9264
 -26890874.83258 -20943279.24656  20828764.8364                   20828763.1334
 -14304235.60557 -11134330.06655  22422793.5164                   22422794.2424
 -31749338.88757 -24726904.84456  21137637.9224                   21137636.9344
 -14715198.31256 -11454512.48054  23079381.8914                   23079383.5394
 -30735047.17658 -23937345.58657  20534077.1484                   20534073.1174
 11  8 21  0  1  0.0000000  0  7G12G17G10G05G04G09G02
 -19385073.23448 -15093788.71546  21716725.4614                   21716723.5204
 -29942533.26647 -23319969.09045  22764940.3134                   22764939.4104
 -26936691.53148 -20978980.55146  20820046.3134                   20820044.5354
 -14428720.62947 -11231331.25845  22399104.7504                   22399105.1524
 -31704538.91448 -24691995.80146  21146163.1414                   21146161.9694
 -14670896.58247 -11419991.77744  23087812.1954                   23087814.2814
 -30771446.48448 -23965708.67647  20527150.3524                   20527146.7504
 11  8 21  0  1 30.0000000  0  7G12G17G10G05G04G09G02
 -19484030.10948 -15170897.90646  21697894.1334                   21697892.5904
 -29921349.52347 -23303462.28945  22768971.4454                   22768970.1764
 -26981889.48448 -21014199.70346  20811445.2274                   20811443.6914
 -14552983.13347 -11328159.05145  22375458.5864                   22375458.9184
 -31659526.24248 -24656921.01646  21154728.9384                   21154727.8094
 -14626310.32447 -11385249.35944  23096296.7664                   23096297.8324
 -30807513.92248 -23993813.16447  20520286.8674                   20520283.4024
 11  8 21  0  2  0.0000000  0  7G12G17G10G05G04G09G02
 -19582626.77048 -15247726.42246  21679132.0554                   21679130.1484
 -29900020.41447 -23286842.23845  22773030.4454                   22773029.5824
 -27026469.45348 -21048937.30546  20802962.1024                   20802960.9144
 -14677021.56247 -11424812.23845  22351854.3594                   22351854.7114
 -31614305.11348 -24621683.79346  21163333.9774                   21163332.8834
 -14581444.71547 -11350289.27744  23104834.5164                   23104835.9494
 -30843252.46148 -24021661.36747  20513486.3754                   20513482.2464
 11  8 21  0  2 30.0000000  0  7G12G17G10G05G04G09G02
 -19680863.23048 -15324274.26646  21660438.2814                   21660436.3484
 -29878547.36347 -23270110.00845  22777116.3134                   22777115.4304
 -27070432.21148 -21083193.96546  20794596.1094                   20794594.3444
 -14800835.34447 -11521290.37945  22328293.3054                   22328293.9184
 -31568879.69548 -24586287.39146  21171978.0084                   21171976.6724
 -14536305.32847 -11315115.85544  23113424.1414                   23113426.2934
 -30878665.31648 -24049255.78547  20506747.3984                   20506743.4384
 11  8 21  0  3  0.0000000  0  8G12G17G10G30G05G04G09G02
 -19778736.16048 -15400538.84846  21641813.5084                   21641811.3714
 -29856929.19147 -23253264.69545  22781230.1414                   22781229.5274
 -27113776.55147 -21116968.73846  20786347.8594                   20786346.3754
   -191910.58256   -137496.12153  24201058.5784                   24201058.4414
 -14924420.80147 -11617590.60245  22304776.2664                   22304776.2624
 -31523251.93747 -24550733.30946  21180661.0314                   21180659.7814
 -14490894.99647 -11279731.31644  23122065.9844                   23122067.5474
 -30913752.99648 -24076596.81647  20500070.1804                   20500066.2664
 11  8 21  0  3 30.0000000  0  9G12G17G10G30G05G04G25G09G02
 -18300831.42648 -14248924.72746  21923049.9224                   21923047.6954
 -28259757.60247 -22008715.44145  23085161.9224                   23085161.3484
 -25581091.45348 -19922668.63346  21078008.1484                   21078006.9024
   1251936.44146    987579.56343  24475813.5084                   24475813.5004
 -13472362.62947 -10486116.57445  22581093.2344                   22581093.6914
 -29902017.05548 -23287433.42246  21489172.0634                   21489170.2894
   1385931.37557   1091535.65254  24799477.9844                   24799481.1844
 -12869810.46546 -10016548.70744  23430547.4534                   23430549.3324
 -29373106.93748 -22876093.38347  20793245.3444                   20793241.8484
 11  8 21  0  4  0.0000000  0  9G12G17G10G30G05G04G25G09G02
 -18398005.74648 -14324644.94546  21904557.4534                   21904555.6844
 -28237883.24247 -21991670.52345  23089325.1644                   23089323.8014
 -25623231.29348 -19955504.83646  21069989.1564                   21069987.8204
   1120519.23846    885176.59043  24450805.9614                   24450805.7544
 -13595518.38347 -10582081.96945  22557657.6414                   22557657.5864
 -29856026.90248 -23251596.95346  21497923.7034                   21497922.2584
   1256145.20347    990403.64544  24774780.2734                   24774783.4574
 -12823904.43047  -9980777.91044  23439283.4144                   23439285.2424
 -29407583.28948 -22902958.05147  20786684.9224                   20786681.0084
 11  8 21  0  4 30.0000000  0  9G12G17G10G30G05G04G25G09G02
 -18494835.94948 -14400097.01646  21886132.0084                   21886129.2304
 -28215889.03547 -21974532.23045  23093510.0704                   23093508.9384
 -25664776.36748 -19987877.58246  21062083.2424                   21062082.0634
    989262.66846    782898.84843  24425827.8524                   24425829.0514
 -13718464.03947 -10677883.64145  22534261.5084                   22534261.7384
 -29809867.94548 -23215628.94146  21506706.9224                   21506705.9414
   1126445.10246    889338.70344  24750099.6254                   24750102.2114
 -12777764.53547  -9944824.90344  23448064.1724                   23448065.4614
 -29441764.40248 -22929592.67247  20780180.4304                   20780176.8674
 11  8 21  0  5  0.0000000  0  9G12G17G10G30G05G04G25G09G02
 -18591308.64148 -14475270.51246  21867773.2894                   21867771.4534
 -28193763.52047 -21957291.61345  23097720.2974                   23097719.5204
 -25705715.30148 -20019778.00846  21054292.9384                   21054291.5634
    858180.01646    680756.63343  24400883.6484                   24400883.6954
 -13841186.13747 -10773511.11746  22510907.9064                   22510908.6914
 -29763531.54348 -23179522.66846  21515524.4534                   21515523.0664
    996844.15246    788351.01644  24725437.1414                   24725439.6764
 -12731383.68047  -9908684.09044  23456890.4844                   23456891.6884
 -29475640.83648 -22955989.87147  20773733.9694                   20773729.9344
 11  8 21  0  5 30.0000000  0  9G12G17G10G30G05G04G25G09G02
 -18687413.62548 -14550157.48046  21849485.1954                   21849483.2304
 -28171498.02747 -21939941.91845  23101957.1484                   23101956.4064
 -25746038.63748 -20051198.75046  21046619.7664                   21046618.3714
    727282.05146    578758.32843  24375975.2114                   24375974.5554
 -13963673.39147 -10868955.59046  22487599.3594                   22487599.7074
 -29717011.98048 -23143273.69146  21524377.4304                   21524375.5744
    867352.86746    687448.83243  24700796.3054                   24700797.8244
 -12684757.46147  -9872352.10944  23465763.7814                   23465765.0004
 -29509205.16848 -22982143.87947  20767346.9064                   20767342.8244
 11  8 21  0  6  0.0000000  0  9G12G17G10G30G05G04G25G09G02
 -18783141.77048 -14624750.82046  21831269.2504                   21831266.7034
 -28149085.82447 -21922477.90245  23106222.3914                   23106222.0164
 -25785739.28948 -20082134.29746  21039065.0004                   21039062.9384
    596578.04346    476911.12943  24351102.7974                   24351102.3914
 -14085916.35947 -10964209.71146  22464337.4064                   22464337.8634
 -29670304.87148 -23106878.56646  21533265.2814                   21533264.0394
    737980.12946    586639.02043  24676176.9144                   24676179.2854
 -12637882.21547  -9835826.08644  23474683.1094                   23474685.2854
 -29542451.81648 -23008050.34047  20761020.6024                   20761016.3984
 11  8 21  0  6 30.0000000  0  9G12G17G10G30G05G04G25G09G02
 -18878491.32048 -14699049.15646  21813124.5164                   21813122.0744
 -28126526.82447 -21904899.52745  23110515.2814                   23110514.7934
 -25824817.41848 -20112584.75446  21031628.7344                   21031626.9104
    466069.84846    375216.49243  24326267.5084                   24326267.0084
 -14207912.92647 -11059271.82846  22441122.1954                   22441122.2704
 -29623413.16448 -23070339.59046  21542188.5004                   21542187.0514
    608727.53946    485922.82443  24651580.3914                   24651583.3714
 -12590762.69147  -9799109.73044  23483649.4454                   23483651.8794
 -29575383.02748 -23033711.01247  20754753.9224                   20754749.6524
 11  8 21  0  7  0.0000000  0  9G12G17G10G30G05G04G25G09G02
 -18973458.04348 -14773049.18046  21795053.2664                   21795050.7154
 -28103818.29347 -21887204.60945  23114836.5164                   23114835.6024
 -25863270.03148 -20142547.79746  21024311.1564                   21024309.4964
    335762.18846    273678.14843  24301470.1644                   24301469.3404
 -14329658.34047 -11154138.25846  22417954.8444                   22417954.9384
 -29576337.16048 -23033656.99246  21551146.5394                   21551145.3054
    479599.61746    385303.74643  24627008.8914                   24627010.3914
 -12543400.09447  -9762203.94144  23492663.0554                   23492664.8444
 -29607997.73448 -23059125.05547  20748547.0474                   20748543.5004
 11  8 21  0  7 30.0000000  0  9G12G17G10G30G05G04G25G09G02
 -19068037.38748 -14846747.34846  21777054.9304                   21777052.7624
 -28080957.51647 -21869391.06245  23119186.8364                   23119186.1374
 -25901094.21948 -20172021.16046  21017113.7194                   21017112.0124
    205660.21546    172300.05943  24276713.0784                   24276712.2664
 -14451147.41847 -11248804.91846  22394836.0634                   22394835.9734
 -29529076.74648 -22996830.71546  21560139.9614                   21560138.7774
    350601.10946    284785.53143  24602460.7974                   24602461.9734
 -12495795.58247  -9725109.65644  23501722.1334                   23501723.5744
 -29640294.84048 -23084291.61347  20742401.2664                   20742397.6334
 11  8 21  0  8  0.0000000  0  9G12G17G10G30G05G04G25G09G02
 -19162225.56647 -14920140.72346  21759131.3914                   21759128.9844
 -28057943.04347 -21851457.73045  23123566.8834                   23123565.6684
 -25938288.12948 -20201003.39846  21010035.9304                   21010034.1644
     75767.44546     71085.00443  24251995.4064                   24251994.9614
 -14572376.03547 -11343268.65246  22371766.8444                   22371766.7624
 -29481633.23048 -22959861.76646  21569168.4224                   21569166.7114
    221735.32846    184370.72743  24577938.5634                   24577939.7114
 -12447951.55946  -9687828.75844  23510826.4454                   23510828.7854
 -29672274.43048 -23109210.75447  20736315.7114                   20736311.9344
 11  8 21  0  8 30.0000000  0  9G12G17G10G30G05G04G25G09G02
 -19256021.91447 -14993228.77346  21741282.5704                   21741280.1374
 -28034775.91847 -21833405.45345  23127974.9384                   23127974.2464
 -25974852.97348 -20229495.46546  21003077.7114                   21003076.2504
    -53914.95346    -29966.14143  24227317.3364                   24227316.7114
 -14693343.14847 -11437528.61746  22348747.4384                   22348747.3954
 -29434010.48848 -22922753.16046  21578230.7974                   21578229.4024
     93003.05946     84059.94143  24553441.1334                   24553443.4024
 -12399873.23446  -9650365.27344  23519975.2894                   23519977.1094
 -29703939.45748 -23133884.78147  20730290.0394                   20730286.1294
 11  8 21  0  9  0.0000000  0  9G12G17G10G30G05G04G25G09G02
 -19349420.21547 -15066006.65646  21723509.4144                   21723507.4614
 -28011451.56647 -21815230.66045  23132413.6804                   23132412.0514
 -26010783.78548 -20257493.47346  20996240.4144                   20996238.5394
   -183380.27747   -130848.11743  24202680.8984                   24202681.1954
 -14814042.03147 -11531579.55546  22325778.9454                   22325778.9614
 -29386206.95748 -22885503.66046  21587327.4694                   21587326.4454
    -35589.18446    -16141.71143  24528970.9694                   24528973.0124
 -12351560.00046  -9612718.76644  23529169.6954                   23529171.6564
 -29735286.76648 -23158311.23847  20724325.0704                   20724320.9924
 11  8 21  0  9 30.0000000  0  9G12G17G10G30G05G04G25G09G02
 -19442420.34448 -15138474.27746  21705812.1024                   21705810.0274
 -27987972.19947 -21796935.09045  23136881.6484                   23136880.1334
 -26046082.51648 -20284998.95746  20989523.1724                   20989521.2234
   -312628.57846   -231561.01643  24178085.8754                   24178085.9104
 -14934472.02747 -11625420.98046  22302861.9844                   22302861.8984
 -29338227.15248 -22848116.81646  21596457.6174                   21596456.9654
   -164041.71146   -116234.52044  24504527.1254                   24504528.8014
 -12303018.26247  -9574894.17244  23538406.7894                   23538408.9104
 -29766320.29348 -23182493.19147  20718419.3284                   20718415.5664
 11  8 21  0 10  0.0000000  0  9G12G17G10G30G05G04G25G09G02
 -19535018.15647 -15210628.41846  21688191.3054                   21688189.2464
 -27964335.59047 -21778516.98445  23141379.6024                   23141377.7274
 -26080747.02748 -20312010.23446  20982926.5234                   20982924.9264
   -441655.37546   -332101.34444  24153532.5314                   24153532.9454
 -15054628.99247 -11719049.66446  22279996.7664                   22279996.6724
 -29290071.74648 -22810593.12946  21605621.1484                   21605620.3794
   -292350.38747   -216215.26644  24480110.6884                   24480113.5084
 -12254249.69947  -9536892.83644  23547687.1884                   23547689.2034
 -29797039.42648 -23206430.15647  20712573.5864                   20712569.7504
 11  8 21  0 10 30.0000000  0  9G12G17G10G30G05G04G25G09G02
 -19627215.03547 -15282470.12546  21670647.1254                   21670644.5514
 -27940544.32447 -21759978.37945  23145906.1954                   23145905.5234
 -26114779.78948 -20338529.25046  20976450.3674                   20976448.5234
   -570460.78546   -432469.15643  24129022.4304                   24129022.0984
 -15174512.69947 -11812465.41046  22257183.4694                   22257183.5744
 -29241745.70348 -22772936.52046  21614817.0314                   21614815.7304
   -420515.56247   -316084.19944  24455721.9144                   24455724.5204
 -12205260.78147  -9498719.78944  23557009.5084                   23557011.0354
 -29827448.28148 -23230125.34447  20706787.2114                   20706783.4774
 11  8 21  0 11  0.0000000  0  9G12G17G10G30G05G04G25G09G02
 -19719004.88347 -15353994.68046  21653179.6724                   21653177.8984
 -27916594.36347 -21741316.10245  23150464.8284                   23150463.3874
 -26148177.10548 -20364553.12146  20970095.0084                   20970093.2114
   -699039.02747   -532659.94143  24104555.1334                   24104554.5704
 -15294117.23447 -11905663.63746  22234423.5164                   22234423.4024
 -29193248.21548 -22735146.29746  21624046.0704                   21624044.9104
   -548531.67647   -415836.98044  24431361.1724                   24431363.0044
 -12156051.77047  -9460375.25044  23566373.6254                   23566375.5904
 -29857544.87947 -23253577.22347  20701059.5784                   20701056.0474
 11  8 21  0 11 30.0000000  0  9G12G17G10G30G05G04G25G09G02
 -19810386.89547 -15425201.42646  21635790.4144                   21635788.4454
 -27892486.69547 -21722530.93745  23155052.0084                   23155051.2034
 -26180939.76648 -20390082.45746  20963860.6024                   20963859.1174
   -827388.53946   -632672.50443  24080130.0944                   24080129.8754
 -15413441.03147 -11998643.09446  22211716.5634                   22211716.5904
 -29144582.54348 -22697225.01646  21633306.7734                   21633306.3094
   -676397.60247   -515472.73044  24407029.0474                   24407031.1994
 -12106627.50447  -9421862.96944  23575778.6254                   23575781.1414
 -29887331.76648 -23276787.77346  20695391.7894                   20695387.8324
 11  8 21  0 12  0.0000000  0  9G12G17G10G30G05G04G25G09G02
 -19901355.86347 -15496086.32846  21618479.5704                   21618477.7664
 -27868218.15247 -21703620.42645  23159670.0944                   23159669.1884
 -26213064.70747 -20415114.85946  20957747.2034                   20957745.7544
   -955504.10546   -732502.77043  24055750.8204                   24055750.6484
 -15532478.64147 -12091399.55946  22189064.5864                   22189064.4534
 -29095748.69948 -22659172.70346  21642599.7114                   21642598.9144
   -804108.21147   -614987.44944  24382726.2734                   24382728.5314
 -12056988.86746  -9383183.66444  23585224.8364                   23585227.1954
 -29916807.30148 -23299755.70747  20689782.8054                   20689778.5514
 11  8 21  0 12 30.0000000  0  9G12G17G10G30G05G04G25G09G02
 -19991912.70747 -15566650.09846  21601247.2344                   21601245.3364
 -27843791.18047 -21684586.45345  23164318.3364                   23164317.6174
 -26244554.75848 -20439652.55546  20951755.0704                   20951753.2814
  -1083386.09446   -832151.02343  24031415.7424                   24031415.0434
 -15651230.48847 -12183933.35246  22166466.7664                   22166466.5394
 -29046751.57048 -22620993.14546  21651923.9774                   21651923.1214
   -931664.14146   -714381.64144  24358453.1954                   24358455.3404
 -12007142.29346  -9344342.32844  23594710.6884                   23594713.0634
 -29945975.99648 -23322484.54747  20684231.6644                   20684228.0314
 11  8 21  0 13  0.0000000  0  9G12G17G10G30G05G04G25G09G02
 -20082055.07447 -15636890.89546  21584093.8444                   21584091.5864
 -27819205.52747 -21665428.83245  23168996.8594                   23168996.2934
 -26275409.62947 -20463695.28946  20945883.2344                   20945881.7624
  -1211032.01646   -931615.32443  24007124.5314                   24007125.0864
 -15769694.06247 -12276242.52046  22143923.5474                   22143923.7424
 -28997593.66848 -22582688.30946  21661278.2974                   21661277.0394
  -1059063.24647   -813653.63744  24334210.4454                   24334212.1804
 -11957091.84047  -9305342.13344  23604235.5314                   23604237.8014
 -29974839.02747 -23344975.21147  20678739.4144                   20678735.5044
 11  8 21  0 13 30.0000000  0  9G12G17G10G30G05G04G25G09G02
 -20171777.83247 -15706804.71546  21567020.0164                   21567018.1644
 -27794458.03547 -21646145.11745  23173706.1804                   23173706.1334
 -26305625.89548 -20487240.41046  20940134.0234                   20940132.1094
  -1338436.05146  -1030891.15643  23982881.0314                   23982880.2664
 -15887863.44947 -12368322.45346  22121436.9454                   22121436.6174
 -28948273.98848 -22544257.41445  21670663.0784                   21670662.0354
  -1186299.87946   -912799.00844  24309997.1024                   24310000.0634
 -11906837.73847  -9266183.23844  23613798.0474                   23613800.1454
 -30003394.65247 -23367226.34047  20673305.6254                   20673301.3404
 11  8 21  0 14  0.0000000  0  9G12G17G10G30G05G04G25G09G02
 -20261081.34047 -15776391.84446  21550026.2274                   21550024.1174
 -27769550.71147 -21626736.87945  23178445.9064                   23178446.1134
 -26335205.58248 -20510289.50446  20934504.9064                   20934503.2384
  -1465598.29746  -1129978.58243  23958682.7814                   23958681.9774
 -16005738.30547 -12460172.87146  22099005.5084                   22099005.3984
 -28898797.43448 -22505704.28145  21680078.3204                   21680076.9534
  -1313374.40246  -1011818.07844  24285815.4844                   24285818.1684
 -11856386.21547  -9226870.50044  23623399.1484                   23623401.0594
 -30031646.82847 -23389241.01647  20667929.1564                   20667925.3404
 11  8 21  0 14 30.0000000  0  9G12G17G10G30G05G04G25G09G02
 -20349963.72347 -15845650.82846  21533112.2194                   21533110.5084
 -27744483.37947 -21607203.95344  23183215.8444                   23183215.4024
 -26364148.81248 -20532842.65646  20928996.9384                   20928995.0204
  -1592516.03546  -1228875.48843  23934531.0234                   23934531.1294
 -16123316.14847 -12551791.85946  22076631.5394                   22076631.0434
 -28849166.54748 -22467030.87946  21689523.0004                   21689521.8984
  -1440284.63347  -1110709.09444  24261665.6484                   24261667.9384
 -11805741.15646  -9187406.96544  23633036.7424                   23633038.0514
 -30059597.14848 -23411020.48046  20662610.4614                   20662606.6994
 11  8 21  0 15  0.0000000  0  9G12G17G10G30G05G04G25G09G02
 -20438420.07047 -15914577.82046  21516280.0944                   21516277.7814
 -27719252.77047 -21587543.77745  23188017.6804                   23188017.3164
 -26392453.17647 -20554897.98046  20923610.6954                   20923609.2194
  -1719184.16046  -1327577.86343  23910426.3054                   23910426.4414
 -16240591.75047 -12643175.34046  22054314.6954                   22054314.5354
 -28799380.90248 -22428236.89545  21698997.2894                   21698995.9384
  -1567025.31247  -1209468.01244  24237547.8754                   24237549.7664
 -11754903.41847  -9147793.29744  23642710.4614                   23642712.4064
 -30087244.19547 -23432563.61747  20657349.4844                   20657345.5704
 11  8 21  0 15 30.0000000  0  9G12G17G10G30G05G04G25G09G02
 -20526446.31247 -15983169.67646  21499528.7194                   21499526.6214
 -27693856.83647 -21567754.76245  23192850.4144                   23192849.6254
 -26420116.73847 -20576453.96946  20918346.7274                   20918344.7974
  -1845598.39547  -1426082.39843  23886371.0634                   23886370.2704
 -16357560.87147 -12734319.99246  22032055.5474                   22032055.7544
 -28749441.03148 -22389322.70745  21708500.1484                   21708498.5594
  -1693592.49647  -1308091.73444  24213462.4454                   24213464.8634
 -11703874.93747  -9108031.00844  23652421.2814                   23652423.5434
 -30114587.70748 -23453870.23447  20652146.2344                   20652142.8134
 11  8 21  0 16  0.0000000  0  9G12G17G10G30G05G04G25G09G02
 -20614040.06247 -16051424.51246  21482860.5944                   21482858.1844
 -27668294.69547 -21547836.25045  23197714.4614                   23197713.3324
 -26447138.87947 -20597510.14846  20913204.4774                   20913202.8204
  -1971755.46147  -1524386.57443  23862363.9454                   23862363.3524
 -16474220.12147 -12825223.18046  22009856.4224                   22009855.8444
 -28699348.48047 -22350289.54745  21718032.1174                   21718030.8324
  -1819983.23047  -1406577.93744  24189411.2814                   24189413.6764
 -11652658.94146  -9068122.59844  23662167.2424                   23662169.8324
 -30141628.07847 -23474940.63347  20647000.6884                   20646996.4884
 11  8 21  0 16 30.0000000  0  9G12G17G10G30G05G04G25G09G02
 -20701198.12947 -16119339.86346  21466274.8834                   21466272.8134
 -27642565.14847 -21527787.29345  23202610.7194                   23202610.3134
 -26473518.09847 -20618065.35246  20908184.5554                   20908182.4454
  -2097651.85246  -1622487.56243  23838407.1024                   23838405.6884
 -16590565.65647 -12915881.93046  21987716.3364                   21987715.9304
 -28649104.53148 -22311138.41445  21727593.3204                   21727592.0944
  -1946194.15247  -1504924.03944  24165394.6254                   24165396.5044
 -11601257.97747  -9028070.04344  23671949.1024                   23671951.2344
 -30168365.66447 -23495775.08247  20641912.6564                   20641909.0904
 11  8 21  0 17  0.0000000  0  9G12G17G10G30G05G04G25G09G02
 -20787920.47747 -16186915.68746  21449771.9064                   21449769.7194
 -27616669.69547 -21507609.05144  23207538.4534                   23207537.8594
 -26499256.65647 -20638121.35246  20903286.6334                   20903285.1764
  -2223287.05146  -1720385.06244  23814499.5164                   23814498.3914
 -16706596.95347 -13006295.82446  21965636.3054                   21965635.8674
 -28598713.64148 -22271872.78545  21737182.4614                   21737181.0634
  -2072225.05547  -1603129.86344  24141411.4694                   24141413.8484
 -11549677.68447  -8987877.75444  23681764.0864                   23681766.8204
 -30194804.21947 -23516376.52746  20636881.5234                   20636877.4694
 11  8 21  0 17 30.0000000  0  9G12G17G10G30G05G04G25G09G02
 -20874206.52747 -16254151.55146  21433352.0084                   21433350.1374
 -27590609.79347 -21487302.66445  23212497.4224                   23212496.7234
 -26524356.11747 -20657679.34846  20898510.8524                   20898508.6804
  -2348659.91047  -1818078.10543  23790641.7344                   23790641.1054
 -16822313.05147 -13096464.09846  21943615.7664                   21943615.6884
 -28548179.43448 -22232495.46545  21746798.7344                   21746797.6174
  -2198075.09047  -1701194.73844  24117462.9774                   24117465.2304
 -11497923.25447  -8947549.78144  23691612.7274                   23691615.4184
 -30220946.38748 -23536747.01647  20631906.9224                   20631902.6644
 11  8 21  0 18  0.0000000  0  9G12G17G10G30G05G04G25G09G02
 -20960053.15247 -16321044.99246  21417016.4384                   21417013.8364
 -27564383.91847 -21466866.94945  23217488.1564                   23217488.0474
 -26548815.53947 -20676738.61346  20893855.8204                   20893854.2704
  -2473766.85247  -1915563.96144  23766834.7734                   23766833.8874
 -16937710.43447 -13186384.03546  21921656.6564                   21921656.2424
 -28497503.18448 -22193007.45345  21756442.0474                   21756440.9844
  -2323740.74647  -1799115.95744  24093549.6414                   24093551.3914
 -11445997.39147  -8907088.20744  23701494.1564                   23701497.3134
 -30246792.68048 -23556886.95346  20626988.2194                   20626984.0204
 11  8 21  0 18 30.0000000  0  9G12G17G10G30G05G04G25G09G02
 -21045457.09447 -16387593.49646  21400764.1024                   21400761.9184
 -27537991.21547 -21446301.25044  23222511.1644                   23222509.8164
 -26572634.10247 -20695298.51646  20889323.3364                   20889321.8094
  -2598604.54746  -2012840.00044  23743078.5234                   23743078.0594
 -17052785.33247 -13276052.69146  21899758.9534                   21899758.1884
 -28446686.22748 -22153409.82045  21766112.1644                   21766111.0234
  -2449219.04747  -1896891.17644  24069671.3754                   24069674.1484
 -11393902.84847  -8866495.21544  23711406.8674                   23711410.3984
 -30272343.78948 -23576796.87947  20622126.2734                   20622121.6484
 11  8 21  0 19  0.0000000  0  9G12G17G10G30G05G04G25G09G02
 -21130418.74647 -16453797.35546  21384596.6484                   21384594.1174
 -27511433.06647 -21425606.61744  23227564.2424                   23227563.4844
 -26595813.89548 -20713360.67646  20884912.4694                   20884910.9024
  -2723172.15646  -2109905.57443  23719373.8914                   23719373.3444
 -17167537.19947 -13365469.63346  21877921.9224                   21877921.3204
 -28395732.75848 -22113705.80945  21775808.5394                   21775807.1454
  -2574509.33646  -1994519.85944  24045829.3054                   24045832.0434
 -11341644.85547  -8825774.86744  23721351.6644                   23721355.1174
 -30297602.89847 -23596479.26246  20617319.5234                   20617315.3054
 11  8 21  0 19 30.0000000  0  9G12G17G10G30G05G04G25G09G02
 -21214932.31248 -16519652.05946  21368514.2734                   21368511.9804
 -27484705.57047 -21404780.02345  23232650.7664                   23232649.9104
 -26618351.48448 -20730922.43046  20880623.7504                   20880622.1484
  -2847463.56246  -2206755.96943  23695722.6884                   23695721.5044
 -17281959.94547 -13454630.11746  21856148.1804                   21856147.5234
 -28344641.45348 -22073894.39145  21785530.8284                   21785529.3594
  -2699605.77747  -2091997.53144  24022024.4304                   24022026.5514
 -11289223.83247  -8784927.44944  23731326.9924                   23731330.5594
 -30322567.92247 -23615932.50447  20612568.6334                   20612564.6724
 11  8 21  0 20  0.0000000  0  9G12G17G10G30G05G04G25G09G02
 -21298994.65647 -16585155.16846  21352517.6804                   21352515.7544
 -27457807.06647 -21383820.17644  23237769.3204                   23237768.1684
 -26640246.07448 -20747983.13746  20876457.2034                   20876455.3014
  -2971475.16846  -2303388.28144  23672123.1024                   23672122.9884
 -17396049.74247 -13543531.15646  21834437.5704                   21834436.8164
 -28293413.12948 -22033976.19145  21795279.0864                   21795277.9024
  -2824504.77747  -2189321.34044  23998256.4614                   23998259.0234
 -11236641.89147  -8743954.67644  23741332.9454                   23741336.5904
 -30347238.80548 -23635156.53547  20607873.7424                   20607869.8404
 11  8 21  0 20 30.0000000  0  9G12G17G10G30G05G04G25G09G02
 -21382603.92247 -16650305.22346  21336607.3444                   21336605.1724
 -27430737.34847 -21362726.94545  23242920.6174                   23242918.9804
 -26661497.82448 -20764542.92646  20872413.1484                   20872411.0784
  -3095204.42646  -2399800.61744  23648578.3054                   23648578.0904
 -17509804.12147 -13632170.83646  21812790.6414                   21812789.8874
 -28242050.48448 -21993953.33645  21805053.1024                   21805051.7154
  -2949204.19546  -2286489.62944  23974527.5084                   23974529.6414
 -11183903.09846  -8702859.66844  23751369.6804                   23751372.8204
 -30371617.51248 -23654152.89147  20603234.6954                   20603230.6994
 11  8 21  0 21  0.0000000  0  9G12G17G10G30G05G04G25G09G02
 -21465756.23447 -16715099.20746  21320783.8524                   21320781.9224
 -27403494.82047 -21341499.02744  23248104.2274                   23248104.0124
 -26682105.01648 -20780600.45746  20868491.7974                   20868490.0864
  -3218647.03546  -2495989.58243  23625087.8054                   23625087.1914
 -17623218.84447 -13720545.84446  21791208.0634                   21791207.5944
 -28190553.59447 -21953825.87945  21814852.7034                   21814851.6644
  -3073699.86347  -2383499.16844  23950836.3204                   23950838.7034
 -11131009.36346  -8661643.92644  23761435.1334                   23761438.2664
 -30395703.39147 -23672921.07047  20598651.4454                   20598647.3364
 11  8 21  0 21 30.0000000  0  9G12G17G10G30G05G04G25G09G02
 -21548453.99647 -16779539.00846  21305047.1254                   21305044.7234
 -27376083.53147 -21320139.62544  23253320.7114                   23253320.0394
 -26702072.59848 -20796159.62146  20864692.0314                   20864690.3134
  -3341804.72347  -2591956.53144  23601651.2114                   23601651.3874
 -17736295.78547 -13808657.64546  21769690.4844                   21769690.1134
 -28138929.38748 -21913599.21545  21824676.5634                   21824674.9534
  -3197993.81647  -2480351.51244  23927184.2974                   23927186.3444
 -11077968.66446  -8620313.66444  23771528.7894                   23771531.6374
 -30419502.48847 -23691465.79747  20594122.7114                   20594118.3164
 11  8 21  0 22  0.0000000  0  9G12G17G10G30G05G04G25G09G02
 -21630695.55548 -16843623.31646  21289396.7344                   21289394.7814
 -27348503.52747 -21298648.75044  23258569.1644                   23258568.8244
 -26721401.14848 -20811220.81646  20861013.7584                   20861012.1454
  -3464675.32447  -2687699.77344  23578270.5234                   23578269.7854
 -17849032.22747 -13896504.12146  21748237.6804                   21748236.5824
 -28087180.23448 -21873275.18745  21834523.7194                   21834522.8324
  -3322083.89847  -2577045.00444  23903570.9924                   23903572.3284
 -11024784.93047  -8578871.91844  23781649.3984                   23781651.8404
 -30443016.37147 -23709788.27047  20589647.8594                   20589643.8324
 11  8 21  0 22 30.0000000  0  9G12G17G10G30G05G04G25G09G02
 -21712473.67647 -16907346.50846  21273835.0164                   21273832.6414
 -27320748.72747 -21277021.66844  23263850.8444                   23263849.7974
 -26740085.70748 -20825780.19946  20857458.1024                   20857457.0084
  -3587250.94147  -2783213.19944  23554944.8284                   23554944.9804
 -17961420.92647 -13984079.64146  21726850.7344                   21726849.7194
 -28035302.96948 -21832851.34045  21844396.1484                   21844394.5314
  -3445962.65647  -2673573.84444  23879997.7034                   23879999.6174
 -10971456.72347  -8537317.59444  23791797.6954                   23791800.0234
 -30466241.18448 -23727885.49647  20585228.5004                   20585224.6174
 11  8 21  0 23  0.0000000  0  9G12G17G10G30G05G04G25G09G02
 -21793788.63747 -16970708.78946  21258361.3054                   21258359.1454
 -27292821.38347 -21255260.13344  23269165.2194                   23269164.1374
 -26758128.75448 -20839839.71546  20854024.9454                   20854023.2114
  -3709531.04747  -2878496.35244  23531676.1024                   23531674.7664
 -18073460.94147 -14071383.44546  21705529.7894                   21705529.4104
 -27983301.61748 -21792330.81645  21854291.3524                   21854289.7774
  -3569629.59447  -2769937.61344  23856464.1174                   23856466.2774
 -10917989.57847  -8495654.99244  23801971.7274                   23801973.8834
 -30489180.61347 -23745760.34447  20580863.0084                   20580859.0984
 11  8 21  0 23 30.0000000  0  9G12G17G10G30G05G04G25G09G02
 -21874639.28147 -17033709.26646  21242976.2194                   21242973.9454
 -27264721.93447 -21233364.49644  23274512.0634                   23274511.4454
 -26775531.62548 -20853400.37546  20850713.2664                   20850711.4184
  -3831513.99247  -2973547.96544  23508463.1334                   23508462.1604
 -18185151.19147 -14158414.70746  21684275.5164                   21684274.8874
 -27931179.59848 -21751716.26245  21864209.7274                   21864207.8834
  -3693083.24247  -2866135.23044  23832971.3204                   23832973.4384
 -10864387.78147  -8453887.48044  23812172.0944                   23812174.9734
 -30511836.70748 -23763414.42647  20576551.9614                   20576548.1294
 11  8 21  0 24  0.0000000  0  9G12G17G10G30G05G04G25G09G02
 -21955021.54747 -17096344.77746  21227679.7034                   21227677.4694
 -27236448.20347 -21211333.05144  23279892.4454                   23279891.9384
 -26792292.72348 -20866460.95346  20847523.6414                   20847521.9024
  -3953195.16447  -3068364.44544  23485307.9064                   23485307.4304
 -18296487.03947 -14245169.81646  21663089.4844                   21663088.5824
 -27878936.87548 -21711007.65645  21874151.3834                   21874149.9884
  -3816319.28547  -2962163.28944  23809520.6254                   23809522.4534
 -10810653.25047  -8412016.56644  23822397.4534                   23822400.2424
 -30534209.30148 -23780847.60547  20572294.3204                   20572290.2934
 11  8 21  0 24 30.0000000  0  9G12G17G10G30G05G04G25G09G02
 -22034933.24247 -17158613.60246  21212472.8054                   21212470.7304
 -27207999.47747 -21189165.24644  23285306.0554                   23285305.6294
 -26808412.22348 -20879021.59046  20844456.1334                   20844454.1524
  -4074571.86347  -3162943.65243  23462210.9224                   23462209.7234
 -18407465.42647 -14331646.39146  21641970.8674                   21641969.8014
 -27826575.37148 -21670206.50845  21884115.3284                   21884114.6054
  -3939335.14147  -3058019.76644  23786111.6804                   23786113.4454
 -10756789.30147  -8370044.80144  23832648.1094                   23832650.6564
 -30556299.34048 -23798060.61747  20568090.9534                   20568086.7584
 11  8 21  0 25  0.0000000  0  9G12G17G10G30G05G04G25G09G02
 -22114372.09048 -17220513.96946  21197356.6484                   21197353.9654
 -27179375.43747 -21166860.83244  23290753.0704                   23290752.2664
 -26823890.17648 -20891082.30946  20841511.0944                   20841509.0984
  -4195640.79347  -3257283.03944  23439171.6254                   23439171.1884
 -18518083.59047 -14417842.25446  21620920.7424                   21620919.9804
 -27774096.57847 -21629313.96145  21894101.7664                   21894100.5084
  -4062127.68047  -3153702.24244  23762744.4614                   23762745.7424
 -10702798.84447  -8327974.45744  23842921.4454                   23842925.0634
 -30578107.71548 -23815054.15246  20563940.8524                   20563936.6214
 11  8 21  0 25 30.0000000  0  9G12G17G10G30G05G04G25G09G02
 -22193335.46548 -17282043.83246  21182330.0004                   21182327.7544
 -27150574.37547 -21144418.49644  23296233.8594                   23296233.7074
 -26838726.08648 -20902642.75046  20838687.6094                   20838685.6954
  -4316398.60547  -3351379.99243  23416192.0704                   23416191.5744
 -18628338.10947 -14503754.77746  21599939.6174                   21599938.9384
 -27721501.72348 -21588330.97745  21904110.1884                   21904108.9414
  -4184693.70347  -3249208.19544  23739421.1954                   23739422.8134
 -10648684.91047  -8285807.89844  23853219.2814                   23853223.0594
 -30599634.94548 -23831828.61747  20559844.5864                   20559840.3674
 11  8 21  0 26  0.0000000  0  9G12G17G10G30G05G04G25G09G02
 -22271823.79748 -17343203.53146  21167394.1484                   21167392.0434
 -27121599.04747 -21121840.36744  23301747.5004                   23301747.4494
 -26852922.81248 -20913705.12146  20835986.3444                   20835984.2234
  -4436845.14147  -3445234.37544  23393271.9844                   23393271.4494
 -18738228.61747 -14589383.64846  21579028.5164                   21579027.2624
 -27668795.44148 -21547261.16445  21914139.8364                   21914138.9534
  -4307033.27347  -3344537.69144  23716140.6024                   23716142.0704
 -10594453.31247  -8243549.66044  23863539.2974                   23863542.2854
 -30620884.98048 -23848387.09047  20555800.5634                   20555796.9414
 11  8 21  0 26 30.0000000  0  9G12G17G10G30G05G04G25G09G02
 -22349835.21948 -17403991.60946  21152548.8134                   21152546.8204
 -27092449.00447 -21099126.08644  23307294.7894                   23307294.2734
 -26866481.28548 -20924270.15646  20833405.9384                   20833404.1954
  -4556977.93446  -3538844.25043  23370411.0784                   23370411.0784
 -18847753.14847 -14674727.36346  21558186.7664                   21558185.5824
 -27615979.86347 -21506106.20345  21924190.7344                   21924189.5744
  -4429144.08647  -3439688.90644  23692904.2114                   23692905.4494
 -10540107.85247  -8201202.71143  23873880.9064                   23873884.0824
 -30641859.50448 -23864730.89147  20551809.4144                   20551805.2154
 11  8 21  0 27  0.0000000  0  9G12G17G10G30G05G04G25G09G02
 -22427364.27348 -17464403.82046  21137795.4304                   21137793.0824
 -27063120.39146 -21076272.65644  23312876.4924                   23312875.8444
 -26879398.24248 -20934335.29746  20830947.9384                   20830946.3134
  -4676790.85546  -3632204.88344  23347612.4454                   23347611.8054
 -18956905.38747 -14759780.95346  21537415.2344                   21537414.3054
 -27563053.45747 -21464864.85945  21934261.9224                   21934261.4734
  -4551020.17647  -3534657.21144  23669711.1024                   23669713.4804
 -10485648.36746  -8158766.87943  23884245.0394                   23884247.9924
 -30662556.28948 -23880858.27047  20547871.1884                   20547866.8444
 11  8 21  0 27 30.0000000  0  9G12G17G10G30G05G04G25G09G02
 -22504407.82448 -17524437.71946  21123134.5784                   21123132.1994
 -27033611.75046 -21053278.91844  23318491.0704                   23318491.5204
 -26891673.44548 -20943900.35946  20828611.9224                   20828610.3054
  -4796280.10946  -3725313.30144  23324873.1804                   23324873.3634
 -19065681.82047 -14844541.71546  21516715.7664                   21516714.5904
 -27510017.18747 -21423537.89845  21944354.7344                   21944353.6454
  -4672657.84847  -3629439.73444  23646564.4694                   23646566.5084
 -10431077.38347  -8116244.16444  23894628.5944                   23894632.7504
 -30682975.47348 -23896769.34047  20543985.3524                   20543981.3554
 11  8 21  0 28  0.0000000  0  9G12G17G10G30G05G04G25G09G02
 -22580968.72748 -17584095.52746  21108565.5864                   21108563.6024
 -27003927.19947 -21030148.13744  23324139.5234                   23324139.6604
 -26903311.50048 -20952968.94546  20826397.2734                   20826395.3014
  -4915447.37947  -3818170.81244  23302197.0394                   23302196.2974
 -19174084.04347 -14929010.89546  21496087.4064                   21496086.8054
 -27456877.40648 -21382130.30545  21954466.7894                   21954465.3054
  -4794059.03947  -3724037.97344  23623462.4694                   23623464.1994
 -10376402.96547  -8073640.89144  23905034.1174                   23905037.1414
 -30703122.86348 -23912468.61347  20540151.2814                   20540147.0634
 11  8 21  0 28 30.0000000  0  9G12G17G10G30G05G04G25G09G02
 -22657042.41048 -17643373.68446  21094089.2814                   21094087.4534
 -26974064.12146 -21006878.22744  23329823.3204                   23329822.9264
 -26914310.40248 -20961539.49646  20824304.2034                   20824302.6254
  -5034287.49647  -3910773.39844  23279582.5234                   23279581.8054
 -19282107.11747 -15013184.62146  21475531.2344                   21475530.5434
 -27403633.44948 -21340641.52045  21964598.6954                   21964597.3554
  -4915218.76247  -3818448.02344  23600406.5554                   23600408.5554
 -10321625.72747  -8030957.45744  23915457.7894                   23915461.3984
 -30722997.34448 -23927955.23047  20536369.3054                   20536365.4304
 11  8 21  0 29  0.0000000  0  9G12G17G10G30G05G04G25G09G02
 -22732626.48048 -17702270.32446  21079706.3834                   21079703.9144
 -26944021.38346 -20983468.34844  23335539.5554                   23335539.3014
 -26924670.70748 -20969612.44946  20822333.1254                   20822331.0434
  -5152797.41047  -4003118.68444  23257030.2734                   23257029.9884
 -19389748.07448 -15097060.60246  21455048.0704                   21455047.1454
 -27350286.70347 -21299072.63345  21974750.5084                   21974749.3014
  -5036133.91447  -3912667.52044  23577397.1564                   23577399.1564
 -10266748.80147  -7988196.35544  23925900.1724                   23925903.2854
 -30742599.84048 -23943229.90646  20532639.0634                   20532634.7734
 11  8 21  0 29 30.0000000  0  9G12G17G10G30G05G04G25G09G02
 -22807717.86748 -17760783.05546  21065416.8444                   21065414.3244
 -26913797.53147 -20959917.31644  23341291.5004                   23341290.3674
 -26934391.93048 -20977187.41046  20820482.9224                   20820481.0164
  -5270973.30546  -4095203.68444  23234542.3444                   23234542.0594
 -19497003.44948 -15180636.13746  21434637.9064                   21434636.8444
 -27296838.26247 -21257424.50445  21984921.2584                   21984920.3874
  -5156801.00447  -4006693.70744  23554434.8284                   23554436.5474
 -10211774.53147  -7945359.37544  23936361.6954                   23936364.4774
 -30761930.48848 -23958292.75047  20528960.7034                   20528956.4884
 11  8 21  0 30  0.0000000  0  9G12G17G10G30G05G04G25G09G02
 -22882315.27048 -17818910.87146  21051221.5084                   21051218.8164
 -26883393.11347 -20936225.59444  23347076.8594                   23347077.2154
 -26943475.22748 -20984265.28946  20818754.6724                   20818752.5554
  -5388813.07447  -4187026.79344  23212118.0234                   23212117.3054
 -19603871.10248 -15263909.55146  21414301.8754                   21414300.2384
 -27243290.45347 -21215698.94545  21995111.2034                   21995109.7344
  -5277218.01647  -4100525.03145  23531519.9534                   23531521.7974
 -10156706.78947  -7902449.55544  23946840.4304                   23946843.7664
 -30780991.36348 -23973145.37547  20525333.5314                   20525329.4064
 11  8 21  0 30 30.0000000  0  9G12G17G10G30G05G04G25G09G02
 -22956417.72348 -17876653.01246  21037120.2424                   21037117.4884
 -26852808.13747 -20912393.16044  23352897.0944                   23352896.4384
 -26951921.81248 -20990847.02046  20817147.0164                   20817145.5744
  -5506314.94547  -4278586.59444  23189758.8594                   23189757.6724
 -19710349.39848 -15346879.57046  21394039.2274                   21394038.1884
 -27189646.01247 -21173898.09845  22005319.1334                   22005317.8754
  -5397383.25447  -4194160.16845  23508653.3754                   23508654.9264
 -10101549.97346  -7859470.32044  23957336.6724                   23957339.3794
 -30799784.44548 -23987789.32047  20521757.2114                   20521753.2734
 11  8 21  0 31  0.0000000  0  9G12G17G10G30G05G04G25G09G02
 -23030020.36748 -17934005.70346  21023114.1174                   21023111.3954
 -26822039.74247 -20888417.84044  23358752.1254                   23358752.0314
 -26959729.62148 -20996931.00846  20815661.4774                   20815659.6764
  -5623473.22747  -4369878.66044  23167463.9304                   23167462.8134
 -19816432.85548 -15429541.92246  21373851.9304                   21373851.2734
 -27135903.78547 -21132021.05545  22015546.2734                   22015543.9694
  -5517291.30147  -4287594.90645  23485835.8834                   23485837.3874
 -10046304.74246  -7816422.19143  23967849.6954                   23967852.8794
 -30818308.20748 -24002223.41846  20518232.3364                   20518228.2424
 11  8 21  0 31 30.0000000  0  9G12G17G10G30G05G04G25G09G02
 -23103121.75048 -17990967.81246  21009203.1954                   21009200.8324
 -26791087.82447 -20864299.49244  23364641.9924                   23364641.3554
 -26966899.52048 -21002517.91446  20814297.1094                   20814294.8554
  -5740285.71147  -4460901.27044  23145234.9774                   23145234.2974
 -19922119.03548 -15511894.70346  21353740.7974                   21353739.6374
 -27082066.09047 -21090069.63345  22025791.3834                   22025790.4494
  -5636939.90247  -4380827.49245  23463067.4144                   23463068.8324
  -9990974.56246  -7773307.88343  23978378.4534                   23978382.5124
 -30836564.36348 -24016448.97747  20514758.1954                   20514754.1684
 11  8 21  0 32  0.0000000  0  9G12G17G10G30G05G04G25G09G02
 -23175721.79348 -18047539.26646  20995387.9774                   20995385.2734
 -26759953.96147 -20840039.36744  23370567.0084                   23370565.9964
 -26973434.30948 -21007609.93746  20813053.6254                   20813051.5044
  -5856751.39547  -4551653.67244  23123071.7344                   23123071.3554
 -20027407.46148 -15593937.55546  21333705.1804                   21333703.8324
 -27028136.68047 -21048046.73045  22036053.8444                   22036052.1174
  -5756328.33647  -4473857.34445  23440348.2344                   23440349.8204
  -9935564.77746  -7730131.60243  23988922.7664                   23988926.3404
 -30854556.01248 -24030468.42647  20511334.3134                   20511330.8054
 11  8 21  0 32 30.0000000  0  9G12G17G10G30G05G04G25G09G02
 -23247818.52348 -18103718.53546  20981667.8914                   20981665.6684
 -26728637.70347 -20815637.11744  23376526.4844                   23376526.0944
 -26979334.68048 -21012207.61746  20811930.5164                   20811928.5554
  -5972867.62147  -4642133.77744  23100975.5554                   23100974.4844
 -20132295.31248 -15675668.27746  21313745.7194                   21313744.5394
 -26974117.12547 -21005953.59045  22046332.8594                   22046331.5394
  -5875453.96947  -4566682.43444  23417679.3834                   23417680.3284
  -9880078.99646  -7686896.10243  23999481.9304                   23999484.9804
 -30872284.46548 -24044282.77347  20507960.9064                   20507956.8714
 11  8 21  0 33  0.0000000  0  9G12G17G10G30G05G04G25G09G02
 -23319407.33248 -18159502.02046  20968045.2814                   20968043.1174
 -26697135.62947 -20791090.08244  23382521.4534                   23382520.1174
 -26984598.64548 -21016309.39846  20810929.0864                   20810927.1094
  -6088628.85547  -4732337.28944  23078947.5394                   23078946.4924
 -20236778.02748 -15757083.30546  21293863.0864                   21293861.7894
 -26920006.49247 -20963789.49245  22056629.7424                   22056628.6804
  -5994311.35947  -4659298.49244  23395061.5164                   23395062.7274
  -9824517.48846  -7643601.58244  24010054.8594                   24010057.8794
 -30889748.27748 -24057890.92246  20504637.9774                   20504633.6214
 11  8 21  0 33 30.0000000  0  9G12G17G10G30G05G04G25G09G02
 -21815062.56648 -16987285.31646  21254312.7274                   21254310.2624
 -25090027.41447 -19538797.99244  23688343.4534                   23688342.7234
 -25413805.50048 -19792314.73446  21109840.9844                   21109839.0084
  -4628607.12546  -3594657.95744  23356780.2424                   23356779.2304
 -18765427.71948 -14610576.48846  21573851.8984                   21573850.5904
 -25290386.87947 -19693956.06645  22366736.2974                   22366734.8874
  -4537472.61347  -3524099.39545  23672288.4144                   23672289.9574
  -8193464.03146  -6372651.01244  24320433.5634                   24320437.9844
 -29331526.66448 -22843692.23447  20801157.4454                   20801153.3794
 11  8 21  0 34  0.0000000  0  9G12G17G10G30G05G04G25G09G02
 -21885627.27348 -17042270.80946  21240884.6724                   21240882.5354
 -25058150.23447 -19513958.65644  23694409.6954                   23694408.7974
 -25417796.33248 -19795424.46146  21109080.9924                   21109079.7624
  -4743647.33646  -3684299.59444  23334888.3364                   23334887.7504
 -18869088.59848 -14691351.12546  21554125.6644                   21554124.2544
 -25236096.55147 -19651651.94545  22377067.7974                   22377066.7034
  -4655782.89547  -3616289.12544  23649774.6644                   23649776.7584
  -8137758.14846  -6329244.02744  24331034.7894                   24331038.4734
 -29348462.06248 -22856888.64146  20797934.6024                   20797930.6374
 11  8 21  0 34 30.0000000  0  9G12G17G10G30G05G04G25G09G02
 -21955674.89548 -17096853.37946  21227554.8364                   21227552.6214
 -25026082.71547 -19488971.01244  23700511.2194                   23700511.0434
 -25421149.78548 -19798037.52746  21108443.2344                   21108441.5704
  -4858320.88747  -3773655.52344  23313066.8364                   23313065.9304
 -18972332.75448 -14771801.03946  21534478.7584                   21534477.5434
 -25181716.88747 -19609278.23045  22387415.4774                   22387415.1334
  -4773813.66447  -3708261.08244  23627314.2894                   23627315.5594
  -8081983.02346  -6285783.05144  24341648.5394                   24341652.4964
 -29365132.82848 -22869878.83247  20794762.3674                   20794758.2664
 11  8 21  0 35  0.0000000  0  9G12G17G10G30G05G04G25G09G02
 -22025205.91448 -17151033.39846  21214323.5004                   21214321.2034
 -24993826.71147 -19463836.48844  23706650.1484                   23706649.8164
 -25423868.29748 -19800155.84846  21107925.9384                   21107923.8524
  -4972627.02746  -3862725.18044  23291315.0084                   23291314.1174
 -19075159.98848 -14851926.07446  21514911.6564                   21514910.3014
 -25127251.55947 -19566837.75445  22397780.0314                   22397778.1174
  -4891564.25847  -3800014.71544  23604906.5784                   23604907.7074
  -8026144.11746  -6242272.41844  24352274.0394                   24352278.5744
 -29381542.22348 -22882665.35947  20791639.8984                   20791635.3404
 11  8 21  0 35 30.0000000  0  9G12G17G10G30G05G04G25G09G02
 -22094219.38348 -17204810.13346  21201191.0234                   21201188.6024
 -24961382.86347 -19438555.58244  23712823.5084                   23712823.4734
 -25425953.97748 -19801781.05146  21107528.8594                   21107527.2034
  -5086564.00847  -3951507.17244  23269633.5234                   23269632.7274
 -19177568.25848 -14931724.65646  21495423.6884                   21495422.1644
 -25072703.21547 -19524332.59445  22408160.3524                   22408159.0744
  -5009033.06247  -3891548.77044  23582553.1414                   23582554.5234
  -7970245.56647  -6198715.28944  24362911.6174                   24362915.8594
 -29397693.21948 -22895250.53146  20788566.2274                   20788562.2034
 11  8 21  0 36  0.0000000  0  9G12G17G10G30G05G04G25G09G02
 -22162710.67248 -17258179.97746  21188157.2584                   21188155.0904
 -24928747.71146 -19413125.60944  23719034.2274                   23719034.3984
 -25427405.14148 -19802911.82446  21107253.3284                   21107251.6524
  -5200126.35547  -4039997.25044  23248023.7504                   23248022.1024
 -19279552.62148 -15011192.90646  21476016.6564                   21476015.2344
 -25018070.76647 -19481761.89845  22418556.8204                   22418555.7194
  -5126214.56647  -3982858.97345  23560254.0944                   23560255.3244
  -7914287.58247  -6155111.87543  24373560.9144                   24373564.2464
 -29413583.82848 -22907632.80947  20785542.3674                   20785537.9774
 11  8 21  0 36 30.0000000  0  9G12G17G10G30G05G04G25G09G02
 -22230680.60548 -17311143.56246  21175223.1174                   21175220.8874
 -24895923.57446 -19387548.37944  23725280.3364                   23725280.5044
 -25428224.75048 -19803550.47746  21107096.7584                   21107095.3404
  -5313313.89547  -4128195.26244  23226484.4064                   23226483.6134
 -19381112.98848 -15090330.78946  21456690.4774                   21456689.0044
 -24963358.44547 -19439128.96145  22428968.1414                   22428967.3674
  -5243108.75847  -4073945.27045  23538010.1804                   23538011.5594
  -7858276.15646  -6111466.83244  24384219.5084                   24384223.1724
 -29429217.49648 -22919814.88346  20782567.3594                   20782562.9924
 11  8 21  0 37  0.0000000  0  9G12G17G10G30G05G04G25G09G02
 -22298128.60948 -17363700.44946  21162388.3364                   21162386.1094
 -24862911.36746 -19361824.59844  23731561.7974                   23731562.1764
 -25428415.30148 -19803698.93746  21107060.7814                   21107058.9734
  -5426125.09447  -4216100.01644  23205016.9304                   23205016.1994
 -19482248.31248 -15169137.44946  21437444.5004                   21437443.2384
 -24908569.25447 -19396436.11745  22439393.8444                   22439393.4344
  -5359714.20747  -4164806.58245  23515820.5164                   23515822.0904
  -7802215.90646  -6067783.79343  24394887.1804                   24394890.9534
 -29444597.16848 -22931799.03146  20779640.7664                   20779636.2194
 11  8 21  0 37 30.0000000  0  9G12G17G10G30G05G04G25G09G02
 -22365050.73048 -17415847.54746  21149653.3444                   21149651.0904
 -24829708.27046 -19335952.08644  23737880.2034                   23737880.6844
 -25427975.91848 -19803356.53146  21107143.7274                   21107142.7584
  -5538555.14147  -4303707.77344  23183622.4384                   23183621.6454
 -19582953.71148 -15247609.10546  21418280.9064                   21418280.0204
 -24853702.75447 -19353683.04745  22449834.9924                   22449833.1134
  -5476026.08247  -4255439.14545  23493687.0474                   23493688.8404
  -7746107.78546  -6024063.41843  24405564.0944                   24405568.1844
 -29459721.80148 -22943584.46146  20776762.2584                   20776758.1684
 11  8 21  0 38  0.0000000  0  9G12G17G10G30G05G04G25G09G02
 -22431445.59448 -17467583.79346  21137018.8674                   21137016.4454
 -24796314.47746 -19309930.96944  23744235.1174                   23744234.7504
 -25426907.51648 -19802523.98846  21107347.4144                   21107345.6604
  -5650601.56247  -4391016.60944  23162300.1724                   23162299.4304
 -19683226.96148 -15325744.02746  21399199.9534                   21399198.4264
 -24798760.51647 -19310870.94145  22460289.9224                   22460288.7814
  -5592042.02047  -4345841.09845  23471610.3054                   23471611.0704
  -7689955.39846  -5980308.52343  24416250.0634                   24416254.4654
 -29474593.02748 -22955172.42646  20773932.7034                   20773928.4654
 11  8 21  0 38 30.0000000  0  9G12G17G10G30G05G04G25G09G02
 -22497310.45348 -17518907.05146  21124485.0084                   21124482.6214
 -24762728.82046 -19283760.35944  23750626.4924                   23750625.7974
 -25425210.33248 -19801201.48046  21107670.4384                   21107668.4734
  -5762260.85247  -4478023.77344  23141052.5784                   23141051.1994
 -19783065.03948 -15403539.85546  21380201.0944                   21380199.8324
 -24743743.52347 -19268000.58645  22470759.3524                   22470758.0314
  -5707758.57447  -4436009.75045  23449590.1644                   23449591.4734
  -7633761.26246  -5936521.10243  24426943.6094                   24426948.0634
 -29489211.10248 -22966563.12146  20771150.8834                   20771146.7704
 11  8 21  0 39  0.0000000  0  9G12G17G10G30G05G04G25G09G02
 -22562641.62948 -17569814.44546  21112053.1414                   21112050.8204
 -24728949.02346 -19257438.44544  23757054.1884                   23757053.6994
 -25422883.37548 -19799388.24246  21108113.1174                   21108111.4844
  -5873528.16047  -4564725.50844  23119878.7894                   23119877.7194
 -19882463.37948 -15480993.03546  21361286.2584                   21361284.8364
 -24688651.38347 -19225071.66445  22481242.8284                   22481242.0314
  -5823170.96547  -4525941.40645  23427627.4144                   23427629.2384
  -7577526.01646  -5892701.62943  24437644.1724                   24437648.9654
 -29503575.03548 -22977755.77747  20768417.3134                   20768413.5664
 11  8 21  0 39 30.0000000  0  9G12G17G10G30G05G04G25G09G02
 -22627438.67648 -17620305.64146  21099722.5634                   21099720.2624
 -24694975.75446 -19230965.78544  23763518.8364                   23763518.2274
 -25419928.83648 -19797085.97746  21108675.3834                   21108673.7344
  -5984402.09847  -4651120.70744  23098780.2504                   23098778.8754
 -19981420.41448 -15558102.32846  21342455.3914                   21342453.7974
 -24633486.85247 -19182086.34445  22491741.3914                   22491740.1484
  -5938277.87147  -4615635.02345  23405723.5314                   23405724.7974
  -7521254.64846  -5848854.02043  24448352.8834                   24448356.7814
 -29517687.68748 -22988752.64546  20765732.1804                   20765727.8594
 11  8 21  0 40  0.0000000  0  9G12G17G10G30G05G04G25G09G02
 -22691701.69548 -17670380.69946  21087493.8054                   21087491.3754
 -24660809.96146 -19204343.13744  23770021.0704                   23770020.0594
 -25416349.08648 -19794296.53946  21109356.7664                   21109354.6914
  -6094881.44947  -4737208.45344  23077756.9924                   23077755.5394
 -20079935.64848 -15634867.37146  21323708.4694                   21323707.1484
 -24578252.99647 -19139047.00845  22502251.1414                   22502250.6724
  -6053078.01647  -4705089.60245  23383877.5004                   23383879.2464
  -7464951.75046  -5804981.82443  24459067.5164                   24459071.3874
 -29531551.66048 -22999555.72746  20763093.8284                   20763089.5124
 11  8 21  0 40 30.0000000  0  9G12G17G10G30G05G04G25G09G02
 -22755427.52048 -17720037.16846  21075367.1724                   21075364.8914
 -24626450.33646 -19177569.43044  23776559.1884                   23776558.4574
 -25412144.44148 -19791020.15246  21110156.7734                   21110155.0474
  -6204962.25847  -4822985.65244  23056808.7734                   23056808.5784
 -20178005.46148 -15711285.32446  21305046.1254                   21305044.7504
 -24522950.04347 -19095953.80545  22512775.3364                   22512773.9304
  -6167567.69547  -4794302.27045  23362091.0784                   23362092.6454
  -7408619.32846  -5761086.62143  24469787.8444                   24469791.5314
 -29545166.88348 -23010164.98046  20760502.7194                   20760498.8364
 11  8 21  0 41  0.0000000  0  9G12G17G10G30G05G04G25G09G02
 -22818613.67648 -17769273.11746  21063343.0004                   21063340.7664
 -24591895.60946 -19150643.69144  23783135.1414                   23783134.2074
 -25407315.29747 -19787257.14846  21111075.6954                   21111073.9654
  -6314641.07447  -4908449.60544  23035937.7114                   23035936.8954
 -20275626.64148 -15787353.69946  21286469.4224                   21286468.0634
 -24467578.79347 -19052807.38345  22523311.7274                   22523310.5594
  -6281743.37147  -4883270.25045  23340363.8364                   23340365.4614
  -7352259.88346  -5717170.37143  24480512.2034                   24480517.1454
 -29558533.66848 -23020580.64846  20757959.3134                   20757954.8674
 11  8 21  0 41 30.0000000  0  9G12G17G10G30G05G04G25G09G02
 -22881258.43448 -17818087.19146  21051422.2424                   21051419.6054
 -24557145.27746 -19123565.52343  23789747.5944                   23789746.4574
 -25401862.53147 -19783008.22746  21112113.2274                   21112111.5704
  -6423914.81647  -4993597.92244  23015143.7034                   23015142.7624
 -20372796.43048 -15863070.34446  21267978.7194                   21267977.2304
 -24412140.65647 -19009608.84845  22533861.4454                   22533860.1254
  -6395602.02047  -4971991.21145  23318697.0474                   23318698.6254
  -7295875.64146  -5673234.79743  24491242.5394                   24491246.3014
 -29571653.18448 -23030803.63746  20755462.6644                   20755458.3444
 11  8 21  0 42  0.0000000  0  9G12G17G10G30G05G04G25G09G02
 -22943360.23848 -17866478.19546  21039604.8674                   21039602.1564
 -24522199.39546 -19096334.96143  23796398.3134                   23796397.1174
 -25395787.64148 -19778274.52746  21113269.4304                   21113267.3524
  -6532781.44147  -5078429.00044  22994426.8594                   22994426.1524
 -20469512.97748 -15938433.81646  21249573.9844                   21249572.1454
 -24356637.47347 -18966359.66045  22544423.5944                   22544421.9694
  -6509141.60947  -5060463.55545  23297091.5704                   23297092.9924
  -7239470.39546  -5629282.84043  24501975.7504                   24501980.0514
 -29584527.01648 -23040835.18446  20753012.7114                   20753008.7114
 11  8 21  0 42 30.0000000  0  9G12G17G10G30G05G04G25G09G02
 -23004916.10948 -17914443.78946  21027890.8054                   21027888.6914
 -24487055.74246 -19068950.29343  23803085.2504                   23803085.2734
 -25389089.87548 -19773055.45746  21114543.6954                   21114541.9924
  -6641236.37947  -5162939.27344  22973788.7814                   22973788.0434
 -20565771.87948 -16013440.68046  21231256.1954                   21231254.8164
 -24301068.98047 -18923059.56645  22554997.2894                   22554996.4654
  -6622357.59047  -5148683.74645  23275546.8204                   23275547.8954
  -7183045.62946  -5585315.62543  24512712.9774                   24512717.8524
 -29597154.73048 -23050674.93446  20750609.8984                   20750605.4924
 11  8 21  0 43  0.0000000  0  9G12G17G10G30G05G04G25G09G02
 -23065925.55148 -17961983.59046  21016281.2584                   21016279.1294
 -24451715.10946 -19041412.13344  23809810.2734                   23809809.8204
 -25381771.29748 -19767352.64146  21115936.4774                   21115934.4924
  -6749277.93447  -5247127.43444  22953228.6884                   22953228.1564
 -20661571.94148 -16088090.01646  21213026.1564                   21213024.8204
 -24245437.84447 -18879710.66845  22565583.5944                   22565582.8014
  -6735248.34447  -5236650.51245  23254064.5784                   23254065.2114
  -7126605.71146  -5541336.61344  24523453.8594                   24523458.5904
 -29609538.29348 -23060324.46146  20748253.3834                   20748249.1094
 11  8 21  0 43 30.0000000  0  9G12G17G10G30G05G04G25G09G02
 -23126386.68448 -18009096.13346  21004775.9534                   21004773.6684
 -24416177.07446 -19013720.17244  23816573.5784                   23816572.8754
 -25373833.42248 -19761167.26246  21117447.1414                   21117445.0744
  -6856903.48047  -5330991.44145  22932748.3134                   22932747.1374
 -20756910.75448 -16162379.93046  21194883.6644                   21194882.4534
 -24189745.49247 -18836314.05145  22576182.0784                   22576180.8444
  -6847811.13747  -5324361.73845  23232644.4224                   23232645.6334
  -7070153.39546  -5497347.95743  24534195.9614                   24534201.2304
 -29621679.02348 -23069784.74646  20745943.1564                   20745938.7974
 11  8 21  0 44  0.0000000  0  9G12G17G10G30G05G04G25G09G02
 -23186299.28948 -18055781.26246  20993374.8364                   20993372.3094
 -24380442.66846 -18985875.17644  23823373.8984                   23823373.1914
 -25365278.89848 -19754501.37546  21119075.1644                   21119073.2664
  -6964111.50847  -5414530.11344  22912347.6414                   22912346.1804
 -20851787.39148 -16236309.71546  21176829.6414                   21176828.0394
 -24133994.48847 -18792871.73045  22586791.0164                   22586789.7894
  -6960044.64847  -5411816.37145  23211287.6724                   23211288.7154
  -7013693.30946  -5453353.23843  24544939.8984                   24544944.6454
 -29633579.22748 -23079057.60546  20743678.5084                   20743674.0314
 11  8 21  0 44 30.0000000  0  9G12G17G10G30G05G04G25G09G02
 -23245661.28948 -18102037.33246  20982078.6644                   20982076.2504
 -24344511.03546 -18957876.50044  23830210.9924                   23830210.1954
 -25356108.83648 -19747355.85246  21120819.6334                   21120817.8834
  -7070899.02047  -5497741.10244  22892026.4304                   22892025.5354
 -20946199.03548 -16309877.17646  21158863.5474                   21158862.1414
 -24078185.78147 -18749384.43045  22597411.1024                   22597409.5904
  -7071945.77347  -5499012.00445  23189993.2584                   23189994.6484
  -6957228.02046  -5409354.47743  24555684.7814                   24555690.0434
 -29645239.85248 -23088143.78546  20741459.2814                   20741455.4224
 11  8 21  0 45  0.0000000  0  9G12G17G10G30G05G04G25G09G02
 -23304471.77348 -18147863.66446  20970887.2894                   20970885.0274
 -24308382.44146 -18929724.34444  23837085.8364                   23837085.0084
 -25346324.88348 -19739731.98046  21122681.4534                   21122679.4804
  -7177263.94547  -5580622.80144  22871785.7114                   22871784.7304
 -21040144.16448 -16383081.10946  21140986.3444                   21140984.6954
 -24022321.66047 -18705853.97345  22608041.3444                   22608040.6954
  -7183512.39847  -5585947.00045  23168762.7274                   23168763.4804
  -6900761.22346  -5365354.54343  24566430.4694                   24566435.1484
 -29656662.66048 -23097044.64846  20739285.9304                   20739281.6054
 11  8 21  0 45 30.0000000  0  9G12G17G10G30G05G04G25G09G02
 -23362727.32448 -18193257.57446  20959801.5784                   20959798.9654
 -24272054.62547 -18901416.94544  23843999.1024                   23843998.0394
 -25335926.27348 -19731629.14846  21124660.1094                   21124658.2974
  -7283201.55147  -5663171.50444  22851625.5704                   22851625.6334
 -21133618.12948 -16455917.90646  21123198.5554                   21123196.9104
 -23966401.47747 -18662279.82045  22618682.8444                   22618681.8914
  -7294739.81247  -5672617.68744  23147596.9304                   23147597.5864
  -6844294.02046  -5321354.29343  24577175.5394                   24577179.7464
 -29667846.80548 -23105759.53546  20737157.5474                   20737153.3164
 11  8 21  0 46  0.0000000  0  9G12G17G10G30G05G04G25G09G02
 -23420424.60248 -18238216.46946  20948822.0864                   20948819.6804
 -24235525.44546 -18872952.63344  23850950.2194                   23850949.4224
 -25324912.20348 -19723046.75846  21126756.1804                   21126754.1134
  -7388707.30147  -5745383.72745  22831549.3674                   22831548.2894
 -21226616.84448 -16528384.37146  21105501.4694                   21105499.7304
 -23910424.59047 -18618661.51245  22629335.1884                   22629334.7034
  -7405623.56247  -5759020.57045  23126496.0004                   23126497.0594
  -6787827.55946  -5277354.62143  24587921.3524                   24587926.1254
 -29678791.64548 -23114287.94946  20735074.5394                   20735070.3674
 11  8 21  0 46 30.0000000  0  9G12G17G10G30G05G04G25G09G02
 -23477566.22748 -18282742.38346  20937948.6334                   20937946.0984
 -24198798.57847 -18844334.29744  23857939.2274                   23857938.6094
 -25313288.41848 -19713989.27346  21128968.2664                   21128966.2704
  -7493782.72747  -5827260.62945  22811553.5394                   22811553.2664
 -21319142.55948 -16600482.27346  21087894.3834                   21087892.9574
 -23854396.74647 -18575003.45745  22639996.9384                   22639995.7304
  -7516165.05947  -5845156.76245  23105461.0164                   23105461.9804
  -6731368.97746  -5233361.06243  24598665.7584                   24598670.2234
 -29689502.32448 -23122633.89546  20733036.6094                   20733032.2154
 11  8 21  0 47  0.0000000  0  9G12G17G10G30G05G04G25G09G02
 -23534149.24648 -18326833.01646  20927181.0314                   20927178.6564
 -24161872.02747 -18815560.33244  23864965.7344                   23864965.2114
 -25301054.98448 -19704456.74246  21131296.1334                   21131294.2074
  -7598423.55947  -5908798.88744  22791641.2504                   22791640.6724
 -21411191.00048 -16672208.27346  21070378.1254                   21070376.5394
 -23798317.54747 -18531305.39845  22650668.6564                   22650667.4144
  -7626359.99647  -5931022.89845  23084491.2274                   23084491.8984
  -6674919.84046  -5189374.85943  24609407.0084                   24609412.1334
 -29699978.34448 -23130797.00046  20731043.0554                   20731038.6134
 11  8 21  0 47 30.0000000  0  9G12G17G10G30G05G04G25G09G02
 -23590171.91448 -18370487.01646  20916520.2114                   20916517.5274
 -24124745.84847 -18786630.84844  23872030.3204                   23872030.8794
 -25288213.56648 -19694450.45746  21133739.7974                   21133737.5474
  -7702627.47747  -5989996.68445  22771811.7974                   22771810.6564
 -21502760.23848 -16743560.86346  21052952.9224                   21052951.5004
 -23742188.62947 -18487568.56244  22661349.1484                   22661347.8054
  -7736206.06247  -6016617.20345  23063588.5314                   23063589.4264
  -6618483.42646  -5145398.58243  24620147.2424                   24620151.6914
 -29710221.28548 -23138778.47346  20729093.7504                   20729089.3954
 11  8 21  0 48  0.0000000  0  9G12G17G10G30G05G04G25G09G02
 -23645632.83248 -18413703.28946  20905966.5944                   20905963.9574
 -24087418.76647 -18757544.78944  23879133.6334                   23879133.9304
 -25274764.42248 -19683970.59846  21136299.0164                   21136297.1884
  -7806390.86347  -6070851.23045  22752066.7424                   22752065.1994
 -21593846.72348 -16814537.27746  21035619.7814                   21035618.2074
 -23686010.48847 -18443793.37945  22672039.5554                   22672038.0394
  -7845699.56647  -6101936.77745  23042752.6094                   23042753.5204
  -6562061.52347  -5101433.57443  24630884.1174                   24630887.0944
 -29720231.47748 -23146578.59846  20727188.9534                   20727184.5744
 11  8 21  0 48 30.0000000  0  9G12G17G10G30G05G04G25G09G02
 -23700533.73048 -18456483.18046  20895518.9924                   20895516.5744
 -24049894.35947 -18728304.97744  23886274.7584                   23886274.3054
 -25260712.59448 -19673021.12146  21138973.0084                   21138971.3954
  -7909714.85247  -6151363.39145  22732404.3284                   22732403.6524
 -21684452.56648 -16885139.18046  21018378.1564                   21018376.4574
 -23629788.17247 -18399983.76245  22682738.0474                   22682737.1334
  -7954841.68747  -6186982.53545  23021983.5704                   23021984.9844
  -6505661.16047  -5057485.36343  24641616.6564                   24641620.2114
 -29730013.71148 -23154201.08646  20725327.2974                   20725323.1094
 11  8 21  0 49  0.0000000  0  9G12G17G10G30G05G04G25G09G02
 -23754871.19548 -18498824.03546  20885178.5944                   20885176.3954
 -24012170.14547 -18698909.49644  23893453.0314                   23893453.3914
 -25246057.41448 -19661601.50046  21141761.7664                   21141759.7504
  -8012594.78947  -6231529.52745  22712826.7584                   22712826.0864
 -21774573.38748 -16955363.12946  21001228.4534                   21001227.1954
 -23573520.86747 -18356139.09445  22693445.6024                   22693444.0784
  -8063627.66047  -6271750.79345  23001282.1414                   23001283.2304
  -6449283.30547  -5013554.73043  24652345.3984                   24652349.5634
 -29739567.08648 -23161645.24646  20723509.2974                   20723505.0594
 11  8 21  0 49 30.0000000  0  9G12G17G10G30G05G04G25G09G02
 -23808641.95748 -18540723.29346  20874946.6884                   20874944.0634
 -23974243.57846 -18669356.32444  23900669.9384                   23900670.1564
 -25230798.82848 -19649711.69146  21144665.4304                   21144664.0434
  -8115026.07047  -6311346.07445  22693335.0084                   22693334.3634
 -21864205.15648 -17025206.00046  20984171.9694                   20984170.3674
 -23517208.05147 -18312258.96545  22704161.8364                   22704160.3794
  -8172052.78147  -6356237.85945  22980649.4534                   22980650.6484
  -6392928.66846  -4969642.22343  24663068.5164                   24663074.9384
 -29748890.97748 -23168910.58246  20721735.1174                   20721730.9574
 11  8 21  0 50  0.0000000  0  9G12G17G10G30G05G04G25G09G02
 -23861847.81248 -18582182.37146  20864821.8204                   20864819.3054
 -23936117.89846 -18639647.99644  23907925.1414                   23907924.6134
 -25214941.44548 -19637355.29346  21147683.2194                   21147681.5944
  -8217009.12947  -6390813.35945  22673928.4534                   22673927.2274
 -21953348.39548 -17094668.20746  20967208.9454                   20967206.9694
 -23460854.12946 -18268346.87944  22714885.1094                   22714884.6914
  -8280117.51647  -6440444.10245  22960085.5394                   22960086.5164
  -6336603.42646  -4925752.63344  24673788.0784                   24673793.6134
 -29757989.06248 -23175999.97347  20720004.1804                   20719999.5434
 11  8 21  0 50 30.0000000  0  9G12G17G10G30G05G04G25G09G02
 -23914487.32448 -18623200.14146  20854804.8594                   20854802.3284
 -23897792.78546 -18609784.28544  23915218.0784                   23915217.3954
 -25198486.80548 -19624533.47746  21150814.6254                   21150812.4104
  -8318541.55547  -6469929.51245  22654607.0554                   22654606.2154
 -22042001.14148 -17163748.20746  20950338.6884                   20950337.0394
 -23404459.98447 -18224403.35945  22725616.8204                   22725615.1994
  -8387819.32047  -6524367.53945  22939590.6414                   22939591.2974
  -6280310.60546  -4881888.25444  24684499.6024                   24684505.4654
 -29766862.93748 -23182914.64846  20718315.1414                   20718310.8524
 11  8 21  0 51  0.0000000  0  9G12G17G10G30G05G04G25G09G02
 -23966559.24248 -18663775.63346  20844895.7194                   20844893.3834
 -23859267.82446 -18579764.84444  23922549.4844                   23922548.4104
 -25181436.48048 -19611247.49246  21154059.0554                   21154056.9494
  -8419620.69547  -6548692.44145  22635372.2194                   22635371.4264
 -22130161.44948 -17232444.49246  20933562.3754                   20933560.7734
 -23348027.52347 -18180430.02344  22736355.5634                   22736353.9804
  -8495155.54347  -6608006.11745  22919165.1024                   22919165.7894
  -6224053.30546  -4838051.60543  24695204.7814                   24695210.8164
 -29775513.82448 -23189655.58646  20716668.7584                   20716664.7774
 11  8 21  0 51 30.0000000  0  9G12G17G10G30G05G04G25G09G02
 -24018060.93748 -18703906.78946  20835095.3674                   20835092.9414
 -23820541.47346 -18549588.48044  23929918.6724                   23929918.6644
 -25163790.59448 -19597497.42646  21157416.7274                   21157414.3524
  -8520242.49247  -6627099.02045  22616225.5394                   22616223.8204
 -22217825.58248 -17300754.14546  20916880.0084                   20916878.6954
 -23291556.28147 -18136426.46544  22747101.5084                   22747099.8674
  -8602122.00847  -6691356.56645  22898809.9224                   22898810.5394
  -6167832.70746  -4794243.57843  24705904.0634                   24705909.1804
 -29783941.16448 -23196222.33647  20715065.2114                   20715061.2194
 11  8 21  0 52  0.0000000  0  9G12G17G10G30G05G04G25G09G02
 -24068990.20348 -18743591.89846  20825403.7664                   20825401.6294
 -23781612.99246 -18519254.64544  23937326.8204                   23937325.9924
 -25145550.18448 -19583284.09046  21160887.8284                   21160885.5354
  -8620403.98847  -6705146.91045  22597164.7274                   22597163.6174
 -22304990.87148 -17368675.07846  20900293.2734                   20900291.6684
 -23235047.24647 -18092393.46145  22757855.0474                   22757854.7234
  -8708715.71947  -6774416.57045  22878525.9144                   22878526.8054
  -6111651.57846  -4750466.34043  24716594.9924                   24716600.8134
 -29792145.61748 -23202615.41046  20713504.1024                   20713499.5314
 11  8 21  0 52 30.0000000  0  9G12G17G10G30G05G04G25G09G02
 -24119348.51648 -18782832.10946  20815821.1644                   20815818.2234
 -23742483.84046 -18488764.39844  23944773.1254                   23944772.0904
 -25126718.87548 -19568610.31646  21164471.5004                   21164469.0634
  -8720104.52047  -6782835.60545  22578192.4304                   22578191.3324
 -22391656.91048 -17436206.99246  20883801.1884                   20883799.1564
 -23178503.50847 -18048333.42644  22768614.6484                   22768614.5314
  -8814935.87547  -6857185.46945  22858312.5864                   22858313.7304
  -6055514.60546  -4706723.50443  24727277.3754                   24727283.5164
 -29800130.28148 -23208837.22747  20711984.5004                   20711980.2304
 11  8 21  0 53  0.0000000  0  9G12G17G10G30G05G04G25G09G02
 -24169129.97748 -18821622.81646  20806347.6724                   20806345.3014
 -23703149.51646 -18458114.29344  23952257.8674                   23952257.0594
 -25107293.76248 -19553473.82846  21168167.7194                   21168165.8164
  -8819337.26647  -6860159.81245  22559309.1804                   22559308.3324
 -22477817.75448 -17503345.25846  20867405.1564                   20867403.7584
 -23121921.71547 -18004243.72744  22779381.5864                   22779380.8674
  -8920775.61347  -6939657.94945  22838172.0474                   22838172.8794
  -5999420.22746  -4663013.87943  24737952.2274                   24737957.8364
 -29807892.15648 -23214885.43047  20710507.1724                   20710503.1764
 11  8 21  0 53 30.0000000  0  9G12G17G10G30G05G04G25G09G02
 -24218338.83248 -18859967.34847  20796983.7814                   20796981.3284
 -23663615.50446 -18427308.62144  23959781.2734                   23959781.2234
 -25087282.48048 -19537880.59446  21171975.6804                   21171973.8014
  -8918105.40247  -6937121.96945  22540514.0704                   22540513.2384
 -22563477.05948 -17570092.69946  20851104.8984                   20851103.0984
 -23065309.01647 -17960129.97744  22790154.9384                   22790154.0784
  -9026237.98047  -7021836.37145  22818103.1334                   22818104.0394
  -5943377.29746  -4619344.30943  24748617.0394                   24748622.7234
 -29815438.01648 -23220765.34046  20709071.7424                   20709067.0354
 11  8 21  0 54  0.0000000  0  9G12G17G10G30G05G04G25G09G02
 -24266971.35248 -18897862.78947  20787729.1024                   20787726.8094
 -23623878.51246 -18396344.76243  23967342.1884                   23967342.7504
 -25066683.87948 -19521829.69146  21175895.6254                   21175893.4774
  -9016403.44147  -7013717.79745  22521808.6884                   22521808.1804
 -22648629.64548 -17636445.30546  20834900.8444                   20834898.7234
 -23008663.64847 -17915990.78145  22800934.4454                   22800933.1844
  -9131317.35548  -7103716.37145  22798107.4454                   22798108.3284
  -5887385.59846  -4575714.68743  24759273.4224                   24759278.0394
 -29822765.90248 -23226475.39846  20707677.0004                   20707672.7854
 11  8 21  0 54 30.0000000  0  9G12G17G10G30G05G04G25G09G02
 -24315025.17648 -18935307.30946  20778585.2344                   20778582.3484
 -23583937.14146 -18365221.60943  23974942.9064                   23974942.7114
 -25045498.38347 -19505321.47346  21179927.2584                   21179924.9534
  -9114227.71547  -7089944.48845  22503192.8834                   22503192.0234
 -22733272.28548 -17702400.54746  20818793.9534                   20818792.0744
 -22951985.70747 -17871826.20744  22811719.9614                   22811718.8524
  -9236009.98848  -7185295.00845  22778184.6804                   22778185.7274
  -5831446.82846  -4532126.25443  24769917.2034                   24769923.1094
 -29829875.75048 -23232015.55146  20706324.1174                   20706319.9614
 11  8 21  0 55  0.0000000  0  9G12G17G10G30G05G04G25G09G02
 -24362501.76648 -18972302.02347  20769550.4694                   20769547.6884
 -23543793.98846 -18333941.24643  23982582.5004                   23982580.9804
 -25023730.56647 -19488359.51246  21184069.2344                   21184067.5314
  -9211578.41047  -7165802.13345  22484667.8754                   22484666.9804
 -22817405.85247 -17767959.11346  20802783.6174                   20802781.9924
 -22895278.87947 -17827639.10544  22822511.0084                   22822509.5784
  -9340315.94947  -7266572.32445  22758336.0554                   22758336.9344
  -5775566.73046  -4488583.51643  24780550.5394                   24780556.8444
 -29836771.07048 -23237388.54746  20705012.1414                   20705007.8794
 11  8 21  0 55 30.0000000  0  9G12G17G10G30G05G04G25G09G02
 -24409395.53948 -19008842.60947  20760627.0474                   20760623.9344
 -23503444.59046 -18302500.16443  23990260.1414                   23990259.6214
 -25001377.98047 -19470941.89846  21188322.8134                   21188320.2114
  -9308448.90647  -7241285.60945  22466234.1804                   22466233.0394
 -22901024.08648 -17833116.11346  20786871.7814                   20786869.5204
 -22838540.29747 -17783427.25844  22833308.0084                   22833306.8204
  -9444228.50447  -7347543.09845  22738562.0784                   22738563.2384
  -5719743.89846  -4445085.39543  24791173.9384                   24791178.9844
 -29843449.16848 -23242592.25446  20703741.0784                   20703737.2664
 11  8 21  0 56  0.0000000  0  8G12G17G10G30G05G04G25G02
 -24455707.77348 -19044930.05547  20751813.9144                   20751811.2934
 -23462890.73046 -18270899.72343  23997977.4924                   23997976.7974
 -24978444.37548 -19453071.55146  21192686.7344                   21192684.3524
  -9404838.82847  -7316394.60245  22447891.5314                   22447890.6174
 -22984126.84848 -17897871.45346  20771057.2034                   20771055.3324
 -22781773.09447 -17739193.13344  22844110.5944                   22844109.1804
  -9547747.16047  -7428206.94545  22718863.2664                   22718864.0704
 -29849913.25848 -23247629.21546  20702511.2664                   20702506.8674
 11  8 21  0 56 30.0000000  0  8G12G17G10G30G05G04G25G02
 -24501436.76248 -19080563.01646  20743111.9064                   20743109.2074
 -23422131.30546 -18239139.09043  24005733.6884                   24005733.3554
 -24954930.75848 -19434749.25046  21197161.4064                   21197159.0704
  -9500744.85547  -7391126.52345  22429641.1484                   22429639.9884
 -23066711.75048 -17962223.26246  20755342.1334                   20755340.3594
 -22724977.65247 -17694936.98844  22854918.6024                   22854916.8244
  -9650868.41447  -7508561.13345  22699239.9064                   22699240.5664
 -29856163.44548 -23252499.48846  20701321.7424                   20701317.7854
 11  8 21  0 57  0.0000000  0  8G12G17G10G30G05G04G25G02
 -24546572.72748 -19115733.88746  20734522.8914                   20734520.1604
 -23381157.75846 -18207211.62143  24013530.6484                   24013531.3244
 -24930830.62948 -19415969.93746  21201747.3444                   21201744.9224
  -9596156.04347  -7465472.86345  22411485.3754                   22411484.4614
 -23148768.35248 -18026163.41846  20739727.1644                   20739725.5824
 -22668146.62947 -17650653.11344  22865733.0784                   22865731.8834
  -9753581.24247  -7588597.05545  22679694.2114                   22679695.1334
 -29862192.42248 -23257197.38346  20700174.6024                   20700170.3014
 11  8 21  0 57 30.0000000  0  8G12G17G10G30G05G04G25G02
 -24591114.98448 -19150442.13746  20726046.8054                   20726043.8444
 -23339970.57446 -18175117.68443  24021369.0474                   24021367.4694
 -24906146.39847 -19396735.47346  21206444.5784                   21206442.6604
  -9691070.53547  -7539432.17645  22393423.2504                   22393422.0434
 -23230295.17248 -18089690.75846  20724213.3284                   20724211.0164
 -22611281.85547 -17606342.96544  22876554.3134                   22876553.0904
  -9855883.65247  -7668313.17245  22660226.4844                   22660227.3204
 -29868001.73848 -23261724.10946  20699069.1094                   20699064.9064
 11  8 21  0 58  0.0000000  0  8G12G17G10G30G05G04G25G02
 -24635065.67248 -19184689.42646  20717683.2584                   20717680.6524
 -23298572.54746 -18142859.43443  24029246.1644                   24029245.4144
 -24880882.69947 -19377049.49246  21211252.5634                   21211250.4694
  -9785488.89147  -7613004.87145  22375456.1094                   22375454.9304
 -23311292.99248 -18152805.88746  20708799.7504                   20708797.9104
 -22554387.16446 -17562009.46544  22887380.6564                   22887380.5474
  -9957775.98847  -7747709.74245  22640837.1024                   22640837.6174
 -29873595.44148 -23266082.81246  20698004.6884                   20698000.4694
 11  8 21  0 58 30.0000000  0  8G12G17G10G30G05G04G25G02
 -24678425.52748 -19218476.32046  20709432.1414                   20709429.4734
 -23256964.53546 -18110437.59043  24037163.9774                   24037163.2074
 -24855042.96947 -19356914.64545  21216169.6094                   21216167.5664
  -9879410.14547  -7686190.22345  22357583.2664                   22357582.2464
 -23391761.81248 -18215508.81246  20693487.1804                   20693484.9414
 -22497465.21947 -17517654.72344  22898213.1484                   22898212.7234
 -10059257.17247  -7826785.94145  22621525.6094                   22621526.5704
 -29878976.10948 -23270275.51646  20696980.5554                   20696976.5044
 11  8 21  0 59  0.0000000  0  8G12G17G10G30G05G04G25G02
 -24721196.35548 -19251804.24246  20701293.1724                   20701290.6174
 -23215149.43046 -18077854.37144  24045121.5084                   24045120.8164
 -24828631.80547 -19336334.54346  21221195.1954                   21221193.4224
  -9972834.57047  -7758988.42245  22339805.3134                   22339804.2344
 -23471702.35548 -18277800.09046  20678274.5084                   20678272.6724
 -22440519.93047 -17473281.80945  22909048.8284                   22909048.3634
 -10160327.34847  -7905541.87545  22602292.6804                   22602293.8594
 -29884147.70748 -23274305.29746  20695996.4844                   20695992.2624
 11  8 21  0 59 30.0000000  0  8G12G17G10G30G05G04G25G02
 -24763378.09848 -19284673.12947  20693266.3134                   20693263.7114
 -23173128.08646 -18045110.40644  24053118.0164                   24053117.0704
 -24801652.16847 -19315311.46546  21226329.2034                   21226327.2934
 -10065760.97747  -7831398.55145  22322122.1334                   22322120.8524
 -23551114.00448 -18339679.23447  20663163.2664                   20663161.1844
 -22383553.32047 -17428892.30144  22919889.3674                   22919888.5744
 -10260985.09047  -7983976.43045  22583137.7664                   22583139.0864
 -29889112.08648 -23278173.60246  20695052.0084                   20695047.6524
 11  8 21  1  0  0.0000000  0  8G12G17G10G30G05G04G25G02
 -24804970.56248 -19317082.84046  20685351.5554                   20685348.8204
 -23130900.96546 -18012206.08244  24061153.1094                   24061151.3134
 -24774106.99247 -19293847.69546  21231570.6414                   21231568.7344
 -10158187.84447  -7903419.42245  22304533.9534                   22304532.9384
 -23629995.52048 -18401145.29347  20648152.7504                   20648150.5474
 -22326567.48846 -17384487.80144  22930733.5944                   22930732.8204
 -10361228.64547  -8062088.22745  22564062.6884                   22564063.1914
 -29893871.27748 -23281882.03146  20694146.1334                   20694141.6134
 11  8 21  1  0 30.0000000  0  8G12G17G10G30G05G04G25G02
 -24845976.51648 -19349035.54346  20677548.4304                   20677545.7114
 -23088471.82846 -17979144.38744  24069226.6094                   24069226.3094
 -24746001.73048 -19271947.48046  21236919.4454                   21236916.8554
 -10250116.33647  -7975051.94545  22287039.8444                   22287038.9804
 -23708348.72348 -18462199.67647  20633242.2974                   20633240.2854
 -22269566.81646 -17340071.72744  22941580.1954                   22941579.7584
 -10461059.14147  -8139878.16045  22545065.1024                   22545065.9144
 -29898430.10548 -23285434.31646  20693278.4304                   20693274.8054
 11  8 21  1  1  0.0000000  0  8G12G17G10G30G05G04G25G02
 -24886393.98848 -19380529.66846  20669856.7274                   20669854.3404
 -23045839.21946 -17945924.14844  24077339.9924                   24077339.8674
 -24717336.90248 -19249611.23846  21242373.9924                   21242371.7624
 -10341542.95747  -8046293.39545  22269642.5164                   22269641.0784
 -23786170.49248 -18522839.95746  20618433.2814                   20618431.2774
 -22212551.19946 -17295643.98044  22952430.2894                   22952429.9964
 -10560472.77347  -8217343.25445  22526147.4454                   22526148.2704
 -29902788.24248 -23288830.22746  20692449.1254                   20692445.1684
 11  8 21  1  1 30.0000000  0  8G12G17G10G30G05G04G25G02
 -24926222.99648 -19411565.26246  20662278.0634                   20662275.4654
 -23003004.08246 -17912546.05544  24085491.6174                   24085491.1294
 -24688115.80148 -19226841.51646  21247934.5864                   21247932.1414
 -10432466.37947  -8117142.74645  22252340.0474                   22252339.0744
 -23863460.39848 -18583065.80546  20603725.5004                   20603723.3484
 -22155522.66047 -17251206.16844  22963282.0004                   22963281.7074
 -10659467.99647  -8294482.32845  22507309.1644                   22507309.9494
 -29906947.73048 -23292071.35546  20691657.7974                   20691653.6914
 11  8 21  1  2  0.0000000  0  8G12G17G10G30G05G04G25G02
 -24965461.61348 -19442140.79746  20654810.9774                   20654808.5004
 -22959964.54746 -17879008.69544  24093680.8134                   24093681.1884
 -24658339.03148 -19203638.82046  21253600.7814                   21253598.7774
 -10522882.85247  -8187597.08645  22235134.4304                   22235132.9884
 -23940215.23048 -18642874.71147  20589119.2664                   20589117.1954
 -22098481.09447 -17206758.21544  22974136.7894                   22974135.3714
 -10758040.99647  -8371292.37545  22488551.4454                   22488551.6174
 -29910908.26648 -23295157.45346  20690904.1334                   20690899.6024
 11  8 21  1  2 30.0000000  0  8G12G17G10G30G05G04G25G02
 -25004111.18748 -19472257.34446  20647456.1414                   20647453.6604
 -22916723.38346 -17845314.23444  24101909.4534                   24101907.7384
 -24628011.07048 -19180006.60945  21259371.7664                   21259369.6054
 -10612792.73447  -8257656.66045  22218024.7664                   22218023.8874
 -24016435.68048 -18702267.21147  20574615.2734                   20574613.2814
 -22041429.91847 -17162302.76644  22984993.1024                   22984992.0904
 -10856191.80147  -8447773.45345  22469873.8594                   22469874.5744
 -29914673.63748 -23298091.48446  20690187.5784                   20690182.7234
 11  8 21  1  3  0.0000000  0  8G12G17G10G30G05G04G25G02
 -25042169.76648 -19501913.37147  20640213.7814                   20640211.2304
 -22873278.88746 -17811461.33644  24110177.2194                   24110176.0904
 -24597132.54748 -19155945.39146  21265247.7344                   21265246.2734
 -10702192.14547  -8327318.45745  22201013.0164                   22201011.9454
 -24092118.56648 -18761240.83647  20560212.9064                   20560211.2504
 -21984368.53546 -17117839.39844  22995852.0784                   22995850.8164
 -10953916.37547  -8523922.39545  22451277.2894                   22451277.9964
 -29918242.98848 -23300872.76646  20689508.2344                   20689504.0394
 11  8 21  1  3 30.0000000  0  8G12G17G10G30G05G04G25G02
 -25079639.27748 -19531110.39146  20633083.5004                   20633080.9534
 -22829633.44546 -17777451.84844  24118481.6484                   24118481.7464
 -24565708.00848 -19131458.71146  21271228.0084                   21271225.9454
 -10791081.59447  -8396582.89145  22184097.7584                   22184096.4344
 -24167264.64848 -18819796.18047  20545913.1414                   20545910.9184
 -21927300.57847 -17073370.89144  23006711.9304                   23006711.2504
 -11051214.94947  -8599739.38745  22432761.9384                   22432762.5004
 -29921620.32048 -23303504.43446  20688865.6884                   20688861.5434
 11  8 21  1  4  0.0000000  0  8G12G17G10G30G05G04G25G02
 -25116517.93448 -19559847.00446  20626065.8284                   20626063.3714
 -22785786.05146 -17743285.04744  24126826.1804                   24126825.4734
 -24533738.99248 -19106547.75446  21277311.1954                   21277309.3404
 -10879457.98447  -8465447.54745  22167280.4224                   22167278.5044
 -24241872.02748 -18877931.75047  20531715.9144                   20531713.8984
 -21870226.44946 -17028897.56644  23017572.5864                   23017571.6094
 -11148084.26647  -8675221.88345  22414328.5474                   22414328.8054
 -29924805.82048 -23305986.61746  20688259.3754                   20688254.8284
 11  8 21  1  4 30.0000000  0  8G12G17G10G30G05G04G25G02
 -23577385.60948 -18360523.10546  20918953.2974                   20918950.5124
 -21166320.05946 -16481363.43744  24435000.2664                   24435000.7584
 -22925810.55548 -17853616.47346  21583289.7584                   21583288.0394
  -9391897.83647  -7306309.69145  22450353.4924                   22450351.7234
 -22740518.05548 -17708045.48046  20817414.0234                   20817412.3484
 -20237730.65247 -15756822.96944  23328226.6024                   23328225.6214
  -9669100.37947  -7522766.82845  22695769.8594                   22695769.8634
 -28352381.96948 -22080721.27346  20987481.3054                   20987477.4024
 11  8 21  1  5  0.0000000  0  8G12G17G10G30G05G04G25G02
 -23613080.19148 -18388337.05147  20912160.4924                   20912157.8164
 -21122068.25046 -16446881.48444  24443420.9454                   24443419.7974
 -22892757.87548 -17827861.10946  21589579.3204                   21589577.6884
  -9479240.53547  -7374368.86345  22433732.8134                   22433731.2974
 -22814041.69548 -17765336.58647  20803422.9614                   20803421.3094
 -20180645.89846 -15712341.35944  23339089.2814                   23339088.2934
  -9765102.87548  -7597573.89845  22677500.7274                   22677501.0664
 -28355185.87548 -22082906.12146  20986947.9144                   20986943.2734
 11  8 21  1  5 30.0000000  0  8G12G17G10G30G05G04G25G02
 -23648181.54748 -18415688.75446  20905481.3594                   20905478.4384
 -21077613.85946 -16412241.65244  24451879.6414                   24451878.4614
 -22859166.29747 -17801685.84045  21595971.8984                   21595969.5354
  -9566062.92647  -7442022.59845  22417211.0004                   22417209.1024
 -22887021.09448 -17822203.60246  20789535.1724                   20789533.4574
 -20123557.12147 -15667856.61744  23349952.9224                   23349952.2234
  -9860668.14548  -7672040.27345  22659315.0944                   22659315.2274
 -28357800.28948 -22084943.31646  20986450.6644                   20986446.2544
 11  8 21  1  6  0.0000000  0  8G12G17G10G30G05G04G25G02
 -23682688.77048 -18442577.49246  20898914.4304                   20898911.9654
 -21032956.67646 -16377443.76244  24460377.6954                   24460377.4654
 -22825038.28147 -17775092.57045  21602466.3834                   21602464.1844
  -9652362.64847  -7509269.07045  22400788.3984                   22400787.0234
 -22959454.23848 -17878644.96547  20775751.5784                   20775749.4264
 -20066465.21146 -15623369.43044  23360817.2504                   23360816.1024
  -9955793.62547  -7746163.95345  22641213.6094                   22641214.0124
 -28360226.06648 -22086833.52046  20985988.8914                   20985984.6644
 11  8 21  1  6 30.0000000  0  9G12G17G10G30G05G04G25G29G02
 -23716602.97748 -18469004.14147  20892461.1174                   20892458.2624
 -20988098.19946 -16342489.09043  24468913.9614                   24468914.2624
 -22790377.26647 -17748083.98046  21609061.9694                   21609060.1414
  -9738139.30147  -7576107.93445  22384465.9304                   22384464.8014
 -23031341.29748 -17934660.81647  20762072.0554                   20762070.0314
 -20009372.67246 -15578881.74644  23371681.2344                   23371680.4734
 -10050478.54747  -7819944.34845  22623195.5944                   22623196.1684
   4574239.01257   3573841.87954  24770945.6644                   24770946.0394
 -28362466.08248 -22088578.98046  20985562.2734                   20985558.3244
 11  8 21  1  7  0.0000000  0  9G12G17G10G30G05G04G25G29G02
 -23749929.81247 -18494973.09847  20886118.8284                   20886115.8484
 -20943044.76246 -16307382.46944  24477487.3594                   24477487.2194
 -22755191.95747 -17720666.87145  21615757.3834                   21615755.4344
  -9823397.11747  -7642542.51245  22368241.5004                   22368240.5634
 -23102687.19948 -17990254.98047  20748495.2894                   20748493.5984
 -19952286.87946 -15534399.33244  23382544.7344                   23382543.6094
 -10144726.91447  -7893384.57845  22605260.8594                   22605261.1764
   4469772.74247   3492439.66444  24751066.9534                   24751066.4384
 -28364527.59447 -22090185.34446  20985170.5004                   20985165.6954
 11  8 21  1  7 30.0000000  0  9G12G17G10G30G05G04G25G29G02
 -23782674.35248 -18520488.32047  20879888.1024                   20879885.1374
 -20897801.71546 -16272128.10943  24486097.2734                   24486096.3244
 -22719489.88747 -17692847.07446  21622551.1334                   21622549.3754
  -9908139.09047  -7708575.16045  22352115.8284                   22352114.3594
 -23173495.60948 -18045430.31647  20735020.8674                   20735018.7934
 -19895213.94546 -15489926.96144  23393404.6724                   23393404.9964
 -10238541.50847  -7966486.79345  22587408.3914                   22587408.7504
   4365230.13747   3410978.01244  24731172.5084                   24731173.5274
 -28366416.90247 -22091657.53946  20984810.7814                   20984806.3674
 11  8 21  1  8  0.0000000  0  9G12G17G10G30G05G04G25G29G02
 -23814835.00048 -18545548.55146  20873767.7974                   20873764.9304
 -20852367.55546 -16236724.85543  24494743.2584                   24494742.3554
 -22683271.88747 -17664625.26646  21629443.5164                   21629441.2304
  -9992362.03947  -7774203.35945  22336088.6484                   22336086.8754
 -23243764.02748 -18100184.88347  20721649.3134                   20721647.0044
 -19838153.44146 -15445464.24244  23404262.9924                   23404263.3484
 -10331918.82047  -8039248.27745  22569639.0634                   22569639.5394
   4260613.10946   3329458.43044  24711264.5474                   24711265.0864
 -28368133.62948 -22092995.24246  20984484.4144                   20984479.4574
 11  8 21  1  8 30.0000000  0  9G12G17G10G30G05G04G25G29G02
 -23846409.42648 -18570151.99646  20867759.3054                   20867756.7814
 -20806740.75846 -16201171.44543  24503425.7734                   24503425.0744
 -22646538.43047 -17636001.79346  21636433.5784                   21636431.3484
 -10076062.20747  -7839424.20345  22320161.1954                   22320159.2704
 -23313489.08248 -18154516.05547  20708381.0634                   20708378.9344
 -19781104.70746 -15401010.68044  23415119.4924                   23415118.6524
 -10424854.75047  -8111665.82445  22551954.1804                   22551954.8054
   4155923.79346   3247882.54743  24691342.0314                   24691343.6644
 -28369677.31248 -22094198.09046  20984190.3674                   20984186.2274
 11  8 21  1  9  0.0000000  0  9G12G17G10G30G05G04G25G29G02
 -23877390.13747 -18594292.79346  20861863.8984                   20861861.1884
 -20760914.88746 -16165462.93443  24512145.4064                   24512144.6024
 -22609285.32047 -17606973.41446  21643522.9774                   21643520.1374
 -10159230.98847  -7904230.97745  22304334.4774                   22304332.5554
 -23382662.93448 -18208417.71147  20695217.9924                   20695215.8244
 -19724062.05546 -15356561.85244  23425973.9534                   23425973.7774
 -10517340.47747  -8183732.56245  22534354.3834                   22534354.8404
   4051169.25446   3166255.87544  24671409.1414                   24671408.7934
 -28371042.52747 -22095261.88346  20983930.1564                   20983926.4844
 11  8 21  1  9 30.0000000  0  9G12G17G10G30G05G04G25G29G02
 -23907778.18047 -18617971.77047  20856081.4064                   20856078.7544
 -20714890.55146 -16129599.81243  24520902.8444                   24520903.6174
 -22571515.94148 -17577542.73845  21650710.0554                   21650707.2194
 -10241867.18047  -7968622.76245  22288609.2814                   22288607.4734
 -23451285.08648 -18261889.47747  20682159.2274                   20682157.1684
 -19667027.25846 -15312119.14544  23436827.6954                   23436826.4494
 -10609374.48447  -8255447.30946  22516841.0394                   22516841.7974
   3946349.43446   3084578.35243  24651461.6024                   24651462.0704
 -28372230.99247 -22096187.94946  20983704.3134                   20983700.0234
 11  8 21  1 10  0.0000000  0  9G12G17G10G30G05G04G25G29G02
 -23937574.27047 -18641189.48447  20850411.2424                   20850408.5944
 -20668669.40246 -16093583.28143  24529699.3674                   24529698.7814
 -22533233.78947 -17547712.49645  21657994.7974                   21657992.2464
 -10323970.00847  -8032598.94545  22272985.3284                   22272984.1414
 -23519355.33248 -18314931.18047  20669205.8834                   20669203.7154
 -19610002.62946 -15267684.33644  23447679.0164                   23447678.2584
 -10700955.73447  -8326809.27345  22499413.7424                   22499414.2234
   3841463.61346   3002849.40243  24631502.0704                   24631502.8014
 -28373244.84447 -22096977.94546  20983511.3444                   20983507.0314
 11  8 21  1 10 30.0000000  0  9G12G17G10G30G05G04G25G29G02
 -23966774.66448 -18663943.00846  20844854.5784                   20844851.9614
 -20622247.57846 -16057410.34443  24538533.0554                   24538532.1054
 -22494437.65648 -17517481.75445  21665377.9924                   21665375.2384
 -10405534.12947  -8096155.35545  22257464.6484                   22257462.8054
 -23586868.67248 -18367538.94147  20656358.7584                   20656356.4184
 -19552985.51646 -15223255.41844  23458528.2114                   23458528.1454
 -10792078.53147  -8397813.99645  22482073.5164                   22482074.1724
   3736515.87146   2921072.13743  24611530.9454                   24611530.9574
 -28374081.71548 -22097630.03546  20983352.0474                   20983347.8204
 11  8 21  1 11  0.0000000  0  9G12G17G10G30G05G04G25G29G02
 -23995378.50448 -18686231.69546  20839411.4844                   20839408.9964
 -20575625.18446 -16021081.13743  24547404.6564                   24547403.5984
 -22455129.75047 -17486852.22745  21672857.3674                   21672855.7424
 -10486557.30147  -8159290.25045  22242045.8444                   22242044.2074
 -23653823.96948 -18419711.84447  20643616.9064                   20643615.2974
 -19495976.48046 -15178832.79744  23469377.8834                   23469377.4614
 -10882740.20347  -8468459.41045  22464821.1564                   22464821.3674
   3631507.06647   2839247.30143  24591548.5554                   24591548.1334
 -28374742.13748 -22098144.63346  20983226.5164                   20983221.8634
 11  8 21  1 11 30.0000000  0  9G12G17G10G30G05G04G25G29G02
 -24023385.30148 -18708055.14846  20834081.9064                   20834079.2734
 -20528801.64846 -15984595.16843  24556315.4774                   24556314.0824
 -22415312.12547 -17455825.49645  21680434.6334                   21680432.7384
 -10567037.09047  -8222001.74645  22226731.3134                   22226730.0354
 -23720219.40648 -18471448.48847  20630982.8284                   20630980.4304
 -19438975.98047 -15134416.84044  23480224.5394                   23480224.1254
 -10972938.19547  -8538743.52045  22447656.7584                   22447657.4574
   3526438.12147   2757375.55144  24571554.4224                   24571554.7074
 -28375227.02048 -22098522.44946  20983134.2734                   20983129.8444
 11  8 21  1 12  0.0000000  0  9G12G17G10G30G05G04G25G29G02
 -24050793.08648 -18729411.82846  20828866.5314                   20828863.7854
 -20481775.20747 -15947951.08643  24565264.5634                   24565263.8754
 -22374985.23848 -17424401.93445  21688108.1334                   21688106.4964
 -10646969.88747  -8284287.00445  22211520.1334                   22211518.8324
 -23786051.67248 -18522746.29747  20618454.9924                   20618452.9844
 -19381982.94347 -15090006.65244  23491070.1484                   23491069.0704
 -11062668.43047  -8608663.13345  22430581.8984                   22430582.2584
   3421311.62547   2675458.98044  24551549.7584                   24551549.9734
 -28375535.52048 -22098762.82846  20983075.6644                   20983071.1134
 11  8 21  1 12 30.0000000  0  9G12G17G10G30G05G04G25G29G02
 -24077603.84048 -18750303.29347  20823764.1884                   20823761.8204
 -20434548.18446 -15911150.73443  24574250.6564                   24574250.4344
 -22334153.65648 -17392585.10945  21695878.1564                   21695876.2894
 -10726356.03947  -8346146.31645  22196413.9844                   22196412.4494
 -23851322.12148 -18573606.34447  20606034.5474                   20606032.4344
 -19325000.72747 -15045604.94944  23501912.5944                   23501912.1994
 -11151931.02347  -8678218.37145  22413595.5944                   22413595.9574
   3316125.68446   2593496.03143  24531533.2814                   24531533.2154
 -28375671.00848 -22098868.39146  20983049.9224                   20983045.4064
 11  8 21  1 13  0.0000000  0  8G12G10G30G05G04G25G29G02
 -24103820.06647 -18770731.48846  20818775.7344                   20818772.8444
 -22292822.70348 -17360379.18445  21703743.4774                   21703741.0944
 -10805196.51247  -8407580.42245  22181410.9924                   22181409.5274
 -23916032.17648 -18624029.70747  20593720.7424                   20593718.4064
 -19268032.86346 -15001214.39144  23512753.9304                   23512753.0984
 -11240726.47347  -8747409.59845  22396698.4224                   22396698.8554
   3210878.45746   2511485.28543  24511504.8204                   24511504.8794
 -28375637.15648 -22098841.99646  20983055.6484                   20983051.9224
 11  8 21  1 13 30.0000000  0  8G12G10G30G05G04G25G29G02
 -24129437.34847 -18790692.96946  20813900.8284                   20813898.1174
 -22250990.23448 -17327782.46945  21711704.1954                   21711701.5824
 -10883485.01247  -8468584.41045  22166512.7344                   22166511.5474
 -23980176.60948 -18674012.32447  20581514.1724                   20581512.1954
 -19211076.01646 -14956832.46144  23523592.7974                   23523591.0044
 -11329048.28547  -8816231.77345  22379891.2814                   22379891.5864
   3105574.76246   2429430.50443  24491466.2034                   24491465.6414
 -28375430.59048 -22098681.01646  20983095.4224                   20983091.0354
 11  8 21  1 14  0.0000000  0  8G12G10G30G05G04G25G29G02
 -24154445.96147 -18810180.16446  20809141.8204                   20809139.0514
 -22208649.57047 -17294789.75045  21719761.0004                   21719758.8874
 -10961210.33247  -8529149.56245  22151722.7974                   22151720.9024
 -24043744.64548 -18723545.80547  20569417.7504                   20569415.6804
 -19154121.41846 -14912452.25444  23534430.7344                   23534429.3484
 -11416884.89147  -8884675.84845  22363176.5164                   22363176.8954
   3000224.69146   2347339.57443  24471418.4534                   24471418.5594
 -28375042.77348 -22098378.80546  20983169.2974                   20983165.0204
 11  8 21  1 14 30.0000000  0  8G12G10G30G05G04G25G29G02
 -24178846.29747 -18829193.37546  20804498.5864                   20804495.7384
 -22165803.72348 -17261403.37145  21727914.9064                   21727912.2464
 -11038371.09847  -8589274.78545  22137039.2274                   22137037.4924
 -24106735.44548 -18772629.50047  20557430.8054                   20557428.9184
 -19097170.36746 -14868074.82844  23545268.0944                   23545266.8554
 -11504234.42648  -8952740.39145  22346554.3674                   22346554.8324
   2894828.51646   2265212.68444  24451362.8524                   24451363.0124
 -28374475.37548 -22097936.66846  20983277.2424                   20983272.4454
 11  8 21  1 15  0.0000000  0  8G12G10G30G05G04G25G29G02
 -24202639.53947 -18847733.52346  20799970.8984                   20799967.9494
 -22122456.30548 -17227626.15645  21736163.2344                   21736160.8954
 -11114966.73447  -8648959.66445  22122463.7274                   22122461.5004
 -24169148.93048 -18821263.33247  20545553.8754                   20545551.6524
 -19040224.73446 -14823701.63744  23556104.8054                   23556103.2894
 -11591096.07447  -9020424.75046  22330025.2894                   22330025.5984
   2789385.70746   2183049.42243  24431297.5784                   24431298.1214
 -28373730.59848 -22097356.30946  20983418.8914                   20983414.1024
 11  8 21  1 15 30.0000000  0  8G12G10G30G05G04G25G29G02
 -24225829.77348 -18865803.79746  20795557.7274                   20795554.5664
 -22078613.98847 -17193463.29745  21744505.8914                   21744504.3284
 -11190999.83647  -8708206.18745  22107994.9144                   22107993.1954
 -24230989.09448 -18869450.41447  20533786.0704                   20533783.9924
 -18983290.14547 -14779337.03944  23566938.2274                   23566937.8484
 -11677471.94147  -9087730.58645  22313588.7734                   22313589.1134
   2683892.71146   2100847.02744  24411223.4144                   24411223.3954
 -28372813.50048 -22096641.67646  20983593.4384                   20983589.3204
 11  8 21  1 16  0.0000000  0  8G12G10G30G05G04G25G29G02
 -24248419.94948 -18883406.50046  20791259.0784                   20791256.5664
 -22034282.10247 -17158918.95745  21752941.8134                   21752940.1764
 -11266471.50047  -8767015.24245  22093632.8594                   22093631.3204
 -24292257.20348 -18917191.75447  20522127.2194                   20522124.9804
 -18926369.68047 -14734983.46544  23577770.3134                   23577769.8324
 -11763362.73047  -9154658.42246  22297243.9534                   22297244.3524
   2578347.54746   2018604.00044  24391139.1254                   24391138.9384
 -28371727.97348 -22095795.79346  20983799.8834                   20983795.5944
 11  8 21  1 16 30.0000000  0  8G12G10G30G05G04G25G29G02
 -24270412.69948 -18900543.67247  20787074.1024                   20787071.2734
 -21989466.01247 -17123997.31245  21761470.2974                   21761468.3164
 -11341382.81647  -8825387.64845  22079377.7894                   22079376.2114
 -24352955.07848 -18964488.74647  20510576.5164                   20510574.5594
 -18869467.30547 -14690643.93044  23588598.4384                   23588598.0314
 -11848769.27048  -9221208.93046  22280991.6644                   22280991.5204
   2472747.98446   1936318.59044  24371043.5004                   24371044.1804
 -28370477.90648 -22094821.70346  20984037.9924                   20984033.4454
 11  8 21  1 17  0.0000000  0  8G12G10G30G05G04G25G29G02
 -24291807.16048 -18917214.65246  20783002.4924                   20782999.7704
 -21944167.19547 -17088699.51645  21770090.2504                   21770088.3404
 -11415730.94547  -8883321.23445  22065229.8364                   22065228.3324
 -24413080.74647 -19011339.87547  20499135.2114                   20499132.5234
 -18812582.32847 -14646317.98044  23599423.1254                   23599422.5394
 -11933688.18748  -9287379.46546  22264831.9614                   22264832.1484
   2367095.89546   1853992.26644  24350939.2194                   24350938.6564
 -28369063.11347 -22093719.25846  20984307.0554                   20984302.7234
 11  8 21  1 17 30.0000000  0  8G12G10G30G05G04G25G29G02
 -24312605.57048 -18933421.17246  20779044.9924                   20779042.1484
 -21898390.42647 -17053029.29745  21778801.5004                   21778799.4344
 -11489516.44148  -8940816.38745  22051189.1254                   22051186.8984
 -24472635.30548 -19057745.98447  20487802.3364                   20487799.7424
 -18755718.00447 -14602008.14144  23610244.2424                   23610243.0474
 -12018119.77047  -9353170.27345  22248765.2894                   22248765.3674
   2261389.80946   1771623.95343  24330823.5234                   24330822.7274
 -28367486.84847 -22092490.98446  20984606.7894                   20984602.5474
 11  8 21  1 18  0.0000000  0  8G12G10G30G05G04G25G29G02
 -24332807.46148 -18949162.89147  20775200.8204                   20775197.9264
 -21852137.77747 -17016988.27345  21787603.2034                   21787600.8014
 -11562737.24647  -8997871.54745  22037255.6174                   22037253.1454
 -24531617.25848 -19103705.90247  20476578.0944                   20476575.8204
 -18698874.60947 -14557714.63744  23621061.0864                   23621060.2734
 -12102061.44548  -9418579.33246  22232791.8204                   22232791.8794
   2155630.85546   1689214.46544  24310698.3284                   24310698.3484
 -28365749.48848 -22091137.18746  20984937.5314                   20984933.1294
 11  8 21  1 18 30.0000000  0  8G12G10G30G05G04G25G29G02
 -24352412.12148 -18964439.23047  20771469.8134                   20771467.3244
 -21805411.20347 -16980577.95345  21796494.9384                   21796492.1334
 -11635391.00047  -9054484.84445  22023430.3444                   22023427.9804
 -24590025.22348 -19149218.55947  20465463.4454                   20465461.2814
 -18642052.22347 -14513437.49244  23631873.9224                   23631873.0784
 -12185510.57447  -9483604.59046  22216911.7814                   22216911.8524
   2049820.60947   1606765.03144  24290563.1644                   24290562.8714
 -28363851.28948 -22089658.07446  20985298.7344                   20985294.6604
 11  8 21  1 19  0.0000000  0  8G12G10G30G05G04G25G29G02
 -24371418.33648 -18979249.25447  20767853.0084                   20767850.8134
 -21758211.96947 -16943799.33245  21805476.5234                   21805473.6954
 -11707474.64147  -9110653.90645  22009713.2584                   22009711.2664
 -24647856.63348 -19194281.94547  20454458.6804                   20454456.0084
 -18585250.27047 -14469176.22344  23642682.9534                   23642682.7584
 -12268463.53948  -9548243.22746  22201126.3284                   22201126.4224
   1943961.19147   1524277.31643  24270418.3134                   24270418.6604
 -28361791.65648 -22088053.16846  20985691.0554                   20985686.4024
 11  8 21  1 19 30.0000000  0  8G12G10G30G05G04G25G29G02
 -24389829.81648 -18993595.85247  20764349.5784                   20764346.9884
 -21710546.05147 -16906657.06245  21814547.1804                   21814544.2704
 -11778990.14547  -9166380.26245  21996104.5004                   21996102.2344
 -24705114.27748 -19238898.26247  20443562.9774                   20443560.5004
 -18528472.65247 -14424933.94944  23653487.4924                   23653486.3834
 -12350922.01648  -9612496.55546  22185435.0704                   22185434.8204
   1838049.69546   1441749.04744  24250264.2584                   24250264.3444
 -28359575.22348 -22086326.06646  20986112.4384                   20986108.0164
 11  8 21  1 20  0.0000000  0  8G12G10G30G05G04G25G29G02
 -24407645.44948 -19007478.16447  20760959.3134                   20760956.6994
 -21662414.80547 -16869152.19145  21823706.0554                   21823703.8984
 -11849934.59847  -9221661.63745  21982603.8524                   21982602.0124
 -24761795.82847 -19283065.66447  20432776.6644                   20432773.9844
 -18471719.01647 -14380710.34444  23664287.5084                   23664286.1524
 -12432882.52348  -9676361.86346  22169838.4384                   22169838.2854
   1732088.41846   1359181.98443  24230100.7894                   24230100.6684
 -28357201.49648 -22084476.39846  20986564.0704                   20986559.6724
 11  8 21  1 20 30.0000000  0  8G12G10G30G05G04G25G29G02
 -24424864.52348 -19020895.62947  20757682.5634                   20757680.1914
 -21613820.52347 -16831286.52345  21832953.0394                   21832951.3324
 -11920306.02347  -9276496.52045  21969212.3834                   21969210.4844
 -24817900.20748 -19326783.32447  20422100.1954                   20422097.7624
 -18414989.50047 -14336505.56243  23675081.7584                   23675081.6524
 -12514342.84448  -9739837.41846  22154336.9614                   22154337.4734
   1626078.40646   1276576.92644  24209926.9924                   24209926.8164
 -28354671.08248 -22082504.65246  20987046.0084                   20987041.3164
 11  8 21  1 21  0.0000000  0  8G12G10G30G05G04G25G29G02
 -24441488.70348 -19033849.53146  20754519.1024                   20754516.3014
 -21564766.10947 -16793062.30945  21842288.3834                   21842285.9534
 -11990103.53947  -9330884.17645  21955930.3054                   21955928.7464
 -24873427.09448 -19370051.00047  20411533.7584                   20411531.3364
 -18358285.59047 -14292320.75443  23685872.9144                   23685872.0474
 -12595301.48048  -9802922.04346  22138931.0164                   22138931.1724
   1520019.83246   1193934.02744  24189745.2344                   24189743.9414
 -28351985.35248 -22080411.87146  20987557.0634                   20987552.1174
 11  8 21  1 21 30.0000000  0  8G12G10G30G05G04G25G29G02
 -24457517.62148 -19046339.60546  20751469.0004                   20751466.3164
 -21515254.25847 -16754481.64845  21851709.9304                   21851707.7544
 -12059325.43447  -9384823.30145  21942758.1564                   21942756.0394
 -24928375.34048 -19412867.77747  20401077.7194                   20401075.1134
 -18301607.73847 -14248156.20743  23696659.0554                   23696657.3674
 -12675756.38348  -9865614.14846  22123621.0554                   22123620.9654
   1413913.59846   1111253.96544  24169553.2814                   24169552.8014
 -28349145.18748 -22078198.74646  20988097.2424                   20988092.6524
 11  8 21  1 22  0.0000000  0  8G12G10G30G05G04G25G29G02
 -24472951.89848 -19058366.32046  20748531.7274                   20748529.2734
 -21465288.37147 -16715547.19945  21861218.1564                   21861215.8164
 -12127971.13747  -9438313.41445  21929694.8984                   21929693.1454
 -24982745.60248 -19455234.18447  20390731.2894                   20390728.8524
 -18244957.20747 -14204012.95743  23707438.7344                   23707436.7304
 -12755706.37948  -9927912.82046  22108406.8524                   22108407.1804
   1307760.14146   1028537.10944  24149353.1024                   24149352.5474
 -28346152.11748 -22075866.47346  20988667.2114                   20988662.0944
 11  8 21  1 22 30.0000000  0  8G12G10G30G05G04G25G29G02
 -24487791.33248 -19069929.52046  20745708.0164                   20745705.4964
 -21414870.13747 -16676260.25445  21870812.3134                   21870809.9844
 -12196037.78947  -9491352.33245  21916742.2814                   21916740.5314
 -25036535.52048 -19497148.36347  20380495.4534                   20380492.8674
 -18188333.84446 -14159890.84043  23718213.4384                   23718211.9614
 -12835148.28948  -9989815.57846  22093289.6094                   22093289.8954
   1201561.34846    945784.93844  24129143.8054                   24129143.5394
 -28343005.90648 -22073414.87146  20989266.0314                   20989260.9414
 11  8 21  1 23  0.0000000  0  8G12G10G30G05G04G25G29G02
 -24502037.21948 -19081030.22746  20742997.1174                   20742994.5594
 -21364002.92647 -16636623.44945  21880491.7664                   21880489.5944
 -12263525.09447  -9543939.78945  21903900.0634                   21903898.2154
 -25089745.49648 -19538610.64847  20370369.7504                   20370367.2384
 -18131739.05146 -14115790.99643  23728983.0084                   23728982.0634
 -12914081.32848 -10051321.80146  22078269.2194                   22078269.6604
   1095316.54746    862996.89544  24108926.1334                   24108926.4654
 -28339709.14548 -22070845.95346  20989893.0164                   20989888.3094
 11  8 21  1 23 30.0000000  0  8G12G10G30G05G04G25G29G02
 -24515690.21148 -19091668.92246  20740399.1804                   20740396.6684
 -21312690.10547 -16596639.44145  21890256.2424                   21890253.9344
 -12330432.39547  -9596075.28945  21891167.5004                   21891166.0664
 -25142375.62948 -19579621.10247  20360354.4614                   20360352.0634
 -18075174.26246 -14071714.55943  23739746.9534                   23739746.3244
 -12992504.29748 -10112430.56246  22063345.4304                   22063345.8594
    989026.37546    780173.50044  24088700.3524                   24088699.5744
 -28336262.69148 -22068160.38746  20990548.7504                   20990544.3794
 11  8 21  1 24  0.0000000  0  8G12G10G30G05G04G25G29G02
 -24528753.53548 -19101848.13746  20737913.4064                   20737910.6094
 -21260937.00447 -16556312.34045  21900104.6724                   21900102.3404
 -12396760.74647  -9647759.64545  21878546.2894                   21878544.3594
 -25194427.49248 -19620180.96547  20350449.1414                   20350446.6414
 -18018642.59846 -14027663.91044  23750505.3754                   23750504.2074
 -13070417.81648 -10173142.34846  22048519.1414                   22048519.5554
    882688.99646    697313.30544  24068464.0474                   24068464.2464
 -28332669.91448 -22065360.80546  20991232.6884                   20991227.8594
 11  8 21  1 24 30.0000000  0  8G12G10G30G05G04G25G29G02
 -24541224.51648 -19111565.77747  20735540.4144                   20735537.4224
 -21208743.14847 -16515641.79745  21910037.0234                   21910034.9804
 -12462505.92648  -9698989.58645  21866035.0554                   21866033.1804
 -25245897.58248 -19660287.48447  20340654.7424                   20340652.2074
 -17962141.87146 -13983637.36744  23761257.0864                   23761255.6724
 -13147817.09048 -10233453.41446  22033790.4534                   22033790.6914
    776308.38746    614419.45344  24048219.9614                   24048219.8204
 -28328928.69548 -22062445.55946  20991944.3914                   20991939.9454
 11  8 21  1 25  0.0000000  0  8G12G10G30G05G04G25G29G02
 -24553101.75848 -19120820.77747  20733280.1564                   20733277.0084
 -21156109.87947 -16474628.86345  21920052.7504                   21920051.1334
 -12527664.85947  -9749762.71945  21853636.1414                   21853634.0204
 -25296783.73848 -19699939.00447  20330971.9844                   20330968.9184
 -17905670.91846 -13939634.00443  23772002.5864                   23772001.8594
 -13224698.68448 -10293361.08646  22019160.6254                   22019160.5864
    669886.79746    531493.62544  24027968.6724                   24027968.2234
 -28325038.59848 -22059414.29746  20992684.5634                   20992679.7504
 11  8 21  1 25 30.0000000  0  8G12G10G30G05G04G25G29G02
 -24564388.09048 -19129615.31246  20731132.1804                   20731129.7544
 -21103041.63747 -16433276.97745  21930151.6484                   21930149.4224
 -12592237.92648  -9800079.33245  21841347.5164                   21841345.8714
 -25347086.92248 -19739136.25047  20321399.0474                   20321396.4064
 -17849232.16046 -13895655.73844  23782742.7814                   23782742.1524
 -13301062.38348 -10352865.21146  22004628.7584                   22004628.7704
    563423.63347    448535.39844  24007709.8754                   24007709.0274
 -28321001.79748 -22056268.71546  20993452.9924                   20993448.0784
 11  8 21  1 26  0.0000000  0  8G12G10G30G05G04G25G29G02
 -24575086.47348 -19137951.69946  20729096.6484                   20729093.6804
 -21049544.10947 -16391590.57845  21940331.2194                   21940329.8754
 -12656227.05548  -9849940.92645  21829170.7664                   21829168.9774
 -25396810.15248 -19777881.59047  20311936.8834                   20311934.1374
 -17792829.27746 -13851705.41444  23793475.3984                   23793474.5354
 -13376909.65648 -10411966.93446  21990195.4384                   21990195.7734
    456916.72746    365543.09044  23987442.4384                   23987442.0084
 -28316822.63748 -22053012.21146  20994248.1334                   20994243.2544
 11  8 21  1 26 30.0000000  0  8G12G10G30G05G04G25G29G02
 -24585195.30548 -19145828.70346  20727172.6094                   20727169.8794
 -20995618.28147 -16349570.44945  21950593.0634                   21950591.4264
 -12719629.05147  -9899345.01645  21817105.8984                   21817104.2464
 -25445950.56648 -19816172.78147  20302585.7584                   20302583.4844
 -17736460.93446 -13807782.01644  23804202.4384                   23804201.6484
 -13452236.75448 -10470663.31246  21975861.5234                   21975861.3164
    350368.95746    282518.93844  23967166.1414                   23967166.1134
 -28312499.79748 -22049643.75046  20995070.7274                   20995066.0514
 11  8 21  1 27  0.0000000  0  8G12G10G30G05G04G25G29G02
 -24594714.66848 -19153246.37546  20725361.4224                   20725358.3914
 -20941265.52347 -16307217.64845  21960936.1804                   21960933.9964
 -12782441.27047  -9948289.55945  21805153.2504                   21805151.5434
 -25494506.55948 -19854008.58247  20293346.1644                   20293343.2624
 -17680126.29347 -13763884.91044  23814922.7974                   23814921.4384
 -13527040.58648 -10528951.95346  21961626.4384                   21961626.8054
    243782.16046    199464.36744  23946883.7664                   23946883.4304
 -28308033.04348 -22046163.15646  20995920.4454                   20995915.9104
 11  8 21  1 27 30.0000000  0  8G12G10G30G05G04G25G29G02
 -24603644.70748 -19160204.84046  20723661.8594                   20723659.3364
 -20886489.17247 -16264534.78945  21971359.3914                   21971357.3674
 -12844663.26647  -9996774.18445  21793312.4614                   21793310.7544
 -25542478.07448 -19891388.95347  20284217.5634                   20284214.5824
 -17623826.85547 -13720015.20344  23825636.2734                   23825635.7854
 -13601320.16448 -10586832.09046  21947491.4774                   21947491.5234
    137157.02046    116379.92644  23926594.1884                   23926592.3874
 -28303423.66847 -22042571.42246  20996797.6804                   20996793.0434
 11  8 21  1 28  0.0000000  0  8G12G10G30G05G04G25G29G02
 -24611988.14848 -19166706.20347  20722074.3204                   20722071.5634
 -20831293.32047 -16221525.03945  21981863.1334                   21981860.0554
 -12906295.13348 -10044798.97345  21781584.1884                   21781582.6684
 -25589865.99248 -19928314.56647  20275199.7894                   20275197.2894
 -17567564.24247 -13676174.18044  23836342.4224                   23836341.2584
 -13675074.95748 -10644303.31246  21933455.9224                   21933456.4024
     30493.05946     33265.22744  23906296.6644                   23906294.9774
 -28298673.98847 -22038870.37146  20997701.6644                   20997697.0744
 11  8 21  1 28 30.0000000  0  8G12G10G30G05G04G25G29G02
 -24619743.94548 -19172749.65646  20720598.1174                   20720595.5124
 -20775679.27347 -16178189.43445  21992446.5084                   21992444.2464
 -12967334.33248 -10092361.95745  21769969.0944                   21769967.3874
 -25636668.69548 -19964784.16847  20266293.6564                   20266290.9534
 -17511337.66847 -13632361.25044  23847041.9694                   23847041.5904
 -13748302.01248 -10701363.32046  21919521.5634                   21919521.5164
    -76207.49247    -49878.00044  23885992.0474                   23885990.7544
 -28293783.37548 -22035059.50046  20998632.0944                   20998627.6994
 11  8 21  1 29  0.0000000  0  8G12G10G30G05G04G25G29G02
 -24626915.01648 -19178337.48846  20719233.7424                   20719231.0004
 -20719651.78147 -16134531.64545  22003108.4454                   22003105.5164
 -13027781.75048 -10139463.80945  21758466.2034                   21758464.5084
 -25682887.72748 -20000798.96547  20257498.0554                   20257495.4064
 -17455149.96947 -13588578.62944  23857734.1484                   23857733.6684
 -13821001.65248 -10758012.34846  21905687.4144                   21905687.5044
   -182945.65646   -133050.51644  23865680.2664                   23865679.2664
 -28288754.68748 -22031141.03546  20999589.1094                   20999584.5354
 11  8 21  1 29 30.0000000  0  8G12G10G30G05G04G25G29G02
 -24633503.27048 -19183471.16446  20717980.2814                   20717977.3094
 -20663214.93447 -16090554.87545  22013847.6954                   22013845.2384
 -13087637.72348 -10186104.79745  21747075.8444                   21747074.2384
 -25728523.89848 -20036359.59047  20248813.6334                   20248811.0594
 -17399002.87947 -13544827.69544  23868418.5394                   23868418.4574
 -13893173.56648 -10814250.17246  21891953.3444                   21891953.4224
   -289721.51246   -216252.41444  23845361.2274                   23845360.5434
 -28283590.12148 -22027116.70346  21000571.7664                   21000567.1564
 11  8 21  1 30  0.0000000  0  8G12G10G30G05G04G25G29G02
 -24639507.47348 -19188149.74246  20716837.4224                   20716834.8404
 -20606370.16447 -16046260.23445  22024664.7034                   22024663.1214
 -13146899.47348 -10232282.76645  21735798.7194                   21735797.0744
 -25773575.56648 -20071464.75047  20240240.6024                   20240238.0904
 -17342895.62146 -13501107.76644  23879095.6334                   23879095.1994
 -13964814.57048 -10870074.30946  21878320.7274                   21878320.9064
   -396532.88746   -299481.98444  23825035.6254                   23825035.2074
 -28278288.80148 -22022985.80146  21001580.2814                   21001575.9964
 11  8 21  1 30 30.0000000  0  8G12G10G30G05G04G25G29G02
 -24644928.63748 -19192374.01646  20715805.6954                   20715802.9844
 -20549120.58247 -16001650.16045  22035559.0784                   22035557.1764
 -13205566.16048 -10277997.05945  21724635.2664                   21724632.8094
 -25818042.33248 -20106114.15247  20231779.1094                   20231776.5864
 -17286828.63347 -13457419.24644  23889764.5864                   23889763.8754
 -14035923.24248 -10925483.63746  21864788.6414                   21864789.2974
   -503379.07447   -382738.68444  23804703.2424                   23804702.8134
 -28272851.80548 -22018749.18046  21002615.2344                   21002610.7034
 11  8 21  1 31  0.0000000  0  8G12G10G30G05G04G25G29G02
 -24649766.27348 -19196143.57846  20714884.6884                   20714882.2504
 -20491467.51647 -15956725.67245  22046529.8054                   22046527.7154
 -13263635.25847 -10323245.69545  21713584.7814                   21713582.4614
 -25861922.93748 -20140306.80147  20223428.8984                   20223426.2074
 -17230801.00046 -13413761.35943  23900426.1334                   23900425.0744
 -14106496.42248 -10980475.70346  21851359.5944                   21851359.5744
   -610257.41847   -466020.43044  23784364.9924                   23784363.7774
 -28267278.53948 -22014406.37546  21003676.0234                   21003671.3674
 11  8 21  1 31 30.0000000  0  8G12G10G30G05G04G25G29G02
 -24654023.32848 -19199460.74247  20714074.9844                   20714072.5904
 -20433415.58647 -15911490.39845  22057576.7114                   22057574.5234
 -13321107.68748 -10368029.39845  21702648.0554                   21702646.2114
 -25905218.66448 -20174043.69947  20215189.7974                   20215187.1844
 -17174815.03946 -13370135.98043  23911080.3204                   23911078.8444
 -14176534.51248 -11035050.81646  21838031.6334                   21838031.8874
   -717169.00847   -549328.09444  23764020.3134                   23764019.5944
 -28261571.54348 -22009959.35546  21004761.6884                   21004757.0944
 11  8 21  1 32  0.0000000  0  8G12G10G30G05G04G25G29G02
 -24657700.68448 -19202326.19946  20713375.2344                   20713372.4414
 -20374967.74647 -15865946.62945  22068698.7734                   22068696.4454
 -13377982.72748 -10412347.58245  21691825.1484                   21691822.6724
 -25947929.32048 -20207324.69947  20207062.2344                   20207059.7624
 -17118871.73846 -13326543.82843  23921725.0864                   23921724.6884
 -14246036.24248 -11089207.98846  21824805.8524                   21824806.2274
   -824112.91047   -632660.87944  23743669.8754                   23743669.2504
 -28255731.71548 -22005408.84446  21005873.1484                   21005868.4574
 11  8 21  1 32 30.0000000  0  8G12G10G30G05G04G25G29G02
 -24660797.21548 -19204739.06246  20712785.6564                   20712783.2624
 -20316125.43447 -15820095.48445  22079896.2424                   22079893.7424
 -13434257.88747 -10456198.33246  21681116.2664                   21681113.8914
 -25990053.34048 -20240148.57047  20199046.1334                   20199043.6804
 -17062969.94946 -13282984.02043  23932363.5314                   23932362.2194
 -14314998.43048 -11142944.73846  21811682.7584                   21811682.9104
   -931086.66447   -716016.92644  23723312.8984                   23723312.4104
 -28249758.76248 -22000754.60546  21007009.9534                   21007004.8554
 11  8 21  1 33  0.0000000  0  8G12G10G30G05G04G25G29G02
 -24663315.77048 -19206701.55546  20712306.7504                   20712303.9344
 -20256892.99247 -15773940.33245  22091167.9454                   22091165.7464
 -13489933.73047 -10499582.08645  21670521.2734                   21670519.6524
 -26031592.27748 -20272516.53547  20191141.7894                   20191139.0474
 -17007111.51646 -13239457.97743  23942992.6564                   23942992.3984
 -14383421.20748 -11196261.16046  21798662.5864                   21798662.1914
  -1038090.51647   -799396.41444  23702951.1484                   23702949.5594
 -28243654.70348 -21995998.18046  21008171.5634                   21008166.7974
 11  8 21  1 33 30.0000000  0  8G12G10G30G05G04G25G29G02
 -24665255.99248 -19208213.39846  20711937.1724                   20711934.5864
 -20197271.69547 -15727482.17645  22102513.5234                   22102511.2464
 -13545008.14547 -10542497.18445  21660041.1094                   21660039.3794
 -26072544.48048 -20304427.30947  20183348.9694                   20183346.2034
 -16951295.78556 -13195965.22753  23953613.5474                   23953614.6054
 -14451301.73848 -11249155.05146  21785745.0474                   21785745.2034
  -1145122.29747   -882797.63344  23682582.9144                   23682582.7504
 -28237419.10948 -21991139.25846  21009358.0944                   21009353.3634
 11  8 21  1 34  0.0000000  0  8G12G10G30G05G04G25G29G02
 -24666621.34448 -19209277.29746  20711677.5164                   20711674.9144
 -20137267.35547 -15680725.56245  22113931.8914                   22113929.9964
 -13599483.00047 -10584945.08645  21649674.8284                   21649673.1484
 -26112912.38748 -20335882.79347  20175666.9844                   20175664.2664
 -16895526.03946 -13152508.29743  23964227.5084                   23964227.2934
 -14518641.35548 -11301627.44146  21772931.0394                   21772931.1294
  -1252183.76247   -966221.98444  23662210.4694                   23662209.3404
 -28231055.49248 -21986180.56246  21010568.6564                   21010564.1054
 11  8 21  1 34 30.0000000  0  8G12G10G30G05G04G25G29G02
 -24667409.62148 -19209891.52346  20711527.7114                   20711524.7384
 -20076879.72347 -15633670.28945  22125423.3594                   22125421.2464
 -13653354.32847 -10626922.71945  21639423.3754                   21639421.4694
 -26152692.97348 -20366880.61747  20168096.9064                   20168094.5784
 -16839799.58646 -13109085.11743  23974831.4384                   23974832.3014
 -14585435.50448 -11353674.79746  21760220.3054                   21760220.4574
  -1359270.79347  -1049666.23844  23641831.9224                   23641830.9804
 -28224561.45347 -21981120.26246  21011804.8134                   21011799.9064
 11  8 21  1 35  0.0000000  0  8G12G10G30G05G04G25G29G02
 -24667623.41848 -19210058.10546  20711486.8054                   20711484.2544
 -20016113.20347 -15586319.75445  22136986.6954                   22136984.8554
 -13706623.02347 -10668430.77345  21629287.2344                   21629285.0004
 -26191887.94148 -20397422.11347  20160638.1884                   20160635.7194
 -16784118.46146 -13065697.18742  23985427.5084                   23985427.4574
 -14651684.39848 -11405297.27046  21747613.4304                   21747613.7814
  -1466383.79347  -1133130.75444  23621448.4534                   23621448.3364
 -28217939.48048 -21975960.26646  21013065.0234                   21013060.0204
 11  8 21  1 35 30.0000000  0  8G12G10G30G05G04G25G29G02
 -24667263.74248 -19209777.82446  20711555.2974                   20711552.4384
 -19954970.64547 -15538676.21145  22148621.9064                   22148620.3754
 -13759288.23047 -10709468.57446  21619265.1254                   21619263.0474
 -26230497.21148 -20427507.21947  20153291.2194                   20153288.5314
 -16728483.20746 -13022345.03543  23996014.9304                   23996015.1094
 -14717386.59048 -11456493.74646  21735110.7664                   21735110.7194
  -1573521.82047  -1216614.75844  23601061.0314                   23601060.3324
 -28211190.13347 -21970701.01646  21014348.9694                   21014344.8524
 11  8 21  1 36  0.0000000  0  8G12G10G30G05G04G25G29G02
 -24666331.14548 -19209051.11746  20711732.7894                   20711730.1254
 -19893454.64547 -15490741.67645  22160327.9534                   22160326.0704
 -13811348.62947 -10750035.09045  21609358.1334                   21609356.1804
 -26268519.91448 -20457135.26247  20146055.8284                   20146053.2894
 -16672893.75046 -12979028.58642  24006591.9534                   24006591.9304
 -14782540.18048 -11507262.74646  21722712.5394                   21722712.4574
  -1680683.23047  -1300116.98044  23580668.6884                   23580668.1844
 -28204313.56247 -21965342.62946  21015657.6954                   21015653.0204
 11  8 21  1 36 30.0000000  0  8G12G10G30G05G04G25G29G02
 -23089406.86748 -17980278.94546  21011811.3134                   21011808.9184
 -18256150.08647 -14214919.94945  22471896.9614                   22471894.4454
 -12287381.85547  -9562528.49245  21899359.2584                   21899357.6804
 -24730534.88748 -19258705.34047  20438724.9534                   20438721.6884
 -15041932.38346 -11708149.53943  24316954.5234                   24316952.7854
 -13271721.78948 -10330001.63346  22010211.6174                   22010211.6844
   -212443.67647   -156034.06244  23860065.6644                   23860064.8754
 -26621891.08248 -20732286.12546  21316782.5234                   21316777.8754
 11  8 21  1 37  0.0000000  0  8G12G10G30G05G04G25G29G02
 -23087334.97348 -17978664.47746  21012205.4224                   21012202.6844
 -18193898.68047 -14166412.38745  22483742.8834                   22483740.6024
 -12338233.68747  -9602153.28945  21889682.5554                   21889680.4694
 -24767388.09848 -19287422.10247  20431711.4774                   20431709.0824
 -14986438.91846 -11664907.93443  24327514.4694                   24327512.3484
 -13335777.45748 -10379915.10946  21998022.1254                   21998021.9964
   -319651.89147   -239572.79344  23839664.1094                   23839663.5594
 -26614766.07848 -20726734.16046  21318138.4454                   21318133.7274
 11  8 21  1 37 30.0000000  0  8G12G10G30G05G04G25G29G02
 -23084693.61348 -17976606.27746  21012708.0944                   21012705.5984
 -18131282.59847 -14117620.66045  22495658.3134                   22495655.8204
 -12388479.06247  -9641305.52046  21880120.9774                   21880119.2934
 -24803655.43048 -19315682.33247  20424810.4534                   20424807.3874
 -14930992.84046 -11621703.17643  24338065.6724                   24338063.5394
 -13399280.92648 -10429398.30546  21985937.8204                   21985937.9264
   -426880.60247   -323127.48844  23819259.3984                   23819258.4734
 -26607516.39148 -20721085.03146  21319518.0784                   21319513.2504
 11  8 21  1 38  0.0000000  0  8G12G10G30G05G04G25G29G02
 -23081483.98448 -17974105.27046  21013319.1644                   21013316.5944
 -18068304.85547 -14068547.10945  22507642.2894                   22507639.5274
 -12438117.31247  -9679984.65246  21870675.5394                   21870673.4964
 -24839336.87948 -19343486.03947  20418020.0164                   20418017.1764
 -14875594.69146 -11578535.75043  24348607.4844                   24348605.6254
 -13462230.95348 -10478450.25046  21973958.8134                   21973958.9414
   -534128.59047   -406697.22344  23798850.7504                   23798849.2384
 -26600142.95748 -20715339.48846  21320920.8204                   21320916.3634
 11  8 21  1 38 30.0000000  0  8G12G10G30G05G04G25G29G02
 -23077706.01248 -17971161.39146  21014037.6414                   21014035.2384
 -18004966.83647 -14019192.82045  22519695.2274                   22519692.5594
 -12487146.39548  -9718189.11346  21861345.2734                   21861343.5124
 -24874431.30148 -19370832.31647  20411341.6094                   20411339.2734
 -14820243.46946 -11535404.91843  24359140.6564                   24359139.1094
 -13524624.91048 -10527068.89846  21962085.8444                   21962085.6054
   -641393.59847   -490280.25444  23778438.5784                   23778437.2304
 -26592645.18048 -20709497.04746  21322347.7424                   21322343.3874
 11  8 21  1 39  0.0000000  0  8G12G10G30G05G04G25G29G02
 -23073363.18748 -17967777.38346  21014864.5864                   21014861.8014
 -17941273.86747 -13969561.94545  22531815.8204                   22531813.3164
 -12535568.12947  -9755920.31246  21852130.7664                   21852129.0824
 -24908941.22748 -19397723.14547  20404774.8284                   20404772.1054
 -14764942.04346 -11492312.90243  24369663.9924                   24369663.0744
 -13586463.92248 -10575255.12946  21950317.8984                   21950317.9884
   -748676.80147   -573877.44144  23758022.8834                   23758021.5234
 -26585026.06248 -20703560.06646  21323797.8754                   21323793.1174
 11  8 21  1 39 30.0000000  0  9G12G26G10G30G05G04G25G29G02
 -23068457.04747 -17963954.41446  21015797.9694                   21015795.1954
   6133549.58656   4789864.26652  24949093.8444                   24949093.6914
 -17877229.16446 -13919656.99644  22544002.8524                   22544001.5784
 -12583382.42648  -9793178.17245  21843031.9224                   21843030.2584
 -24942867.45748 -19424159.14847  20398318.8054                   20398316.1914
 -14709690.97346 -11449260.08243  24380178.1884                   24380177.1054
 -13647747.22348 -10623008.33246  21938656.1254                   21938655.9694
   -855977.31647   -657488.13344  23737604.6094                   23737603.5354
 -26577286.86748 -20697529.52746  21325270.3054                   21325265.7894
 11  8 21  1 40  0.0000000  0  9G12G26G10G30G05G04G25G29G02
 -23062999.76648 -17959701.98846  21016836.5634                   21016833.7544
   6017471.64545   4699414.07442  24927004.8134                   24927004.5394
 -17812846.78947 -13869488.93745  22556254.5084                   22556252.6174
 -12630599.55547  -9829970.71145  21834046.8984                   21834045.0904
 -24976220.44948 -19450148.47347  20391972.2814                   20391968.9614
 -14654501.75046 -11406255.50043  24390679.7664                   24390679.3754
 -13708484.44148 -10670336.02346  21927098.3284                   21927098.1484
   -963304.80147   -741119.85544  23717180.1804                   23717180.1724
 -26569438.80948 -20691414.14846  21326763.8594                   21326759.6214
 11  8 21  1 40 30.0000000  0  9G12G26G10G30G05G04G25G29G02
 -23056990.17647 -17955019.20346  21017980.5004                   21017977.5354
   5901256.11745   4608856.72342  24904889.0004                   24904890.1094
 -17748127.01246 -13819057.96145  22568570.6884                   22568568.3204
 -12677216.57448  -9866295.60545  21825176.0864                   21825173.9414
 -25008998.23448 -19475689.58647  20385734.9224                   20385731.9534
 -14599372.18747 -11363297.36744  24401170.2814                   24401170.3754
 -13768671.96948 -10717235.36346  21915644.9384                   21915644.7664
  -1070655.87547   -824769.97344  23696752.3674                   23696750.8134
 -26561480.60947 -20685212.94146  21328278.0634                   21328273.7734
 11  8 21  1 41  0.0000000  0  9G12G26G10G30G05G04G25G29G02
 -23050429.30947 -17949906.83246  21019228.7424                   21019226.0004
   5784906.12145   4518194.60243  24882748.6884                   24882748.8204
 -17683072.57047 -13768366.21544  22580949.5634                   22580948.0164
 -12723232.82448  -9902152.39146  21816419.2814                   21816417.5084
 -25041200.88348 -19500782.54347  20379606.7664                   20379603.9024
 -14544302.52047 -11320385.98444  24411650.4844                   24411648.7464
 -13828308.48848 -10763705.34846  21904296.4614                   21904296.4494
  -1178029.20347   -908437.41444  23676319.4144                   23676318.7424
 -26553412.39848 -20678926.02046  21329813.6174                   21329808.7194
 11  8 21  1 41 30.0000000  0  9G12G26G10G30G05G04G25G29G02
 -23043314.69548 -17944362.98446  21020582.3754                   21020579.6884
   5668428.06646   4427432.67242  24860581.9064                   24860584.2234
 -17617682.66447 -13717413.06245  22593392.9614                   22593390.9574
 -12768644.12148  -9937537.76645  21807777.9924                   21807775.5514
 -25072824.78948 -19525424.52347  20373589.0314                   20373586.2504
 -14489289.39846 -11277518.60944  24422119.0634                   24422118.2304
 -13887389.15248 -10809742.19546  21893053.7034                   21893053.9964
  -1285419.59447   -992118.17244  23655884.1804                   23655882.7624
 -26545231.06648 -20672550.95346  21331370.4924                   21331365.5864
 11  8 21  1 42  0.0000000  0  9G12G26G10G30G05G04G25G29G02
 -23035647.02048 -17938388.17246  21022041.6884                   21022038.7814
   5551825.94946   4336573.99243  24838394.8284                   24838394.4694
 -17551959.47747 -13666200.20344  22605900.1024                   22605897.9844
 -12813449.17248  -9972450.75445  21799251.4924                   21799249.8094
 -25103869.55148 -19549615.22747  20367681.2814                   20367678.4734
 -14434332.28147 -11234694.86343  24432577.2424                   24432576.0234
 -13945911.94548 -10855344.32846  21881917.1804                   21881917.3634
  -1392825.24647  -1075810.82844  23635445.2974                   23635444.3984
 -26536936.66448 -20666087.77346  21332948.8134                   21332944.1294
 11  8 21  1 42 30.0000000  0  9G12G26G10G30G05G04G25G29G02
 -23027424.81248 -17931981.25446  21023606.3754                   21023603.6054
   5435104.96146   4245622.73043  24816182.8834                   24816183.4344
 -17485903.39847 -13614727.93745  22618470.1954                   22618467.7664
 -12857645.05948 -10006889.06646  21790841.5084                   21790839.6254
 -25134332.99648 -19573352.96147  20361884.0394                   20361881.0944
 -14379429.02347 -11191913.07844  24443024.7274                   24443023.7114
 -14003873.31648 -10900508.98046  21870887.5864                   21870887.8834
  -1500242.26647  -1159512.34444  23615004.5784                   23615003.2344
 -26528527.26648 -20659534.98046  21334549.0234                   21334544.4694
 11  8 21  1 43  0.0000000  0  9G12G26G10G30G05G04G25G29G02
 -23018648.11748 -17925142.26246  21025276.6644                   21025273.8054
   5318269.16846   4154582.00043  24793950.1334                   24793950.2234
 -17419515.93047 -13562997.43744  22631103.1024                   22631100.9534
 -12901230.07048 -10040851.37146  21782547.5634                   21782545.8324
 -25164214.12548 -19596636.94147  20356198.0004                   20356195.2384
 -14324578.44947 -11149172.39843  24453461.7974                   24453462.0824
 -14061270.82048 -10945234.27746  21859965.1644                   21859965.0864
  -1607668.00047  -1243220.63744  23594561.8444                   23594560.0004
 -26520002.09848 -20652891.98846  21336171.4144                   21336166.7814
 11  8 21  1 43 30.0000000  0  9G12G26G10G30G05G04G25G29G02
 -23009320.02748 -17917873.62146  21027051.4454                   21027048.6764
   5201319.99246   4063452.92243  24771695.1484                   24771695.5474
 -17352801.35947 -13511012.06245  22643798.2114                   22643796.0234
 -12944205.37948 -10074338.58646  21774369.5394                   21774367.9224
 -25193514.57848 -19619468.44547  20350622.2274                   20350619.3914
 -14269782.53147 -11106474.27743  24463889.4534                   24463888.6954
 -14118104.96948 -10989520.57846  21849150.1804                   21849150.0944
  -1715102.83647  -1326936.04344  23574117.9384                   23574115.9804
 -26511363.40248 -20646160.52746  21337814.9614                   21337810.5124
 11  8 21  1 44  0.0000000  0  9G12G26G10G30G05G04G25G29G02
 -22999439.28548 -17910174.33246  21028931.6174                   21028928.8594
   5084262.84446   3972239.69944  24749420.2114                   24749420.6054
 -17285760.04347 -13458772.10544  22656555.9304                   22656554.2274
 -12986568.12148 -10107348.50446  21766308.2504                   21766306.0044
 -25222232.14548 -19641845.74247  20345157.6174                   20345154.8554
 -14215039.02747 -11063816.95743  24474306.4844                   24474305.3594
 -14174372.21548 -11033365.14146  21838442.4534                   21838442.3204
  -1822543.13347  -1410655.68044  23553671.9304                   23553671.3954
 -26502609.18448 -20639339.03946  21339480.7664                   21339476.4264
 11  8 21  1 44 30.0000000  0  9G12G26G10G30G05G04G25G29G02
 -22989009.11347 -17902046.91446  21030916.6644                   21030913.4224
   4967098.91046   3880943.28143  24727123.7814                   24727124.9344
 -17218396.74647 -13406281.26244  22669375.2894                   22669372.4844
 -13028319.63348 -10139882.12946  21758363.2274                   21758361.1024
 -25250369.30148 -19663770.77747  20339803.1094                   20339800.4534
 -14160349.90646 -11021202.08244  24484713.7194                   24484712.8164
 -14230073.23048 -11076768.49646  21827843.1804                   21827842.7974
  -1929988.92647  -1494379.60244  23533226.3444                   23533225.1564
 -26493741.87547 -20632429.44146  21341168.7344                   21341164.3794
 11  8 21  1 45  0.0000000  0  9G12G26G10G30G05G04G25G29G02
 -22978029.30548 -17893491.21146  21033005.8444                   21033002.9844
   4849832.76246   3789567.20743  24704808.9144                   24704809.2114
 -17150712.79747 -13353540.54745  22682254.6804                   22682253.0124
 -13069458.19148 -10171938.13346  21750534.4844                   21750532.5634
 -25277924.74648 -19685242.52747  20334559.4064                   20334557.0634
 -14105713.81646 -10978628.49243  24495110.5474                   24495109.9574
 -14285205.52348 -11119728.68746  21817351.2424                   21817351.6454
  -2037437.70347  -1578105.84045  23512779.3984                   23512778.3594
 -26484760.37548 -20625430.85246  21342877.7114                   21342873.1054
 11  8 21  1 45 30.0000000  0  9G12G26G10G30G05G04G25G29G02
 -22966501.90648 -17884508.82446  21035199.6174                   21035196.7234
   4732466.53946   3698113.15644  24682475.0554                   24682475.9144
 -17082711.98847 -13300552.93744  22695194.8364                   22695192.6484
 -13109984.23848 -10203516.87145  21742822.7344                   21742821.0704
 -25304899.50448 -19706261.78947  20329426.2504                   20329423.5124
 -14051132.03546 -10936097.25043  24505496.8444                   24505495.8284
 -14339768.89548 -11162245.57046  21806968.6334                   21806968.5594
  -2144889.09847  -1661834.11744  23492332.1954                   23492330.6954
 -26475665.96148 -20618344.27346  21344607.9454                   21344603.7734
 11  8 21  1 46  0.0000000  0  9G12G26G10G30G05G04G25G29G02
 -22954429.53948 -17875101.77346  21037496.7114                   21037494.1174
   4615002.08246   3606582.54344  24660122.4304                   24660122.2034
 -17014397.76247 -13247321.09445  22708194.4064                   22708192.6024
 -13149898.35248 -10234618.76646  21735227.5474                   21735225.5234
 -25331295.05148 -19726829.71147  20324403.5084                   20324400.6254
 -13996605.50046 -10893609.02343  24515873.1884                   24515872.0314
 -14393763.16048 -11204319.00446  21796694.1484                   21796693.6294
  -2252342.26247  -1745563.76245  23471884.3444                   23471882.9734
 -26466460.18748 -20611170.93046  21346359.9224                   21346355.5394
 11  8 21  1 46 30.0000000  0  9G12G26G10G30G05G04G25G29G02
 -22941814.02348 -17865271.50046  21039897.6174                   21039894.5664
   4497442.46946   3514977.83744  24637750.8594                   24637750.7734
 -16945773.21147 -13193847.43044  22721253.5394                   22721251.9184
 -13189200.60248 -10265243.89846  21727748.6724                   21727746.5824
 -25357112.06648 -19746946.83647  20319490.5084                   20319487.4654
 -13942134.77746 -10851164.31243  24526238.3834                   24526238.1374
 -14447187.74248 -11245948.51646  21786527.2894                   21786527.3634
  -2359796.34447  -1829294.12945  23451436.3364                   23451435.2814
 -26457143.81248 -20603911.41046  21348132.9304                   21348128.1484
 11  8 21  1 47  0.0000000  0  9G12G26G10G30G05G04G25G29G02
 -22928655.32848 -17855017.96946  21042401.5864                   21042398.7934
   4379791.30546   3423301.68443  24615362.4844                   24615362.5744
 -16876840.44946 -13140133.60244  22734371.2814                   22734369.0164
 -13227889.83648 -10295391.35246  21720386.2734                   21720384.4964
 -25382350.11748 -19766612.81647  20314688.0704                   20314685.0594
 -13887718.99646 -10808762.38343  24536592.8914                   24536592.8364
 -14500040.71548 -11287132.64146  21776469.9694                   21776469.7424
  -2467248.90247  -1913023.30544  23430988.7274                   23430987.2774
 -26447716.27747 -20596565.27046  21349926.6804                   21349922.0744
 11  8 21  1 47 30.0000000  0  9G12G26G10G30G05G04G25G29G02
 -22914957.61748 -17844344.41846  21045008.1484                   21045005.2584
   4262049.93046   3331555.31643  24592957.0164                   24592957.0234
 -16807604.25446 -13086183.35544  22747546.4064                   22747544.2034
 -13265967.84048 -10325062.53146  21713140.2114                   21713138.1884
 -25407011.67248 -19785829.57447  20309994.7894                   20309991.8014
 -13833360.48046 -10766405.16043  24546937.3364                   24546937.1524
 -14552323.18048 -11327872.20346  21766521.0394                   21766520.9304
  -2574700.57047  -1996751.79744  23410541.3594                   23410539.9414
 -26438180.43747 -20589134.73046  21351741.3594                   21351736.6254
 11  8 21  1 48  0.0000000  0  9G12G26G10G30G05G04G25G29G02
 -22900723.15648 -17833252.62946  21047717.0864                   21047714.0634
   4144220.40646   3239740.21943  24570535.0784                   24570535.4804
 -16738068.24646 -13031999.49244  22760778.3364                   22760776.2974
 -13303435.34848 -10354257.98446  21706010.2274                   21706008.1764
 -25431098.06648 -19804598.16447  20305411.3054                   20305408.4844
 -13779060.20346 -10724093.28143  24557271.0634                   24557270.0664
 -14604035.07048 -11368167.17246  21756680.5164                   21756680.3714
  -2682150.80146  -2080479.14145  23390094.2894                   23390092.7734
 -26428537.62947 -20581620.85546  21353576.5394                   21353571.4804
 11  8 21  1 48 30.0000000  0  9G12G26G10G30G05G04G25G29G02
 -22885949.66848 -17821740.81246  21050528.1954                   21050525.2734
   4026309.23846   3147861.55543  24548096.4614                   24548096.4884
 -16668231.91446 -12977581.59044  22774067.8914                   22774065.3554
 -13340288.65248 -10382974.84846  21698997.5164                   21698995.7344
 -25454606.30148 -19822916.23047  20300938.0314                   20300935.2154
 -13724814.82446 -10681824.17643  24567593.1174                   24567593.1764
 -14655172.00847 -11408014.12146  21746949.4774                   21746949.3714
  -2789594.78547  -2164201.63345  23369648.6094                   23369646.3204
 -26418784.62147 -20574021.11346  21355432.3834                   21355427.5004
 11  8 21  1 49  0.0000000  0  9G12G26G10G30G05G04G25G29G02
 -22870638.69548 -17809810.18046  21053441.9614                   21053439.1644
   3908319.75846   3055921.78143  24525643.4064                   24525643.7664
 -16598097.90246 -12922931.73844  22787413.9774                   22787411.8524
 -13376527.48048 -10411212.89146  21692101.4924                   21692099.5784
 -25477536.78148 -19840784.11347  20296574.3674                   20296571.6684
 -13670624.33645 -10639597.84043  24577905.0394                   24577905.5944
 -14705732.98048 -11447412.27746  21737327.8204                   21737327.9534
  -2897030.71547  -2247917.86345  23349203.8594                   23349202.8984
 -26408921.68748 -20566335.71946  21357309.2034                   21357304.4774
 11  8 21  1 49 30.0000000  0  9G12G26G10G30G05G04G25G29G02
 -22854793.24248 -17797463.07046  21056457.3364                   21056454.1414
   3790253.61346   2963922.31643  24503175.9614                   24503177.0514
 -16527669.99646 -12868052.85244  22800815.3834                   22800813.3714
 -13412153.03948 -10438973.05946  21685322.1334                   21685320.2304
 -25499891.35947 -19858203.23847  20292320.6884                   20292317.5784
 -13616490.15245 -10597415.38343  24588206.2814                   24588206.4844
 -14755718.50448 -11486362.02746  21727816.1414                   21727815.9344
  -3004458.38747  -2331627.64145  23328760.7034                   23328759.6214
 -26398950.76247 -20558566.17646  21359206.4454                   21359202.0084
 11  8 21  1 50  0.0000000  0  9G12G26G10G30G05G04G25G29G02
 -22838413.70748 -17784699.79746  21059573.9694                   21059571.1954
   3672115.13346   2871866.48443  24480695.7814                   24480695.9494
 -16456950.24647 -12812946.55944  22814273.1884                   22814270.9104
 -13447164.06248 -10466254.36746  21678659.7274                   21678657.9774
 -25521669.53148 -19875173.21147  20288175.9614                   20288173.4144
 -13562411.36346 -10555276.07443  24598497.7194                   24598496.0944
 -14805126.57048 -11524861.80146  21718413.8204                   21718413.7584
  -3111875.60947  -2415329.27745  23308320.0314                   23308319.2934
 -26388871.16447 -20550711.95346  21361124.4144                   21361119.7774
 11  8 21  1 50 30.0000000  0  9G12G26G10G30G05G04G25G29G02
 -22821502.18748 -17771521.98846  21062792.0704                   21062789.0354
   3553906.83646   2779756.24243  24458202.1024                   24458200.5434
 -16385942.07847 -12757615.55544  22827785.4064                   22827783.9184
 -13481561.06648 -10493057.21146  21672113.9614                   21672112.3134
 -25542872.23848 -19891694.78947  20284141.4384                   20284138.3404
 -13508388.44546 -10513180.29743  24608778.2814                   24608777.0084
 -14853956.90647 -11562911.40646  21709121.8594                   21709121.7974
  -3219281.46946  -2499022.07045  23287881.6414                   23287879.9304
 -26378683.78547 -20542773.75446  21363063.4454                   21363058.6524
 11  8 21  1 51  0.0000000  0  9G12G26G10G30G05G04G25G29G02
 -22804061.69148 -17757931.98046  21066111.0234                   21066107.8914
   3435630.42646   2687592.91442  24435694.0084                   24435693.4734
 -16314649.74646 -12702063.12144  22841352.6174                   22841350.3164
 -13515345.50048 -10519382.73046  21665685.2974                   21665683.4694
 -25563502.06648 -19907769.96947  20280215.2894                   20280212.8364
 -13454423.23046 -10471129.49643  24619047.4774                   24619046.0164
 -14902210.23848 -11600511.40246  21699939.3594                   21699939.2344
  -3326675.56247  -2582705.69945  23267444.7114                   23267443.2504
 -26368390.62547 -20534753.10546  21365022.1954                   21365017.3834
 11  8 21  1 51 30.0000000  0  9G12G26G10G30G05G04G25G29G02
 -22786094.82048 -17743931.81646  21069529.9064                   21069527.2894
   3317288.23846   2595378.29342  24413174.5554                   24413173.2384
 -16243077.00446 -12646292.18044  22854972.5634                   22854970.8674
 -13548518.30548 -10545231.63746  21659372.4844                   21659370.6374
 -25583559.90648 -19923399.44947  20276398.8134                   20276395.9924
 -13400516.55946 -10429124.31243  24629304.9924                   24629304.1884
 -14949886.74648 -11637661.91046  21690867.0634                   21690866.9494
  -3434057.55547  -2666379.91445  23247010.7584                   23247009.4654
 -26357992.80547 -20526650.90246  21367000.6954                   21366995.9184
 11  8 21  1 52  0.0000000  0  9G12G26G10G30G05G04G25G29G02
 -22767603.54348 -17729523.03546  21073048.7664                   21073045.9534
   3198882.91046   2503114.48443  24390642.4844                   24390641.6214
 -16171226.49246 -12590304.76244  22868645.3284                   22868642.2854
 -13581079.79348 -10570604.20746  21653176.5314                   21653174.2584
 -25603047.12948 -19938584.27747  20272690.5474                   20272687.5944
 -13346668.83246 -10387165.07843  24639551.9384                   24639551.3404
 -14996985.96948 -11674362.58246  21681904.2114                   21681904.2734
  -3541426.03146  -2750043.59444  23226578.8834                   23226577.0394
 -26347491.02747 -20518467.70746  21368999.0394                   21368994.2114
 11  8 21  1 52 30.0000000  0  9G12G26G10G30G05G04G25G29G02
 -22748588.01248 -17714705.73446  21076667.0394                   21076664.3524
   3080419.13746   2410805.17243  24368099.2664                   24368098.6604
 -16099099.88746 -12534102.21544  22882370.1414                   22882368.6524
 -13613028.57848 -10595499.34046  21647096.8674                   21647094.4804
 -25621962.81648 -19953323.76247  20269091.2114                   20269088.2974
 -13292878.80946 -10345250.82043  24649788.4534                   24649786.9734
 -15043505.80548 -11710611.80146  21673051.9614                   21673051.4454
  -3648778.09046  -2833694.51244  23206150.2584                   23206148.4574
 -26336884.27747 -20510202.71546  21371017.6724                   21371012.4694
 11  8 21  1 53  0.0000000  0  9G12G26G10G30G05G04G25G29G02
 -22729052.03948 -17699482.89546  21080384.9144                   21080381.8634
   2961898.50046   2318451.53943  24345545.4614                   24345545.8014
 -16026701.72346 -12477688.05944  22896147.0704                   22896145.3364
 -13644366.43748 -10619918.43046  21641133.2344                   21641131.4614
 -25640309.41448 -19967619.79747  20265599.7114                   20265596.6334
 -13239148.07447 -10303382.66443  24660012.8054                   24660011.2074
 -15089447.27348 -11746410.33246  21664309.6254                   21664309.5354
  -3756113.93446  -2917332.79344  23185724.7584                   23185723.6374
 -26326174.87547 -20501857.72346  21373055.4844                   21373050.5004
 11  8 21  1 53 30.0000000  0  8G12G26G10G30G05G25G29G02
 -22708995.54748 -17683854.46546  21084201.7504                   21084198.5204
   2843325.34046   2226056.96943  24322981.5704                   24322980.8594
 -15954033.44546 -12421063.46944  22909975.7114                   22909973.7304
 -13675092.16048 -10643860.52746  21635286.4844                   21635284.2074
 -25658086.34848 -19981471.94147  20262216.6334                   20262213.9144
 -15134808.41048 -11781756.65646  21655677.3444                   21655677.1684
  -3863430.91846  -3000956.34845  23165303.1254                   23165301.1454
 -26315361.59847 -20493431.77746  21375113.1484                   21375108.4574
 11  8 21  1 54  0.0000000  0  8G12G26G10G30G05G25G29G02
 -22688423.12548 -17667824.00846  21088116.3524                   21088113.1764
   2724700.58246   2133622.21543  24300408.4454                   24300407.2274
 -15881100.21146 -12364232.39544  22923854.5704                   22923852.9064
 -13705208.16048 -10667327.51646  21629555.4224                   21629553.6094
 -25675296.90248 -19994882.74247  20258942.0004                   20258938.3954
 -15179590.81648 -11816652.01646  21647155.6254                   21647155.4414
  -3970729.51646  -3084565.61744  23144885.0634                   23144883.2624
 -26304447.35547 -20484927.16846  21377190.0634                   21377185.4884
 11  8 21  1 54 30.0000000  0  8G12G26G10G30G05G25G29G02
 -22667323.68048 -17651382.87546  21092131.3444                   21092128.4184
   2606040.04346   2041159.59443  24277827.9064                   24277827.1994
 -15807892.34046 -12307187.31644  22937785.3204                   22937783.1054
 -13734702.13348 -10690309.80546  21623943.0864                   21623941.1884
 -25691929.10548 -20007842.88747  20255776.7584                   20255773.6524
 -15223781.44948 -11851086.25846  21638746.3984                   21638746.5274
  -4077995.57846  -3168149.53144  23124473.1484                   23124470.8714
 -26293420.09848 -20476334.48846  21379288.5234                   21379283.8244
 11  8 21  1 55  0.0000000  0  8G12G26G10G30G05G25G29G02
 -22645697.27048 -17634531.13346  21096246.5004                   21096243.8984
   2487348.66446   1948672.95343  24255241.3914                   24255241.0744
 -15734410.83646 -12249929.02044  22951768.3754                   22951766.4414
 -13763572.52047 -10712806.19546  21618449.0004                   21618447.1844
 -25707982.03948 -20020351.64547  20252721.7894                   20252718.7544
 -15267377.97748 -11885057.56246  21630450.3594                   21630450.3714
  -4185225.83647  -3251705.54344  23104067.7274                   23104065.8634
 -26282277.97748 -20467652.30946  21381408.7504                   21381403.8554
 11  8 21  1 55 30.0000000  0  8G12G26G10G30G05G25G29G02
 -22623551.11748 -17617274.39146  21100460.9924                   21100458.4804
   2368624.01246   1856160.39144  24232648.8754                   24232648.7424
 -15660664.01646 -12192463.96944  22965801.9924                   22965799.4774
 -13791825.15648 -10734821.21546  21613072.8444                   21613070.8554
 -25723462.30948 -20032414.16447  20249775.6644                   20249773.2074
 -15310385.43448 -11918569.84846  21622266.2664                   21622266.0824
  -4292424.44947  -3335236.89845  23083668.5864                   23083666.6724
 -26271027.25448 -20458885.50046  21383549.5634                   21383544.6764
 11  8 21  1 56  0.0000000  0  8G12G26G10G30G05G25G29G02
 -22600889.28948 -17599615.83246  21104773.2974                   21104770.7344
   2249867.24246   1763622.82043  24210049.6954                   24210050.0864
 -15586657.11346 -12134796.25044  22979884.3594                   22979882.8484
 -13819462.35948 -10756356.69146  21607813.8984                   21607811.4844
 -25738372.64548 -20044032.58647  20246938.5784                   20246936.0784
 -15352805.48848 -11951624.41846  21614193.7114                   21614193.9804
  -4399591.77047  -3418743.87145  23063275.0084                   23063273.3754
 -26259670.36748 -20450035.96946  21385711.0314                   21385706.0434
 11  8 21  1 56 30.0000000  0  8G12G26G10G30G05G25G29G02
 -22577716.50448 -17581559.12546  21109182.8134                   21109179.9774
   2131078.91446   1671060.61744  24187445.0554                   24187444.9494
 -15512395.09046 -12076929.77044  22994016.5784                   22994014.7274
 -13846487.01648 -10777414.85246  21602671.3754                   21602668.8914
 -25752716.49248 -20055209.59047  20244208.9534                   20244206.7384
 -15394640.11348 -11984222.80946  21606233.3284                   21606232.6684
  -4506729.07447  -3502227.45745  23042887.7424                   23042886.7424
 -26248210.37948 -20441106.11346  21387891.4614                   21387886.9414
 11  8 21  1 57  0.0000000  0  8G12G26G10G30G05G25G29G02
 -22554032.91048 -17563104.38346  21113689.8754                   21113686.7544
   2012264.25447   1578477.91843  24164835.9304                   24164835.1954
 -15437879.12546 -12018865.43044  23008196.5394                   23008194.2384
 -13872897.84848 -10797994.71546  21597645.0474                   21597642.8484
 -25766493.14148 -20065944.60947  20241587.8444                   20241584.9414
 -15435887.19548 -12016363.37946  21598383.7974                   21598383.7304
  -4613832.81247  -3585684.86745  23022506.6254                   23022505.1524
 -26236645.71548 -20432094.68046  21390092.1254                   21390087.5394
 11  8 21  1 57 30.0000000  0  8G12G26G10G30G05G25G29G02
 -22529844.14148 -17544255.99646  21118292.9064                   21118290.0984
   1893422.07046   1485873.74643  24142220.2734                   24142220.1844
 -15363116.32847 -11960608.73444  23022423.2194                   23022421.0594
 -13898699.18048 -10818099.65646  21592735.3524                   21592733.3444
 -25779707.79348 -20076241.71547  20239072.8914                   20239069.8874
 -15476550.43748 -12048049.02346  21590646.1254                   21590645.5634
  -4720905.32847  -3669117.96145  23002131.2584                   23002130.0744
 -26224981.02748 -20423005.31246  21392312.0164                   21392307.1294
 11  8 21  1 58  0.0000000  0  8G12G26G10G30G05G25G29G02
 -22505150.75848 -17525014.41446  21122991.9304                   21122989.0554
   1774557.35246   1393252.01644  24119600.8054                   24119600.8164
 -15288107.69547 -11902160.47344  23036697.5004                   23036695.4344
 -13923889.84847 -10837728.75046  21587941.8834                   21587940.2034
 -25792359.82048 -20086100.42247  20236665.2114                   20236662.1954
 -15516627.87148 -12079278.18746  21583019.5704                   21583019.4414
  -4827943.98047  -3752524.66045  22981762.6804                   22981761.2344
 -26213214.92648 -20413836.92646  21394550.5944                   21394545.9734
 11  8 21  1 58 30.0000000  0  8G12G26G10G30G05G25G29G02
 -22479957.62948 -17505383.41446  21127785.9064                   21127783.0354
   1655670.89146   1300613.34844  24096978.0314                   24096977.2624
 -15212858.76647 -11843524.95744  23051016.8834                   23051014.9574
 -13948472.84047 -10856884.34446  21583263.3914                   21583261.7974
 -25804452.51248 -20095523.27747  20234364.1174                   20234360.8954
 -15556121.67248 -12110052.58646  21575504.5554                   21575503.7934
  -4934949.23447  -3835905.33245  22961400.2034                   22961398.3364
 -26201350.29348 -20404591.75046  21396808.6414                   21396804.1414
 11  8 21  1 59  0.0000000  0  8G12G26G10G30G05G25G29G02
 -22454266.86348 -17485364.64146  21132674.9844                   21132671.6454
   1536765.33146   1207959.83643  24074350.6954                   24074349.8204
 -15137372.97347 -11784704.86344  23065381.3284                   23065379.9614
 -13972449.17647 -10875567.21546  21578701.4064                   21578699.0084
 -25815987.53948 -20104511.59047  20232169.0944                   20232166.1214
 -15595031.96948 -12140372.30146  21568099.7344                   21568099.7624
  -5041920.23047  -3919259.31645  22941043.9924                   22941042.1524
 -26189387.92648 -20395270.42246  21399085.0634                   21399080.6564
 11  8 21  1 59 30.0000000  0  8G12G26G10G30G05G25G29G02
 -22428077.35948 -17464957.24246  21137658.2734                   21137655.4064
   1417846.91046   1115296.25443  24051720.9924                   24051720.9884
 -15061649.88347 -11725699.84444  23079790.4844                   23079789.5784
 -13995816.35947 -10893775.41446  21574254.4774                   21574252.7384
 -25826963.03148 -20113063.89547  20230080.4384                   20230077.5234
 -15633355.62948 -12170234.89546  21560806.8444                   21560806.6524
  -5148852.39147  -4002583.04345  22920695.5004                   22920693.7504
 -26177325.31648 -20385870.98446  21401380.5944                   21401376.2664
 11  8 21  2  0  0.0000000  0  8G12G26G10G30G05G25G29G02
 -22401394.98048 -17444165.78146  21142736.1484                   21142732.9844
   1298915.19946   1022622.32043  24029089.1174                   24029088.4104
 -14985695.71547 -11666514.78144  23094244.0634                   23094242.1644
 -14018578.39147 -10911512.07446  21569923.0634                   21569921.0944
 -25837383.66848 -20121183.85247  20228097.3674                   20228094.7234
 -15671095.81648 -12199642.84446  21553625.4454                   21553625.0824
  -5255747.18047  -4085877.64545  22900354.3984                   22900352.8634
 -26165166.47348 -20376396.54346  21403694.5004                   21403689.4384
 11  8 21  2  0 30.0000000  0  8G12G26G10G30G05G25G29G02
 -22374219.17648 -17422989.83646  21147907.3364                   21147904.5474
   1179976.48046    929942.90643  24006455.7664                   24006455.0004
 -14909511.09447 -11607150.13744  23108741.7194                   23108739.2854
 -14040733.32048 -10928775.66846  21565706.7814                   21565705.1254
 -25847247.72748 -20128870.10947  20226220.3674                   20226217.7624
 -15708249.75848 -12228593.97346  21546555.0554                   21546555.3834
  -5362600.74647  -4169140.11745  22880020.8134                   22880019.0864
 -26152908.85948 -20366845.15246  21406026.6254                   21406022.3364
 11  8 21  2  1  0.0000000  0  8G12G26G10G30G05G25G29G02
 -22346553.35248 -17401432.06246  21153171.7114                   21153169.0234
   1061032.12546    837259.11743  23983820.7814                   23983820.7034
 -14833099.92247 -11547609.00044  23123282.2664                   23123279.7504
 -14062283.12948 -10945567.73446  21561606.3284                   21561604.1214
 -25856557.98848 -20136124.83647  20224448.5474                   20224445.7074
 -15744818.62148 -12257089.19546  21539596.4694                   21539596.2544
  -5469412.92247  -4252370.33645  22859694.6174                   22859693.6764
 -26140554.53948 -20357218.41846  21408377.9534                   21408372.7074
 11  8 21  2  1 30.0000000  0  8G12G26G10G30G05G25G29G02
 -22318401.16448 -17379495.30146  21158529.4924                   21158526.2544
    942084.42646    744572.71943  23961185.6254                   23961184.8524
 -14756466.43747 -11487894.60544  23137865.3674                   23137861.8164
 -14083229.74248 -10961889.77746  21557619.9844                   21557618.1294
 -25865316.87148 -20142949.92647  20222781.8594                   20222778.7934
 -15780803.62548 -12285129.46146  21532748.3834                   21532748.1914
  -5576183.33247  -4335568.00445  22839376.8984                   22839375.4454
 -26128104.82448 -20347517.35246  21410746.8284                   21410742.2624
 11  8 21  2  2  0.0000000  0  8G12G26G10G30G05G25G29G02
 -22289763.43448 -17357180.19146  21163978.8444                   21163975.9454
    823137.79346    651887.16443  23938550.9224                   23938550.2234
 -14679612.07447 -11428008.09844  23152489.9694                   23152487.4104
 -14103572.53548 -10977741.29746  21553749.5554                   21553747.2464
 -25873524.21948 -20149345.24647  20221220.1804                   20221216.9614
 -15816203.26248 -12312713.58646  21526011.9144                   21526012.2544
  -5682908.98447  -4418730.78145  22819067.3834                   22819066.3164
 -26115558.81648 -20337741.23446  21413134.0004                   21413129.7464
 11  8 21  2  2 30.0000000  0  8G12G26G10G30G05G25G29G02
 -22260642.01648 -17334488.18746  21169520.4384                   21169517.6454
    704195.49246    559204.98043  23915917.3984                   23915916.1954
 -14602539.96947 -11367951.89544  23167156.3754                   23167153.6214
 -14123312.29348 -10993122.93746  21549992.9224                   21549990.8284
 -25881181.37148 -20155311.84847  20219762.8754                   20219759.8054
 -15851017.50448 -12339841.55946  21519387.0784                   21519387.1214
  -5789588.19547  -4501857.36745  22798767.2424                   22798765.9614
 -26102916.98448 -20327890.44146  21415539.9614                   21415534.9574
 11  8 21  2  3  0.0000000  0  8G12G26G10G30G05G25G29G02
 -22231040.17248 -17311421.82046  21175153.4064                   21175150.4144
    585260.06346    466528.14843  23893284.5164                   23893283.5044
 -14525253.85247 -11307728.92644  23181862.6724                   23181861.4414
 -14142450.52047 -11008035.82846  21546351.2114                   21546348.8244
 -25888290.50848 -20160851.42247  20218410.1484                   20218406.9774
 -15885247.14848 -12366513.99246  21512873.6564                   21512873.3954
  -5896220.44947  -4584947.37545  22778475.7114                   22778473.5744
 -26090180.50848 -20317965.91446  21417963.8204                   21417958.5904
 11  8 21  2  3 30.0000000  0  8G12G26G10G30G05G25G29G02
 -22200959.15248 -17287982.07046  21180877.7584                   21180874.5864
    466335.79746    373859.97344  23870653.7504                   23870653.1604
 -14447755.30547 -11247340.46144  23196610.2664                   23196608.8244
 -14160986.92247 -11022479.76246  21542823.4224                   21542821.4614
 -25894851.69948 -20165964.02747  20217161.6484                   20217158.1484
 -15918891.06248 -12392730.00846  21506471.3444                   21506471.3134
  -6002802.81247  -4667998.48845  22758193.8284                   22758191.8284
 -26077348.50447 -20307966.95346  21420405.3134                   21420400.0824
 11  8 21  2  4  0.0000000  0  8G12G26G10G30G05G25G29G02
 -22170399.14148 -17264169.08246  21186692.9844                   21186690.1454
    347427.93446    281204.58243  23848026.4224                   23848025.0784
 -14370045.29347 -11186787.20344  23211398.4694                   23211397.4344
 -14178920.44547 -11036453.91446  21539410.7114                   21539409.0784
 -25900864.29348 -20170649.13747  20216017.0314                   20216014.3364
 -15951947.34848 -12418488.12146  21500180.7194                   21500180.5354
  -6109331.51247  -4751007.79745  22737922.0394                   22737920.3554
 -26064419.57048 -20297892.46946  21422865.6644                   21422861.2544
 11  8 21  2  4 30.0000000  0  8G12G26G10G30G05G25G29G02
 -22139364.20748 -17239986.02746  21192598.7814                   21192595.9734
    228537.67646    188562.91843  23825402.5394                   23825401.5904
 -14292128.13747 -11126072.59844  23226225.8914                   23226224.1884
 -14196253.84048 -11049960.43746  21536112.8364                   21536110.7774
 -25906331.44148 -20174909.23847  20214976.7114                   20214973.9064
 -15984417.96148 -12443789.87146  21494001.9844                   21494001.8594
  -6215807.27747  -4833975.85545  22717660.5784                   22717658.4734
 -26051396.12148 -20287744.30946  21425344.3284                   21425339.7424
 11  8 21  2  5  0.0000000  0  8G12G26G10G30G05G25G29G02
 -22107857.71948 -17215435.52346  21198594.2814                   21198591.5864
    109667.67247     95937.02043  23802781.7274                   23802780.5274
 -14214007.91047 -11065199.71144  23241091.2584                   23241089.1994
 -14212988.89148 -11063000.71946  21532928.0394                   21532925.9494
 -25911255.77348 -20178746.37147  20214040.1644                   20214037.0004
 -16016303.86348 -12468635.99646  21487934.1644                   21487934.2504
  -6322229.36347  -4916902.08645  22697408.7734                   22697406.2234
 -26038279.12547 -20277523.26646  21427839.9614                   21427835.3834
 11  8 21  2  5 30.0000000  0  8G12G26G10G30G05G25G29G02
 -22075881.66448 -17190519.12546  21204678.9534                   21204676.2154
     -9178.51246      3329.68843  23780165.7504                   23780165.2234
 -14135687.14847 -11004170.55544  23255995.7424                   23255992.8284
 -14229126.06647 -11075575.11346  21529857.0314                   21529855.1844
 -25915637.96148 -20182161.04347  20213206.0004                   20213202.8364
 -16047604.75448 -12493026.25846  21481977.8134                   21481977.9024
  -6428595.36747  -4999784.59845  22677168.3524                   22677166.1414
 -26025068.51647 -20267229.28946  21430353.9224                   21430349.0704
 11  8 21  2  6  0.0000000  0  8G12G26G10G30G05G25G29G02
 -22043437.33648 -17165237.83646  21210852.8444                   21210850.0434
   -127996.72746    -89255.84843  23757556.0474                   23757554.2234
 -14057167.86747 -10942986.69944  23270937.4774                   23270935.5004
 -14244665.41447 -11087683.66446  21526900.2504                   21526897.8984
 -25919478.41848 -20185153.59447  20212475.1334                   20212471.9614
 -16078319.87548 -12516960.09046  21476132.8284                   21476132.6994
  -6534902.80947  -5082621.48045  22656938.4924                   22656936.4104
 -26011763.80947 -20256861.98846  21432886.0394                   21432880.5784
 11  8 21  2  6 30.0000000  0  8G12G26G10G30G05G25G29G02
 -22010528.00048 -17139594.21146  21217115.5474                   21217112.6454
   -246784.43446   -181817.64544  23734951.0864                   23734950.0634
 -13978453.77047 -10881651.04344  23285915.9614                   23285914.3634
 -14259608.77048 -11099327.81646  21524056.3984                   21524054.4654
 -25922779.70748 -20187726.00447  20211846.8364                   20211843.7034
 -16108450.24248 -12540438.25446  21470399.1484                   21470399.0514
  -6641150.89547  -5165412.09845  22636720.0704                   22636717.8714
 -25998366.28548 -20246422.35546  21435435.1174                   21435430.5554
 11  8 21  2  7  0.0000000  0  8G12G26G10G30G05G25G29G02
 -21977153.69148 -17113588.25846  21223466.4924                   21223463.3754
   -365536.29746   -274351.46944  23712352.9924                   23712352.1214
 -13899545.08647 -10820163.78544  23300932.1174                   23300929.5594
 -14273954.90648 -11110506.59046  21521326.2584                   21521323.9734
 -25925541.19148 -20189877.79747  20211321.4224                   20211318.4264
 -16137993.85248 -12563459.21146  21464777.2504                   21464777.1414
  -6747335.99247  -5248153.64845  22616513.2814                   22616511.0394
 -25984873.83248 -20235908.75046  21438003.0314                   21437998.3794
 11  8 21  2  7 30.0000000  0  8G12G26G10G30G05G25G29G02
 -21943317.89548 -17087222.71546  21229905.1174                   21229902.2074
   -484249.98846   -366855.57844  23689762.9534                   23689761.8324
 -13820446.06247 -10758528.20744  23315983.2974                   23315982.7344
 -14287706.11348 -11121221.79346  21518709.6254                   21518707.5274
 -25927765.32048 -20191610.87147  20210898.2734                   20210894.9804
 -16166952.15648 -12586024.09446  21459266.5164                   21459266.4774
  -6853457.23047  -5330845.44145  22596318.8914                   22596317.1954
 -25971288.15248 -20225322.50046  21440588.0784                   21440583.8404
 11  8 21  2  8  0.0000000  0  8G12G26G10G30G05G25G29G02
 -21909024.12948 -17060500.31246  21236431.1884                   21236428.1724
   -602922.87946   -459327.86744  23667179.8754                   23667179.6914
 -13741160.45347 -10696747.23844  23331071.7894                   23331070.2774
 -14300864.11748 -11131474.75846  21516205.5864                   21516203.2234
 -25929454.52748 -20192927.11347  20210576.6884                   20210574.0084
 -16195326.06648 -12608133.61346  21453867.3204                   21453867.1094
  -6959513.84447  -5413486.87945  22576137.2894                   22576135.5824
 -25957609.91848 -20214664.13346  21443190.8524                   21443186.3444
 11  8 21  2  8 30.0000000  0  8G12G26G10G30G05G25G29G02
 -21874276.18448 -17033424.00846  21243043.1024                   21243040.4534
   -721553.05946   -551766.86744  23644605.4144                   23644604.8484
 -13661692.67647 -10634824.30944  23346193.3984                   23346192.0084
 -14313431.34448 -11141267.37946  21513814.0784                   21513812.2114
 -25930611.34448 -20193828.50847  20210356.5864                   20210353.8054
 -16223117.23848 -12629789.03946  21448578.5394                   21448578.7304
  -7065505.54347  -5496077.73045  22555967.8054                   22555965.9384
 -25943840.91848 -20203935.04746  21445811.2664                   21445806.3014
 11  8 21  2  9  0.0000000  0  8G12G26G10G30G05G25G29G02
 -20263656.65648 -15778395.80946  21549533.9064                   21549531.3134
    735287.44146    583433.64144  23921832.5084                   23921831.8484
 -12006627.21947  -9345162.94544  23661142.9614                   23661140.2624
 -12749987.89848  -9922999.74646  21811327.5634                   21811325.7814
 -24355817.02748 -18966716.03547  20510029.7114                   20510026.7934
 -14674904.47348 -11423389.46946  21743193.9304                   21743193.6454
  -5596006.55147  -4351013.52045  22835603.9614                   22835601.9734
 -24354561.62948 -18965535.60546  21748241.2194                   21748236.3134
 11  8 21  2  9 30.0000000  0  8G12G26G10G30G05G25G29G02
 -20228003.75048 -15750614.33246  21556318.5004                   21556315.8284
    616756.00046    491071.58644  23899276.3594                   23899276.1994
 -11926799.44947  -9282959.48044  23676333.4304                   23676330.0664
 -12761373.57448  -9931871.68046  21809160.8594                   21809158.5904
 -24355910.77048 -18966789.06247  20510012.1954                   20510009.0434
 -14701527.70348 -11444134.82846  21738127.4064                   21738127.3754
  -5701859.85547  -4433496.54745  22815460.9844                   22815459.0514
 -24340608.82448 -18954663.30946  21750895.8984                   21750891.6954
 11  8 21  2 10  0.0000000  0  8G12G26G10G30G05G25G29G02
 -20191900.73448 -15722482.12146  21563188.9224                   21563186.1174
    498280.53546    398753.13343  23876731.5394                   23876730.3284
 -11846794.27747  -9220617.83244  23691557.4924                   23691554.8914
 -12772168.83248  -9940283.55545  21807106.5314                   21807104.6294
 -24355473.87948 -18966448.62547  20510095.1024                   20510092.2544
 -14727566.08648 -11464424.45746  21733172.4304                   21733172.4184
  -5807639.69147  -4515922.33645  22795331.5394                   22795329.2774
 -24326563.10248 -18943718.59446  21753568.9844                   21753564.7854
 11  8 21  2 10 30.0000000  0  8G12G26G10G30G05G25G29G02
 -20155351.80148 -15694002.43746  21570143.7504                   21570140.9414
    379862.46946    306479.41043  23854197.1334                   23854196.1134
 -11766616.38347  -9158141.55543  23706814.7584                   23706812.2704
 -12782376.67248  -9948237.71146  21805164.3984                   21805162.2074
 -24354509.69948 -18965697.30147  20510278.9614                   20510275.7344
 -14753021.76248 -11484260.03546  21728328.4614                   21728328.4304
  -5913346.36347  -4598291.11745  22775215.9144                   22775214.0004
 -24312426.64848 -18932703.18746  21756258.8204                   21756254.5274
 11  8 21  2 11  0.0000000  0  9G12G26G10G30G05G15G25G29G02
 -20118359.81648 -15665177.52346  21577182.9924                   21577180.2734
    261505.04346    214252.94144  23831674.7034                   23831673.6254
 -11686268.41847  -9095532.78543  23722104.4454                   23722102.2544
 -12791998.32848  -9955735.09846  21803333.1564                   21803330.9964
 -24353019.96148 -18964536.46147  20510562.3204                   20510558.9414
   7707044.21156   6016061.06353  24736270.0234                   24736269.2814
 -14777895.31247 -11503642.01646  21723595.0314                   21723594.9534
  -6018977.91447  -4680601.34845  22755115.0474                   22755113.2304
 -24298199.71148 -18921617.25846  21758966.2664                   21758960.9534
 11  8 21  2 11 30.0000000  0  9G12G26G10G30G05G15G25G29G02
 -20080934.26247 -15636014.75846  21584305.0394                   21584302.5434
    143204.19546    122070.53944  23809162.6804                   23809161.6724
 -11605761.19546  -9032799.91043  23737424.6024                   23737423.4844
 -12801042.53948  -9962782.53146  21801611.9144                   21801609.8324
 -24351013.92248 -18962973.30147  20510943.9064                   20510941.0664
   7590156.37946   5924979.87543  24714027.8364                   24714026.5594
 -14802194.57447 -11522576.50046  21718971.0164                   21718971.3244
  -6124540.59847  -4762857.94145  22735026.9384                   22735025.4614
 -24283890.07848 -18910466.91046  21761689.3444                   21761684.4104
 11  8 21  2 12  0.0000000  0  9G12G26G10G30G05G15G25G29G02
 -20043080.52747 -15606518.35246  21591508.5634                   21591505.4184
     24961.07046     29933.14144  23786661.4844                   23786660.5394
 -11525099.68046  -8969946.78943  23752774.1884                   23752772.4614
 -12809512.79348  -9969382.71946  21800000.4304                   21799998.2344
 -24348495.25048 -18961010.69147  20511423.2974                   20511420.2194
   7473134.73846   5833794.34043  24691758.7504                   24691758.1684
 -14825922.21147 -11541065.56246  21714455.9924                   21714455.9184
  -6230034.74247  -4845061.12145  22714952.0234                   22714950.5554
 -24269500.08248 -18899253.94946  21764427.8204                   21764423.2274
 11  8 21  2 12 30.0000000  0  9G12G26G10G30G05G15G25G29G02
 -20004797.02347 -15576687.05946  21598793.3914                   21598790.8874
    -93216.95346    -62153.56644  23764173.3834                   23764171.6844
 -11444282.48846  -8906972.34843  23768152.6644                   23768152.0314
 -12817406.58248  -9975533.73046  21798498.1644                   21798496.1054
 -24345461.80148 -18958646.95747  20512000.5164                   20511997.4924
   7355985.82446   5742509.66043  24669465.9304                   24669465.1994
 -14849074.91047 -11559106.62946  21710050.0864                   21710050.3444
  -6335454.62147  -4927206.44145  22694891.1804                   22694889.0864
 -24255025.85248 -18887975.34846  21767182.2734                   21767177.6024
 11  8 21  2 13  0.0000000  0  9G12G26G10G30G05G15G25G29G02
 -19966084.21547 -15546521.23446  21606160.3594                   21606157.5784
   -211324.91847   -154185.66044  23741697.8914                   23741696.9264
 -11363310.85946  -8843877.60543  23783561.4614                   23783560.2894
 -12824723.52048  -9981235.23846  21797105.7114                   21797103.2234
 -24341913.39148 -18955881.95747  20512675.8134                   20512672.6604
   7238713.84046   5651129.08243  24647149.4064                   24647148.9614
 -14871651.43447 -11576698.72746  21705754.2274                   21705753.9694
  -6440796.70347  -5009291.15245  22674845.6564                   22674843.8204
 -24240466.56248 -18876630.45346  21769952.5634                   21769948.1764
 11  8 21  2 13 30.0000000  0  9G12G26G10G30G05G15G25G29G02
 -19926944.75447 -15516022.95746  21613608.5864                   21613605.5704
   -329358.82846   -246160.04344  23719237.0164                   23719236.4064
 -11282186.94546  -8780664.16443  23798998.7274                   23798996.4024
 -12831464.35548  -9986487.84046  21795823.3594                   21795820.9454
 -24337851.21548 -18952716.62147  20513448.6644                   20513445.2304
   7121321.58246   5559654.79743  24624809.3914                   24624810.0004
 -14893651.85248 -11593841.91046  21701567.5474                   21701567.5554
  -6546058.44147  -5091313.24645  22654814.7894                   22654812.9614
 -24225821.83248 -18865218.98046  21772739.3524                   21772734.7624
 11  8 21  2 14  0.0000000  0  9G12G26G10G30G05G15G25G29G02
 -19887379.31647 -15485192.75046  21621137.3914                   21621134.6724
   -447313.69147   -338072.82844  23696790.4844                   23696789.8834
 -11200911.95347  -8717333.06643  23814464.9534                   23814462.0394
 -12837629.14548  -9991291.57046  21794649.6564                   21794647.7424
 -24333275.86348 -18949151.41447  20514319.2664                   20514316.0664
   7003812.77346   5468089.62943  24602448.0234                   24602448.2304
 -14915075.25048 -11610535.47346  21697490.9454                   21697490.8594
  -6651236.69947  -5173270.29745  22634799.8674                   22634797.5824
 -24211089.87148 -18853739.54346  21775542.8134                   21775538.0704
 11  8 21  2 14 30.0000000  0  9G12G26G10G30G05G15G25G29G02
 -19847390.95747 -15454032.99246  21628746.8914                   21628744.1764
   -565186.23447   -429921.47744  23674360.1254                   23674358.8634
 -11119489.00047  -8653886.65643  23829959.1804                   23829956.7344
 -12843219.30548  -9995647.54746  21793586.0234                   21793583.7274
 -24328189.09448 -18945187.69547  20515287.3754                   20515284.1954
   6886190.12146   5376435.77743  24580066.7584                   24580065.3714
 -14935922.33248 -11626779.95746  21693523.8834                   21693523.7304
  -6756330.14847  -5255161.26245  22614801.5554                   22614799.2584
 -24196271.42648 -18842192.71146  21778362.5474                   21778357.7934
 11  8 21  2 15  0.0000000  0  9G12G26G10G30G05G15G25G29G02
 -19806979.09847 -15422543.23846  21636437.2114                   21636434.0514
   -682970.12947   -521701.06244  23651946.3834                   23651944.5084
 -11037917.75846  -8590324.65243  23845482.1414                   23845478.9734
 -12848233.31248  -9999554.56646  21792632.0004                   21792629.5704
 -24322590.00448 -18940824.76247  20516352.8984                   20516349.7974
   6768458.87146   5284697.28543  24557662.5474                   24557662.0274
 -14956190.72748 -11642573.51646  21689667.0234                   21689667.0274
  -6861333.88347  -5336982.31645  22594819.8444                   22594817.6254
 -24181363.37148 -18830576.05146  21781199.3134                   21781194.8754
 11  8 21  2 15 30.0000000  0  9G12G26G10G30G05G15G25G29G02
 -19766147.55147 -15390726.44946  21644206.9774                   21644204.1684
   -800662.61347   -613409.39144  23629550.5314                   23629548.0904
 -10956201.60946  -8526649.73843  23861031.8914                   23861030.5704
 -12852673.31248 -10003014.30946  21791787.1954                   21791784.8984
 -24316480.69548 -18936064.25447  20517515.4454                   20517512.5314
   6650620.77046   5192875.51243  24535238.5704                   24535237.8404
 -14975881.85948 -11657917.26246  21685919.6484                   21685919.6024
  -6966246.56647  -5418732.40645  22574855.8284                   22574853.3244
 -24166366.91448 -18818890.50846  21784052.9694                   21784048.4414
 11  8 21  2 16  0.0000000  0  9G12G26G10G30G05G15G25G29G02
 -19724898.11348 -15358584.03946  21652056.5314                   21652053.4104
   -918259.69547   -705043.38744  23607172.1884                   23607171.4104
 -10874342.81247  -8462863.68444  23876608.8834                   23876608.2814
 -12856540.13348 -10006027.42246  21791051.2194                   21791049.1054
 -24309862.24248 -18930907.00447  20518774.7344                   20518771.6604
   6532678.93846   5100972.94143  24512794.9064                   24512794.3754
 -14994995.71148 -11672811.18046  21682282.6334                   21682282.4224
  -7071065.83247  -5500409.71545  22554909.0554                   22554906.8014
 -24151281.83248 -18807135.89846  21786923.8594                   21786919.0824
 11  8 21  2 16 30.0000000  0  9G12G26G10G30G05G15G25G29G02
 -19683234.25848 -15326118.70746  21659985.2894                   21659982.0474
  -1035759.16847   -796601.33244  23584812.9614                   23584811.3524
 -10792345.07447  -8398969.34044  23892212.8674                   23892212.2274
 -12859836.71948 -10008596.19946  21790423.9694                   21790422.0474
 -24302738.07048 -18925355.69147  20520130.3914                   20520127.2384
   6414634.77346   5008990.63343  24490331.4694                   24490331.6214
 -15013534.28948 -11687256.82446  21678754.7584                   21678754.5004
  -7175791.05947  -5582013.75045  22534980.5944                   22534978.2074
 -24136109.21548 -18795313.08646  21789811.2504                   21789806.6054
 11  8 21  2 17  0.0000000  0  9G12G26G10G30G05G15G25G29G02
 -19641156.92648 -15293331.17646  21667991.9844                   21667989.1644
  -1153155.76647   -888079.10544  23562472.4844                   23562470.7034
 -10710209.65247  -8334967.73844  23907842.9534                   23907841.8754
 -12862562.64548 -10010720.29346  21789905.6414                   21789903.0904
 -24295107.94548 -18919410.13347  20521582.6564                   20521579.1094
   6296492.37546   4916931.78543  24467849.0394                   24467849.3754
 -15031496.57848 -11701253.41446  21675336.5944                   21675336.5864
  -7280418.75447  -5663541.77745  22515070.5394                   22515068.3594
 -24120847.68048 -18783420.97746  21792715.2814                   21792710.7034
 11  8 21  2 17 30.0000000  0  9G12G26G10G30G05G15G25G29G02
 -19598671.10248 -15260225.34846  21676076.3754                   21676074.0204
  -1270447.83247   -979475.44544  23540153.0554                   23540151.2384
 -10627940.86747  -8270862.25444  23923498.0704                   23923496.7934
 -12864721.32048 -10012402.39146  21789494.4304                   21789492.4414
 -24286975.68048 -18913073.29747  20523129.8054                   20523126.3714
   6178253.00046   4824797.38343  24445349.0474                   24445349.4104
 -15048885.06648 -11714802.89146  21672027.5634                   21672027.4494
  -7384948.76247  -5744993.69945  22495179.0554                   22495176.4344
 -24105499.02048 -18771460.97346  21795635.5474                   21795631.1724
 11  8 21  2 18  0.0000000  0  9G12G26G10G30G05G15G25G29G02
 -19555778.73048 -15226802.73446  21684238.6884                   21684236.1684
  -1387631.13347  -1070787.03544  23517853.3364                   23517852.2894
 -10545540.57447  -8206654.28144  23939178.6254                   23939176.0944
 -12866313.40248 -10013642.97346  21789191.1804                   21789189.3364
 -24278341.89148 -18906345.65247  20524772.9614                   20524769.6684
   6059919.37546   4732589.55943  24422831.7274                   24422830.6764
 -15065699.65648 -11727905.17246  21668828.1724                   21668827.7704
  -7489378.39847  -5826367.40245  22475307.0634                   22475304.5864
 -24090062.67248 -18759432.64546  21798573.1954                   21798568.5394
 11  8 21  2 18 30.0000000  0  9G12G26G10G30G05G15G25G29G02
 -19512482.39547 -15193065.33246  21692477.9304                   21692475.1724
  -1504702.25047  -1162011.20744  23495575.6334                   23495574.6914
 -10463011.54747  -8142345.95344  23954883.5314                   23954880.3524
 -12867340.75448 -10014443.50446  21788996.3524                   21788993.7384
 -24269208.84048 -18899228.98447  20526510.6414                   20526508.0084
   5941493.84046   4640310.11343  24400294.6484                   24400294.7544
 -15081941.44148 -11740561.10946  21665737.2424                   21665737.6174
  -7593705.88747  -5907661.50845  22455453.9454                   22455451.5744
 -24074538.81247 -18747336.12146  21801527.4614                   21801522.9654
 11  8 21  2 19  0.0000000  0  9G12G26G10G30G05G15G25G29G02
 -19468783.35547 -15159014.15246  21700793.6724                   21700790.7854
  -1621656.67247  -1253144.43044  23473319.7504                   23473318.6454
 -10380355.26647  -8077938.46144  23970612.0164                   23970609.6454
 -12867803.93748 -10014804.43446  21788908.2194                   21788906.0204
 -24259577.56648 -18891724.09047  20528343.7344                   20528341.1484
   5822980.23046   4547962.05543  24377742.8674                   24377742.0904
 -15097610.07447 -11752770.44146  21662755.5084                   21662755.4494
  -7697928.11747  -5988873.60545  22435621.0554                   22435618.9224
 -24058926.60947 -18735170.77046  21804498.4064                   21804493.4184
 11  8 21  2 19 30.0000000  0  9G12G26G10G30G05G15G25G29G02
 -19424685.15247 -15124651.92246  21709185.1804                   21709182.4454
  -1738491.43047  -1344184.41844  23451086.7344                   23451086.0274
 -10297575.32847  -8013434.60944  23986364.1804                   23986363.9224
 -12867705.12148 -10014727.44146  21788926.3984                   21788924.5634
 -24249450.45348 -18883832.81647  20530270.8754                   20530267.8094
   5704380.59046   4455546.94143  24355173.7114                   24355173.0044
 -15112706.98847 -11764534.26646  21659882.8284                   21659882.7584
  -7802044.02347  -6070002.84445  22415808.4454                   22415806.4774
 -24043226.82447 -18722937.17246  21807486.4144                   21807481.4384
 11  8 21  2 20  0.0000000  0  9G12G26G10G30G05G15G25G29G02
 -19380191.06647 -15089981.22346  21717652.0554                   21717649.3364
  -1855203.13346  -1435128.52344  23428877.0394                   23428875.9964
 -10214674.38347  -7948836.53544  24002139.8284                   24002138.7734
 -12867046.09848 -10014213.91846  21789052.2114                   21789050.1094
 -24238829.41848 -18875556.67647  20532291.8594                   20532288.8404
   5585697.37546   4363066.72343  24332588.7504                   24332588.1174
 -15127233.12948 -11775853.33646  21657118.7194                   21657118.2304
  -7906051.86747  -6151047.87945  22396016.3754                   22396014.1764
 -24027439.73447 -18710635.52346  21810490.2504                   21810485.7814
 11  8 21  2 20 30.0000000  0  9G12G26G10G30G05G15G25G29G02
 -19335302.82847 -15055003.39146  21726194.2664                   21726191.8554
  -1971787.67246  -1525973.54344  23406691.5864                   23406690.9454
 -10131654.63347  -7884145.81243  24017938.1174                   24017936.7114
 -12865827.88748 -10013264.67246  21789283.8054                   21789282.1954
 -24227715.87948 -18866896.76247  20534406.5554                   20534403.5004
   5466933.72346   4270523.79343  24309988.5234                   24309988.6294
 -15141188.85548 -11786727.92646  21654463.1564                   21654462.7464
  -8009948.93747  -6232006.57846  22376245.3754                   22376243.3954
 -24011564.67647 -18698265.32446  21813510.9064                   21813506.6844
 11  8 21  2 21  0.0000000  0  9G12G26G10G30G05G15G25G29G02
 -19290023.69147 -15019720.96546  21734810.4924                   21734807.7464
  -2088241.71147  -1616716.89144  23384531.1724                   23384530.0004
 -10048518.82046  -7819364.70743  24033758.3204                   24033757.2464
 -12864052.61748 -10011881.35246  21789621.4534                   21789620.1294
 -24216111.90648 -18857854.69547  20536614.8524                   20536611.2704
   5348091.87946   4177919.93843  24287373.6484                   24287373.2974
 -15154575.38748 -11797158.99646  21651915.5004                   21651915.1524
  -8113733.45347  -6312877.58245  22356495.9224                   22356493.5864
 -23995602.09447 -18685826.94146  21816548.6024                   21816544.0274
 11  8 21  2 21 30.0000000  0  9G12G26G10G30G05G15G25G29G02
 -19244356.05547 -14984135.80546  21743500.7114                   21743497.7734
  -2204561.71947  -1707355.78544  23362396.3914                   23362394.6054
  -9965269.30946  -7754494.98043  24049600.5704                   24049598.8674
 -12861721.82448 -10010065.15646  21790064.9384                   21790063.1684
 -24204019.64548 -18848432.14847  20538915.8134                   20538912.5314
   5229174.48046   4085257.20343  24264744.5784                   24264743.1374
 -15167393.49648 -11807147.14146  21649476.2974                   21649476.0554
  -8217403.45747  -6393659.35246  22336767.7424                   22336765.8714
 -23979551.95347 -18673320.33646  21819602.9844                   21819598.0354
 11  8 21  2 22  0.0000000  0  9G12G26G10G30G05G15G25G29G02
 -19198302.35547 -14948249.82846  21752264.7114                   21752261.6724
  -2320743.77346  -1797887.19944  23340287.7274                   23340285.8794
  -9881908.77046  -7689538.75043  24065463.8204                   24065461.2034
 -12858836.90248 -10007817.18046  21790614.1724                   21790612.5124
 -24191440.45348 -18838630.16447  20541309.7194                   20541306.6994
   5110184.75846   3992538.05543  24242101.6884                   24242099.9064
 -15179643.83248 -11816692.85246  21647145.0084                   21647144.7544
  -8320956.68447  -6474350.12146  22317062.2584                   22317060.0704
 -23963414.15247 -18660745.43446  21822674.1724                   21822669.2504
 11  8 21  2 22 30.0000000  0  9G12G26G10G30G05G15G25G29G02
 -19151865.60547 -14912065.35946  21761101.0784                   21761098.1374
  -2436784.70747  -1888308.62144  23318205.5394                   23318204.7934
  -9798439.90646  -7624498.08243  24081346.7814                   24081344.4494
 -12855399.93748 -10005139.03546  21791268.1564                   21791266.5044
 -24178376.47348 -18828450.42247  20543795.6094                   20543792.4184
   4991124.67646   3899764.07843  24219445.4534                   24219444.3914
 -15191327.66448 -11825797.13746  21644921.8444                   21644921.7154
  -8424391.52747  -6554948.64545  22297379.5314                   22297377.1134
 -23947189.00047 -18648102.45746  21825761.4454                   21825757.1564
 11  8 21  2 23  0.0000000  0  9G12G26G10G30G05G15G25G29G02
 -19105049.75847 -14875585.48846  21770009.6644                   21770006.9534
  -2552681.37547  -1978617.62144  23296150.9304                   23296150.4494
  -9714865.93446  -7559375.53543  24097249.7274                   24097246.9774
 -12851413.41048 -10002032.66446  21792027.1334                   21792024.6524
 -24164830.45348 -18817895.06647  20546373.3754                   20546370.3094
   4871996.32846   3806936.92643  24196775.3594                   24196774.3054
 -15202446.60248 -11834461.24646  21642805.7194                   21642805.6844
  -8527706.59047  -6635453.83646  22277719.0004                   22277716.9304
 -23930877.03947 -18635391.82846  21828865.4454                   21828860.9694
 11  8 21  2 23 30.0000000  0  9G12G26G10G30G05G15G25G29G02
 -19057856.85247 -14838811.80546  21778990.7344                   21778987.7544
  -2668429.91046  -2068811.21144  23274125.1484                   23274123.8484
  -9631188.77746  -7494172.52743  24113173.4384                   24113170.8364
 -12846878.65247  -9998499.09445  21792889.8054                   21792887.7774
 -24150804.02748 -18806965.37547  20549042.6174                   20549039.6724
   4752803.05946   3714059.16444  24174093.9144                   24174092.6094
 -15213001.34048 -11842685.71946  21640797.3674                   21640797.2344
  -8630899.28547  -6715863.67246  22258081.8754                   22258080.0784
 -23914477.94947 -18622613.30145  21831985.8524                   21831981.4344
 11  8 21  2 24  0.0000000  0  9G12G26G10G30G05G15G25G29G02
 -19010289.03547 -14801745.98446  21788042.4774                   21788039.5394
  -2784026.72347  -2158886.59844  23252128.1174                   23252126.1414
  -9547411.00446  -7428891.14843  24129116.1564                   24129113.6914
 -12841797.29348  -9994539.60246  21793856.9694                   21793854.8674
 -24136298.94147 -18795662.69547  20551802.6334                   20551799.5984
   4633547.49246   3621132.85543  24151400.1174                   24151399.3204
 -15222992.69148 -11850471.18446  21638896.2974                   21638896.0044
  -8733967.83247  -6796176.75445  22238468.7894                   22238466.8404
 -23897991.72747 -18609766.89846  21835123.1334                   21835117.9774
 11  8 21  2 24 30.0000000  0  9G12G26G10G30G05G15G25G29G02
 -18962349.54747 -14764390.55946  21797164.8754                   21797162.2934
  -2899467.95347  -2248840.71944  23230159.7584                   23230158.3874
  -9463535.11746  -7363533.32043  24145077.1644                   24145074.9734
 -12836171.16047  -9990155.60545  21794927.4694                   21794925.1174
 -24121317.13747 -18783988.54747  20554653.7424                   20554650.4064
   4514232.51646   3528160.26244  24128694.8204                   24128694.0514
 -15232421.63348 -11857818.41046  21637102.0164                   21637101.6644
  -8836909.85947  -6876391.25846  22218879.4224                   22218877.2734
 -23881418.17247 -18596852.44546  21838277.2274                   21838272.2544
 11  8 21  2 25  0.0000000  0  9G12G26G10G30G05G15G25G29G02
 -18914039.42247 -14726746.31246  21806358.0084                   21806355.2034
  -3014748.15647  -2338669.39144  23208223.8054                   23208221.1294
  -9379561.77346  -7298099.54343  24161056.8914                   24161054.0554
 -12830000.19948  -9985347.08245  21796101.7274                   21796099.5704
 -24105858.73448 -18771943.02347  20557595.2584                   20557591.9184
   4394862.70346   3435144.91043  24105979.1174                   24105979.0354
 -15241287.40648 -11864726.81246  21635414.9774                   21635414.3954
  -8939721.35247  -6956504.02746  22199314.8984                   22199313.1414
 -23864755.57047 -18583868.60246  21841448.1254                   21841443.6094
 11  8 21  2 25 30.0000000  0  9G12G26G10G30G05G15G25G29G02
 -18865361.11347 -14688815.17646  21815621.2504                   21815618.5634
  -3129863.53947  -2428369.62144  23186317.0944                   23186315.3404
  -9295493.26647  -7232591.64543  24177054.8284                   24177052.3914
 -12823286.19148  -9980115.37945  21797379.5314                   21797377.1804
 -24089925.82848 -18759527.76646  20560627.2194                   20560623.8324
   4275440.82046   3342088.98844  24083254.5634                   24083253.3984
 -15249590.99648 -11871197.13746  21633834.3754                   21633834.6214
  -9042400.36747  -7036513.58246  22179775.6564                   22179773.4964
 -23848003.71147 -18570815.19945  21844635.3674                   21844631.5554
 11  8 21  2 26  0.0000000  0  9G12G26G10G30G05G15G25G29G02
 -18816319.26648 -14650600.75846  21824953.9144                   21824950.9694
  -3244812.55547  -2517940.22344  23164442.9774                   23164441.3634
  -9211334.27747  -7167013.22744  24193069.9924                   24193067.3324
 -12816032.96548  -9974463.52045  21798759.4614                   21798757.2854
 -24073522.65248 -18746746.05947  20563748.5864                   20563745.4184
   4155967.71946   3248993.16843  24060518.7274                   24060518.3364
 -15257335.48448 -11877231.80546  21632361.1804                   21632360.7424
  -9144946.65247  -7116419.69946  22160261.8364                   22160259.9344
 -23831164.62548 -18557693.82846  21847840.1414                   21847835.6414
 11  8 21  2 26 30.0000000  0  9G12G26G10G30G05G15G25G29G02
 -18766918.43748 -14612106.60246  21834354.4144                   21834351.7974
  -3359593.05547  -2607379.50444  23142600.6414                   23142599.0904
  -9127088.58646  -7101367.21543  24209100.3524                   24209098.1374
 -12808243.84848  -9968394.07445  21800242.3284                   21800239.6994
 -24056652.00048 -18733600.08647  20566959.0394                   20566955.6214
   4036444.56347   3155858.34843  24037775.0084                   24037773.3594
 -15264523.39548 -11882832.77346  21630993.2194                   21630992.9224
  -9247359.51247  -7196221.86346  22140773.0394                   22140770.9804
 -23814239.65248 -18544505.53546  21851060.5864                   21851055.9264
 11  8 21  2 27  0.0000000  0  9G12G26G10G30G05G15G25G29G02
 -18717160.53548 -14573334.21946  21843823.0084                   21843820.4144
  -3474200.56247  -2696683.99644  23120792.0164                   23120789.8014
  -9042757.87546  -7035655.00443  24225148.3444                   24225146.3164
 -12799919.91848  -9961907.89145  21801826.2894                   21801823.6914
 -24039315.16048 -18720090.85247  20570258.1414                   20570254.9884
   3916874.80546   3062687.20344  24015021.1254                   24015019.9104
 -15271155.13348 -11888000.36346  21629731.3284                   21629730.8954
  -9349636.00047  -7275917.76246  22121310.4064                   22121308.3404
 -23797227.78148 -18531249.55145  21854298.1484                   21854292.8754
 11  8 21  2 27 30.0000000  0  9G12G26G10G30G05G15G25G29G02
 -18667048.37148 -14534285.79346  21853358.6094                   21853356.1604
  -3588631.26647  -2785850.69944  23099016.3984                   23099014.4264
  -8958344.64846  -6969878.47344  24241212.1094                   24241209.6954
 -12791063.42648  -9955006.72746  21803511.2734                   21803509.3364
 -24021514.43048 -18706220.14147  20573645.1094                   20573642.2074
   3797261.56347   2969482.17644  23992259.4694                   23992258.8364
 -15277232.01248 -11892735.58646  21628574.8594                   21628574.7464
  -9451774.46947  -7355506.11746  22101874.1564                   22101871.7854
 -23780129.42647 -18517926.14845  21857551.6414                   21857546.9344
 11  8 21  2 28  0.0000000  0  9G12G26G10G30G05G15G25G29G02
 -18616584.02748 -14494962.93746  21862962.0864                   21862959.5864
  -3702881.05147  -2874876.43744  23077274.9144                   23077273.5474
  -8873850.44946  -6904038.85944  24257291.0314                   24257289.2624
 -12781675.41448  -9947691.38345  21805297.6644                   21805295.6684
 -24003251.21948 -18691989.05947  20577120.5234                   20577117.4144
   3677607.85947   2876245.64144  23969490.2894                   23969489.3164
 -15282754.43048 -11897038.76646  21627523.8754                   21627524.0634
  -9553771.85547  -7434984.54746  22082464.6564                   22082462.4264
 -23762943.75447 -18504534.71146  21860822.1954                   21860817.3874
 11  8 21  2 28 30.0000000  0  9G12G26G10G30G05G15G25G29G02
 -18565770.99647 -14455368.37546  21872631.2974                   21872628.9844
  -3816946.66447  -2963758.65244  23055568.9844                   23055567.2934
  -8789278.39546  -6838138.55543  24273383.6564                   24273381.9774
 -12771758.48048  -9939963.89845  21807184.7974                   21807182.8524
 -23984528.25447 -18677399.71947  20580683.6644                   20580680.3714
   3557916.28547   2782979.58244  23946713.8594                   23946712.5984
 -15287724.16448 -11900911.27746  21626578.1094                   21626578.2114
  -9655626.54347  -7514351.78146  22063082.2424                   22063080.2074
 -23745670.95747 -18491075.37145  21864109.1724                   21864104.3364
 11  8 21  2 29  0.0000000  0  9G12G26G10G30G05G15G25G29G02
 -18514611.14148 -14415503.55546  21882366.3914                   21882363.9694
  -3930823.57847  -3052493.84444  23033899.0164                   23033897.2384
  -8704630.10246  -6772178.88343  24289491.6724                   24289489.5904
 -12761313.55148  -9931824.97745  21809172.3914                   21809170.6024
 -23965346.39848 -18662452.81647  20584333.8204                   20584330.6414
   3438190.52747   2689686.88344  23923930.6094                   23923930.0354
 -15292141.54748 -11904353.38346  21625737.3834                   21625737.5984
  -9757335.75447  -7593605.65246  22043727.6644                   22043725.3594
 -23728309.88347 -18477547.25446  21867412.9304                   21867407.8284
 11  8 21  2 29 30.0000000  0  9G12G26G10G30G05G15G25G29G02
 -18463106.80547 -14375370.31646  21892167.5474                   21892164.9884
  -4044508.00047  -3141079.03144  23012265.8594                   23012263.3554
  -8619907.46546  -6706161.27743  24305613.9694                   24305611.9774
 -12750342.52348  -9923276.11745  21811260.1024                   21811258.1094
 -23945707.75048 -18647149.96947  20588070.7734                   20588067.5474
   3318433.52347   2596369.84444  23901141.7974                   23901139.9264
 -15296007.56248 -11907365.85946  21625001.9924                   21625001.7304
  -9858896.64147  -7672743.95746  22024401.5394                   22024399.2234
 -23710860.68747 -18463950.47746  21870733.1094                   21870728.8674
 11  8 21  2 30  0.0000000  0  9G12G26G10G30G05G15G25G29G02
 -18411261.53547 -14334971.41846  21902033.2114                   21902030.5514
  -4157996.94147  -3229511.91844  22990669.0474                   22990667.3984
  -8535113.72346  -6640088.24643  24321750.4534                   24321748.3954
 -12738848.16448  -9914319.46145  21813447.6254                   21813445.0744
 -23925614.81248 -18631493.13747  20591894.3914                   20591891.5164
   3198647.30947   2503030.01244  23878346.7114                   23878345.2704
 -15299324.27048 -11909950.30146  21624370.8284                   21624370.4964
  -9960307.97747  -7751765.71946  22005102.9694                   22005100.9844
 -23693324.14147 -18450285.62145  21874070.2194                   21874065.1414
 11  8 21  2 30 30.0000000  0  9G12G26G10G30G05G15G25G29G02
 -18359078.66847 -14294309.44946  21911963.5554                   21911960.8364
  -4271286.28147  -3317789.24644  22969110.4844                   22969108.4884
  -8450251.31246  -6573961.72743  24337898.8204                   24337897.0664
 -12726832.40248  -9904956.51645  21815733.8134                   21815731.9304
 -23905069.56648 -18615483.83647  20595804.0004                   20595800.9184
   3078834.90247   2409669.78944  23855547.1564                   23855545.6094
 -15302092.87548 -11912107.64846  21623843.6564                   21623844.0594
 -10061567.27747  -7830669.02346  21985834.3524                   21985832.1454
 -23675699.52047 -18436552.15645  21877424.0084                   21877419.3754
 11  8 21  2 31  0.0000000  0  9G12G26G10G30G05G15G25G29G02
 -18306562.82847 -14253388.04346  21921957.1024                   21921954.5824
  -4384374.61747  -3405909.95744  22947591.2034                   22947588.8054
  -8365324.59446  -6507785.08643  24354059.8834                   24354057.7854
 -12714299.27348  -9895190.42245  21818119.2504                   21818116.6094
 -23884076.64848 -18599125.71947  20599798.9924                   20599795.7384
   2958997.34847   2316289.96144  23832742.8204                   23832741.1914
 -15304316.64848 -11913840.44946  21623420.5784                   21623419.8244
 -10162674.72747  -7909454.00846  21966594.1644                   21966591.7384
 -23657988.69547 -18422751.50445  21880794.3204                   21880789.5314
 11  8 21  2 31 30.0000000  0  9G12G26G10G30G05G15G25G29G02
 -18253714.87947 -14212207.83246  21932013.9924                   21932011.0514
  -4497256.03147  -3493869.44144  22926110.5234                   22926108.1094
  -8280333.93746  -6441558.66843  24370232.1804                   24370231.4804
 -12701248.93448  -9885021.31645  21820602.3134                   21820600.0474
 -23862636.27048 -18582418.92246  20603878.8524                   20603875.8714
   2839139.26246   2222894.14144  23809934.3444                   23809933.3444
 -15305995.01248 -11915148.25846  21623101.2584                   21623100.8634
 -10263625.91447  -7988117.23046  21947383.9224                   21947380.9924
 -23640189.96547 -18408882.35545  21884181.4144                   21884176.3714
 11  8 21  2 32  0.0000000  0  9G12G26G10G30G05G15G25G29G02
 -18200536.72747 -14170770.32446  21942133.2894                   21942130.8594
  -4609926.61347  -3581664.63744  22904669.2114                   22904668.0314
  -8195281.09046  -6375283.79743  24386418.1954                   24386417.5274
 -12687682.90648  -9874450.37545  21823183.8284                   21823181.2424
 -23840749.23048 -18565364.07846  20608043.7974                   20608040.5204
   2719264.35247   2129485.23444  23787122.6334                   23787121.2544
 -15307128.77748 -11916031.70346  21622885.3674                   21622885.2234
 -10364418.11747  -8066656.57446  21928203.9924                   21928201.3954
 -23622302.39147 -18394943.97345  21887585.1174                   21887580.5944
 11  8 21  2 32 30.0000000  0  9G12G26G10G30G05G15G25G29G02
 -18147032.68047 -14129078.87546  21952314.7424                   21952312.0204
  -4722383.40247  -3669293.22744  22883269.5234                   22883268.0864
  -8110169.69146  -6308963.27043  24402614.5474                   24402612.9654
 -12673604.34448  -9863480.05945  21825862.9384                   21825860.5944
 -23818418.87948 -18547963.78947  20612293.1174                   20612290.0204
   2599373.98046   2036064.26644  23764308.2664                   23764306.6684
 -15307720.35948 -11916492.67646  21622772.9454                   21622772.4734
 -10465050.24647  -8145071.18046  21909053.9224                   21909051.5904
 -23604326.87947 -18380937.07045  21891005.6174                   21891001.3524
 11  8 21  2 33  0.0000000  0  9G12G26G10G30G05G15G25G29G02
 -18093206.98447 -14087136.79346  21962557.2894                   21962554.5124
  -4834624.02747  -3756753.41045  22861910.9384                   22861909.1024
  -8025002.77746  -6242599.48043  24418821.1254                   24418818.8634
 -12659016.70748  -9852113.06245  21828638.8524                   21828636.6214
 -23795648.83648 -18530220.89146  20616626.0314                   20616622.5234
   2479469.93846   1942632.63344  23741491.3284                   23741489.8134
 -15307772.48048 -11916533.27346  21622763.1414                   21622762.6914
 -10565521.41047  -8223360.35946  21889935.0634                   21889932.2854
 -23586264.40247 -18366862.40645  21894443.0234                   21894438.2114
 11  8 21  2 33 30.0000000  0  9G12G26G10G30G05G15G25G29G02
 -18039062.43747 -14044946.26246  21972860.8364                   21972857.5204
  -4946644.94147  -3844042.36345  22840593.9614                   22840592.3054
  -7939783.06646  -6176194.53943  24435037.6414                   24435035.7464
 -12643922.20348  -9840351.10545  21831511.1174                   21831508.9964
 -23772441.36348 -18512137.13746  20621042.3674                   20621038.9224
   2359555.06646   1849192.58244  23718672.2194                   23718670.7974
 -15307286.67248 -11916154.71146  21622855.2664                   21622855.2544
 -10665829.12147  -8301522.17246  21870847.2114                   21870844.4104
 -23568115.14147 -18352720.11745  21897896.9614                   21897891.8094
 11  8 21  2 34  0.0000000  0  9G12G26G10G30G05G15G25G29G02
 -17984601.10247 -14002508.87546  21983224.4454                   21983221.7584
  -5058441.66447  -3931156.62945  22819319.7584                   22819317.9534
  -7854512.10946  -6109749.69543  24451264.0474                   24451261.3324
 -12628322.28948  -9828195.30945  21834480.0164                   21834477.7734
 -23748797.98048 -18493713.71146  20625541.7114                   20625538.5394
   2239633.16846   1755747.06644  23695852.3054                   23695849.4144
 -15306263.59448 -11915357.50446  21623050.3984                   21623050.0084
 -10765970.99647  -8379554.75046  21851790.6644                   21851787.8134
 -23549878.09447 -18338509.43445  21901366.9304                   21901361.8714
 11  8 21  2 34 30.0000000  0 10G12G26G10G30G05G15G25G29G02G21
 -17929826.20347 -13959827.15245  21993647.5554                   21993644.9414
  -5170010.83647  -4018093.59045  22798089.4454                   22798087.5904
  -7769192.49646  -6043266.87542  24467500.3674                   24467498.6484
 -12612219.62148  -9815647.77745  21837543.8914                   21837542.0474
 -23724721.19148 -18474952.56647  20630123.0864                   20630119.9614
   2119706.61346   1662297.91044  23673030.1804                   23673028.6094
 -15304705.17648 -11914143.14846  21623346.8524                   21623346.3444
 -10865944.68047  -8457456.28146  21832766.0704                   21832763.3164
 -23531553.80547 -18324230.74645  21904854.1174                   21904849.4024
   7761211.98056   6055147.75053  25087783.6884                   25087782.1134
 11  8 21  2 35  0.0000000  0 10G12G26G10G30G05G15G25G29G02G21
 -17874747.04347 -13916908.34046  22004128.7814                   22004126.1454
  -5281354.79347  -4104855.03545  22776900.9774                   22776899.5234
  -7683832.67246  -5976752.78543  24483743.2734                   24483741.8594
 -12595622.49247  -9802714.94545  21840702.1094                   21840700.1094
 -23700219.15648 -18455860.06247  20634785.9694                   20634782.9144
   1999772.21146   1568842.63344  23650207.1884                   23650206.0664
 -15302619.06248 -11912517.60546  21623743.6884                   21623743.4144
 -10965754.18448  -8535229.88346  21813773.1724                   21813770.0474
 -23513147.77047 -18309888.37945  21908356.2194                   21908352.1804
   7681495.49246   5993031.17242  25072614.0004                   25072612.2974
 11  8 21  2 35 30.0000000  0  9G12G26G30G05G15G25G29G02G21
 -17819370.08648 -13873757.48446  22014666.7664                   22014663.9104
  -5392473.52747  -4191441.00445  22755755.7344                   22755753.9264
 -12578536.91447  -9789401.50845  21843953.8754                   21843950.8754
 -23675297.64148 -18436440.69146  20639527.9304                   20639525.0864
   1879829.12946   1475380.59044  23627383.1804                   23627381.7344
 -15300010.45348 -11910484.93046  21624239.8524                   21624239.9384
 -11065401.44948  -8612877.07046  21794810.7424                   21794808.0164
 -23494663.58647 -18295485.10545  21911873.9384                   21911869.1884
   7601781.43846   5930916.46143  25057444.9614                   25057442.8594
 11  8 21  2 36  0.0000000  0  9G12G26G30G05G15G25G29G02G21
 -17763695.80547 -13830374.93746  22025261.4924                   22025258.7934
  -5503360.66047  -4277846.50445  22734654.2974                   22734652.7234
 -12560962.50447  -9775707.17245  21847297.9774                   21847295.5084
 -23649956.51248 -18416694.34046  20644350.2114                   20644347.1844
   1759882.73446   1381915.97744  23604557.6094                   23604556.5004
 -15296878.36748 -11908044.34846  21624835.9384                   21624836.0274
 -11164881.28948  -8690393.79346  21775880.5944                   21775877.9144
 -23476098.64847 -18281018.91845  21915406.6094                   21915402.0824
   7522072.01246   5868805.34843  25042276.0554                   25042274.6214
 11  8 21  2 36 30.0000000  0  9G12G26G30G05G15G25G29G02G21
 -17707719.78947 -13786757.27745  22035913.0394                   22035910.5004
  -5614005.65247  -4364063.31245  22713599.2114                   22713597.7114
 -12542894.35948  -9761628.09445  21850736.1954                   21850733.7854
 -23624190.73448 -18396617.10246  20649253.3594                   20649249.9844
   1639943.28147   1288456.77344  23581734.2664                   23581732.8634
 -15293217.15648 -11905191.46146  21625532.8754                   21625532.5084
 -11264183.96548  -8767772.46946  21756983.6334                   21756980.9304
 -23457445.62147 -18266484.09045  21918956.0474                   21918951.9104
   7442373.54346   5806702.79343  25027109.9694                   25027108.5434
 11  8 21  2 37  0.0000000  0  9G12G26G30G05G15G25G29G02G21
 -17651437.05947 -13742900.62946  22046623.4694                   22046620.4884
  -5724396.80147  -4450082.32845  22692593.0004                   22692590.9774
 -12524327.07448  -9747160.07445  21854269.7504                   21854267.2194
 -23597995.02748 -18376204.86347  20654238.1484                   20654234.8984
   1520021.19547   1195011.09444  23558913.5234                   23558911.7894
 -15289020.71948 -11901921.50446  21626331.3524                   21626331.1764
 -11363299.83248  -8845005.57046  21738122.4064                   21738120.1884
 -23438696.41447 -18251874.31645  21922523.7814                   21922519.3134
   7362693.19546   5744614.37142  25011947.7584                   25011945.1564
 11  8 21  2 37 30.0000000  0  9G12G26G30G05G15G25G29G02G21
 -17594852.04347 -13698808.42245  22057391.2504                   22057388.4184
  -5834531.55547  -4535901.55945  22671634.8284                   22671632.7304
 -12505264.10547  -9732305.82845  21857897.2034                   21857894.4494
 -23571372.48048 -18355460.02746  20659304.2034                   20659301.4024
   1400118.62547   1101580.61344  23536097.1024                   23536095.3324
 -15284291.87948 -11898236.69146  21627231.1804                   21627231.0004
 -11462227.75048  -8922092.22346  21719297.1094                   21719294.6294
 -23419852.17248 -18237190.49645  21926110.3984                   21926105.6484
   7283029.28946   5682538.66043  24996788.4144                   24996785.8054
 11  8 21  2 38  0.0000000  0  9G12G26G30G05G15G25G29G02G21
 -17537968.42647 -13654483.53145  22068215.7424                   22068213.1094
  -5944406.78547  -4621518.55545  22650726.0234                   22650724.9774
 -12485708.35247  -9717067.57845  21861618.4694                   21861616.0984
 -23544326.08248 -18334384.91046  20664451.1884                   20664448.2074
   1280237.87547   1008167.12944  23513284.4534                   23513282.7384
 -15279032.77348 -11894138.69146  21628232.2664                   21628231.6914
 -11560965.84048  -8999030.94946  21700508.1804                   21700505.2974
 -23400913.13347 -18222432.80945  21929713.6564                   21929708.9144
   7203380.78946   5620474.98043  24981631.2664                   24981629.2464
 11  8 21  2 38 30.0000000  0  9G12G26G30G05G15G25G29G02G21
 -17480793.14848 -13609931.36746  22079095.7034                   22079093.2544
  -6054022.96947  -4706933.71145  22629866.9774                   22629864.8284
 -12465666.49247  -9701450.56245  21865432.0554                   21865429.8954
 -23516862.43448 -18312984.66046  20669677.5394                   20669674.6294
   1160377.74247    914769.70744  23490475.6174                   23490474.1604
 -15273249.34448 -11889632.12546  21629332.6414                   21629332.6134
 -11659516.07047  -9075823.28146  21681753.8674                   21681751.8444
 -23381883.28947 -18207604.35545  21933335.3914                   21933330.0204
   7123742.78946   5558419.48843  24966476.5474                   24966475.0234
 11  8 21  2 39  0.0000000  0  9G12G26G30G05G15G25G29G02G21
 -17423331.94948 -13565156.41446  22090030.3754                   22090027.4734
  -6163379.52047  -4792146.55544  22609056.8834                   22609054.8444
 -12445143.77047  -9685458.84045  21869337.4064                   21869335.2934
 -23488986.34848 -18291263.03546  20674981.8364                   20674978.9344
   1040538.03947    821388.19944  23467671.1954                   23467669.1134
 -15266946.27748 -11884720.63346  21630532.3364                   21630531.2704
 -11757879.49248  -9152470.05546  21663036.3914                   21663034.1024
 -23362765.59448 -18192707.45345  21936973.0394                   21936968.3874
   7044112.03946   5496369.64843  24951322.8674                   24951321.2274
 11  8 21  2 39 30.0000000  0  9G12G26G30G05G15G25G29G02G21
 -17365585.53947 -13520159.21946  22101019.2734                   22101016.6764
  -6272470.23447  -4877152.25444  22588297.3674                   22588295.1724
 -12424140.37947  -9669092.57045  21873334.2274                   21873332.5354
 -23460698.05148 -18269220.20346  20680365.0944                   20680361.9414
    920724.06347    728026.72744  23444871.0004                   23444869.5354
 -15260122.97348 -11879403.77746  21631830.5554                   21631830.2854
 -11856051.10547  -9228967.37546  21644354.9064                   21644352.8204
 -23343557.18447 -18177739.87145  21940628.6414                   21940623.6564
   6964490.22346   5434326.76643  24936172.0234                   24936169.2894
 11  8 21  2 40  0.0000000  0  9G12G26G30G05G15G25G29G02G21
 -17307558.17647 -13474943.09445  22112061.3134                   22112058.8054
  -6381292.56247  -4961948.82845  22567588.8834                   22567586.9224
 -12402659.78147  -9652354.45345  21877422.1254                   21877419.6884
 -23432000.94148 -18246858.82846  20685826.1334                   20685822.1914
    800937.60546    634686.73044  23422076.8364                   23422074.4414
 -15252782.27748 -11873683.74646  21633227.1094                   21633226.9534
 -11954029.98048  -9305314.50846  21625709.8674                   21625707.4224
 -23324259.30548 -18162702.58245  21944300.9614                   21944296.1024
   6884875.70346   5372289.57443  24921021.1564                   24921019.1054
 11  8 21  2 40 30.0000000  0  9G12G26G30G05G15G25G29G02G21
 -17249251.84847 -13429509.59446  22123156.4924                   22123153.7814
  -6489842.06647  -5046532.80544  22546932.2664                   22546930.7154
 -12380703.58647  -9635245.73445  21881600.1484                   21881598.1374
 -23402896.45748 -18224180.00446  20691364.5394                   20691360.8754
    681182.30946    541370.99244  23399287.4774                   23399285.8404
 -15244925.16448 -11867561.32046  21634722.3594                   21634722.0314
 -12051812.90648  -9381508.96146  21607102.5234                   21607100.4494
 -23304870.71948 -18147594.59845  21947990.5944                   21947985.6334
   6805268.49246   5310258.10243  24905872.5864                   24905870.2504
 11  8 21  2 41  0.0000000  0  9G12G26G30G05G15G25G29G02G21
 -17190670.14547 -13383861.52745  22134304.0394                   22134302.0944
  -6598115.20347  -5130901.43444  22526328.7664                   22526326.7344
 -12358274.51248  -9617768.54745  21885868.1024                   21885865.7664
 -23373386.99648 -18201185.62146  20696979.9534                   20696976.4614
    561461.32046    448081.98844  23376505.3594                   23376502.8524
 -15236553.57848 -11861037.99646  21636315.7194                   21636315.3094
 -12149397.80948  -9457549.10246  21588532.8284                   21588530.3874
 -23285391.88348 -18132416.27745  21951696.6804                   21951692.4224
   6725667.73446   5248231.63343  24890724.6094                   24890723.0824
 11  8 21  2 41 30.0000000  0  9G12G26G30G05G15G25G29G02G21
 -17131817.01247 -13338001.94945  22145503.8524                   22145501.0634
  -6706109.52347  -5215052.80544  22505778.2034                   22505776.1844
 -12335376.23848  -9599925.73445  21890225.6174                   21890223.3094
 -23343476.46948 -18177878.70747  20702671.5234                   20702668.5554
    441776.14147    354820.89844  23353730.1804                   23353727.7974
 -15227670.69548 -11854116.26646  21638005.8444                   21638005.5554
 -12246783.52048  -9533434.02746  21570000.9144                   21569998.1334
 -23265823.36348 -18117168.09445  21955420.8054                   21955416.3484
   6646071.91045   5186209.03143  24875577.9844                   24875576.8484
 11  8 21  2 42  0.0000000  0  9G12G26G30G05G15G25G29G02G21
 -17072693.96547 -13291932.04345  22156754.7734                   22156751.8874
  -6813819.89847  -5298982.93045  22485281.7584                   22485279.7034
 -12312010.00847  -9581718.29345  21894672.0554                   21894670.0784
 -23313165.69948 -18154259.92246  20708439.4694                   20708436.8634
    322131.20346    261591.15644  23330962.2274                   23330959.9774
 -15218276.92248 -11846796.44546  21639793.4844                   21639792.9574
 -12343966.85547  -9609161.25846  21551507.2194                   21551505.0944
 -23246163.44948 -18101848.68045  21959162.1484                   21959157.4384
   6566481.71145   5124190.80943  24860432.0944                   24860431.1604
 11  8 21  2 42 30.0000000  0  9G12G26G30G05G15G25G29G02G21
 -15437886.63747 -12018056.21145  22467847.8674                   22467845.6604
  -5345819.61347  -4155086.56645  22764632.9774                   22764631.2274
 -10712759.52047  -8335549.08245  22198999.1024                   22198997.3754
 -21707038.18748 -16902731.99246  21014075.5944                   21014072.4654
   1777953.16446   1395997.97344  23607995.5784                   23607994.0234
 -13632954.96548 -10611480.63346  21941470.0864                   21941469.7584
 -10865522.36347  -8457126.54746  21832846.1804                   21832843.5084
 -21650993.33647 -16858858.97345  22262712.8594                   22262708.2814
   8062319.23446   6289778.60243  25145081.4774                   25145079.2304
 11  8 21  2 43  0.0000000  0  9G12G26G30G05G15G25G29G02G21
 -15378235.90647 -11971575.14845  22479198.7114                   22479196.4384
  -5452953.79747  -4238567.70745  22744246.2974                   22744243.8714
 -10688467.46547  -8316620.21945  22203621.7894                   22203619.6604
 -21675935.92648 -16878496.46546  21019993.8834                   21019990.7194
   1658395.00847   1302835.84844  23585244.5394                   23585242.5354
 -13622547.82848 -10603371.17246  21943450.7344                   21943450.4264
 -10962295.98848  -8532534.52746  21814430.8204                   21814428.1604
 -21631153.15648 -16843399.08245  22266488.4304                   22266483.5164
   7982736.32446   6227766.03543  25129936.6414                   25129935.1054
 11  8 21  2 43 30.0000000  0  9G12G26G30G05G15G25G29G02G21
 -15318326.50047 -11924892.49645  22490599.7274                   22490596.5664
  -5559795.04747  -4321820.59845  22723915.0704                   22723912.2344
 -10663716.97347  -8297334.12545  22208331.7274                   22208329.7074
 -21644442.69948 -16853956.28146  21025986.9534                   21025983.4804
   1538884.03947   1209710.49644  23562502.3834                   23562500.1604
 -13611637.39148 -10594869.52746  21945526.9064                   21945526.0944
 -11058862.02348  -8607780.75046  21796054.7974                   21796052.1764
 -21611222.88747 -16827869.01645  22270280.6884                   22270275.8634
   7903155.59446   6165755.11743  25114793.1024                   25114791.5514
 11  8 21  2 44  0.0000000  0  9G12G26G30G05G15G25G29G02G21
 -15258158.76647 -11878008.55145  22502049.2584                   22502046.3834
  -5666336.97747  -4404840.24245  22703640.7114                   22703638.3404
 -10638508.06647  -8277690.82845  22213128.9924                   22213126.5234
 -21612557.87948 -16829110.96946  21032054.3914                   21032051.0474
   1419425.72747   1116626.18444  23539770.6484                   23539768.4414
 -13600223.15648 -10585975.31646  21947698.8674                   21947698.3284
 -11155215.55948  -8682861.39546  21777719.1254                   21777716.4304
 -21591199.85248 -16812266.64145  22274091.4304                   22274086.2854
   7823578.52046   6103747.09443  25099650.3204                   25099647.9264
 11  8 21  2 44 30.0000000  0  9G12G26G30G05G15G25G29G02G21
 -15197736.71547 -11830926.46145  22513547.2114                   22513544.4844
  -5772577.52747  -4487625.05545  22683423.8754                   22683421.6374
 -10612844.67647  -8257693.39545  22218012.7664                   22218010.7704
 -21580285.13347 -16803963.36346  21038195.5864                   21038192.3094
   1300021.79347   1023584.24244  23517048.0864                   23517046.3754
 -13588308.36748 -10576691.05946  21949965.7504                   21949965.8244
 -11251355.62148  -8757775.69946  21759424.2034                   21759421.6524
 -21571085.20747 -16796592.89845  22277918.3984                   22277914.0514
   7744003.88746   6041740.98043  25084507.5944                   25084505.0204
 11  8 21  2 45  0.0000000  0  9G12G26G30G05G15G25G29G02G21
 -15137061.32447 -11783646.95345  22525093.2814                   22525090.4344
  -5878509.80947  -4570169.64145  22663265.3444                   22663263.0514
 -10586726.52747  -8237341.59045  22222982.5704                   22222980.8244
 -21547624.25048 -16778513.31246  21044410.8444                   21044407.9414
   1180677.85947    930589.04344  23494338.0394                   23494336.0004
 -13575892.17248 -10567016.11346  21952328.9924                   21952328.2854
 -11347277.24648  -8832519.79346  21741170.6414                   21741168.2664
 -21550876.09847 -16780845.54745  22281764.5084                   22281759.7424
   7664433.39546   5979738.08243  25069365.2344                   25069363.2114
 11  8 21  2 45 30.0000000  0  9G12G26G30G05G15G25G29G02G21
 -15076139.13347 -11736175.12545  22536686.5864                   22536683.7074
  -5984134.00047  -4652474.15245  22643165.6884                   22643163.9964
 -10560159.93047  -8216640.34445  22228037.9694                   22228035.8484
 -21514580.89548 -16752765.24246  21050698.7664                   21050695.7384
   1061393.52047    837640.29345  23471638.9614                   23471636.5744
 -13562980.20748 -10556954.84446  21954785.8674                   21954785.7734
 -11442981.61748  -8907094.60546  21722959.0234                   21722956.4884
 -21530575.43048 -16765026.84045  22285627.5864                   22285622.9964
   7584863.10547   5917735.32043  25054223.9304                   25054221.8834
 11  8 21  2 46  0.0000000  0  9G12G26G30G05G15G25G29G02G21
 -15014973.40247 -11688513.54345  22548325.8834                   22548323.3404
  -6089446.73447  -4734535.98445  22623125.4694                   22623122.9774
 -10533147.75047  -8195591.90645  22233177.9924                   22233176.3094
 -21481157.82448 -16726721.28546  21057059.0234                   21057055.9224
    942171.54347    744740.14144  23448951.9454                   23448949.9224
 -13549574.77048 -10546509.05546  21957336.7974                   21957337.0164
 -11538466.69148  -8981498.52346  21704788.6884                   21704786.1334
 -21510183.41847 -16749136.96945  22289507.7424                   22289503.7034
   7505292.50847   5855732.34843  25039082.6094                   25039079.1294
 11  8 21  2 46 30.0000000  0  9G12G26G30G05G15G25G29G02G21
 -14953564.69547 -11640662.62145  22560011.4534                   22560008.6294
  -6194442.27047  -4816350.65645  22603145.6414                   22603142.5274
 -10505690.34448  -8174196.52345  22238403.1804                   22238401.4844
 -21447355.33248 -16700381.68746  21063491.4774                   21063488.2114
    823017.27047    651892.75044  23426277.2974                   23426275.0084
 -13535675.53548 -10535678.50046  21959981.8754                   21959981.8284
 -11633727.66848  -9055727.82846  21686661.2504                   21686658.7934
 -21489697.59448 -16733173.98845  22293406.3914                   22293401.9534
   7425723.00447   5793730.15243  25023941.0704                   25023936.9494
 11  8 21  2 47  0.0000000  0  9G12G26G30G05G15G25G29G02G21
 -14891915.48447 -11592624.29345  22571742.9454                   22571740.3634
  -6299116.43447  -4897914.88345  22583226.3054                   22583224.3834
 -10477790.26248  -8152456.20745  22243712.4924                   22243710.5084
 -21413175.60948 -16673748.14546  21069995.6334                   21069992.5514
    703933.82447    559100.52044  23403616.2274                   23403614.3094
 -13521284.53548 -10524464.73846  21962720.2114                   21962720.0164
 -11728762.20348  -9129780.68746  21668576.8674                   21668574.0044
 -21469117.55147 -16717137.58645  22297322.3134                   22297317.9144
   7346154.08646   5731728.44543  25008799.2894                   25008796.1214
 11  8 21  2 47 30.0000000  0  9G12G26G30G05G15G25G29G02G21
 -14830030.52347 -11544402.27045  22583519.5474                   22583516.8444
  -6403466.71547  -4979226.75445  22563368.7734                   22563367.2114
 -10449451.34047  -8130373.93745  22249105.5004                   22249102.8204
 -21378622.13748 -16646823.35546  21076570.7814                   21076567.6024
    584922.86747    466364.78545  23380969.1254                   23380967.3094
 -13506404.91048 -10512870.24246  21965551.7034                   21965551.6884
 -11823569.14148  -9203656.19146  21650535.5004                   21650532.8954
 -21448444.10947 -16701028.43045  22301257.0004                   22301252.1764
   7266584.08646   5669725.95343  24993656.6174                   24993654.3364
 11  8 21  2 48  0.0000000  0  9G12G26G30G05G15G25G29G02G21
 -14767913.55947 -11495999.45345  22595340.3834                   22595337.3634
  -6507490.58647  -5060284.25845  22543574.0784                   22543571.8524
 -10420677.04347  -8107952.41445  22254580.8754                   22254578.7274
 -21343698.25848 -16619609.94146  21083216.7114                   21083213.7424
    465986.51647    373687.19145  23358336.1804                   23358334.3754
 -13491039.56648 -10500897.26246  21968475.8594                   21968475.5124
 -11918147.15648  -9277353.31646  21632537.6334                   21632535.3754
 -21427677.94147 -16684846.99645  22305207.8674                   22305203.7234
   7187011.97346   5607721.76643  24978514.5394                   24978512.3164
 11  8 21  2 48 30.0000000  0  9G12G26G30G05G15G25G29G02G21
 -14705567.31247 -11447417.98045  22607204.0864                   22607201.2894
  -6611183.68747  -5141084.04345  22523841.9844                   22523839.4384
 -10391469.71147  -8085193.44545  22260138.7734                   22260136.4414
 -21308405.87548 -16592109.37946  21089932.3054                   21089929.3794
    347128.63747    281070.74645  23335718.5004                   23335716.3244
 -13475190.18748 -10488547.10946  21971491.7664                   21971491.4494
 -12012493.21948  -9350869.69546  21614584.4534                   21614581.7894
 -21406818.16847 -16668592.61345  22309177.6254                   22309172.6214
   7107437.10246   5545715.46942  24963371.9774                   24963370.5514
 11  8 21  2 49  0.0000000  0  9G12G26G30G05G15G25G29G02G21
 -14642995.87547 -11398661.02745  22619111.0314                   22619108.0824
  -6714543.50047  -5221624.10945  22504173.0004                   22504170.7194
 -10361833.02347  -8062099.94145  22265778.2974                   22265776.4494
 -21272747.98048 -16564324.00846  21096718.3134                   21096714.9344
    228351.42646    188517.14144  23313115.5944                   23313113.6804
 -13458859.94948 -10475822.26646  21974599.4064                   21974599.0274
 -12106606.16448  -9424204.41846  21596675.3754                   21596672.5594
 -21385865.44147 -16652265.82845  22313165.1024                   22313160.5204
   7027858.21946   5483706.05143  24948229.3754                   24948227.3954
 11  8 21  2 49 30.0000000  0  9G12G26G30G05G15G25G29G02G21
 -14580201.19547 -11349730.12945  22631060.2584                   22631057.7734
  -6817565.55147  -5301900.98845  22484568.5944                   22484566.7544
 -10331768.94547  -8038673.39845  22271499.4774                   22271497.2464
 -21236726.62548 -16536255.41846  21103572.5784                   21103569.3874
    109658.40646     96029.14844  23290529.5474                   23290527.0554
 -13442050.14548 -10462723.73446  21977798.2114                   21977798.0514
 -12200482.81248  -9497355.01646  21578811.2344                   21578808.0394
 -21364818.74248 -16635865.82845  22317170.0234                   22317165.0594
   6948275.98846   5421694.04343  24933084.2114                   24933083.1994
 11  8 21  2 50  0.0000000  0  9G12G26G30G05G15G25G29G02G21
 -14517185.98047 -11300627.38745  22643051.8284                   22643049.2624
  -6920245.52047  -5381911.30145  22465029.3594                   22465027.3054
 -10301279.61747  -8014915.49645  22277301.7274                   22277299.3674
 -21200343.69948 -16507905.09446  21110495.8674                   21110493.0474
     -8946.83647      3609.53544  23267959.4614                   23267956.5514
 -13424762.40648 -10449252.78546  21981087.8674                   21981088.1954
 -12294119.98448  -9570319.00446  21560992.6644                   21560989.9654
 -21343677.05148 -16619391.78545  22321193.2194                   22321188.7304
   6868689.78546   5359678.93443  24917939.6564                   24917938.1174
 11  8 21  2 50 30.0000000  0  9G12G26G30G05G15G25G29G02G21
 -14453955.20347 -11251356.66045  22655084.1094                   22655081.8594
  -7022581.80947  -5461653.81245  22445555.3204                   22445552.9804
 -10270369.53947  -7990829.71945  22283183.8594                   22283180.8954
 -21163603.19948 -16479276.13746  21117487.5704                   21117484.1054
   -127462.84447    -88740.54745  23245406.5164                   23245404.0474
 -13407000.66848 -10435412.49246  21984467.9144                   21984467.8324
 -12387517.31248  -9643096.11346  21543219.5864                   21543216.8094
 -21322442.02747 -16602845.02045  22325233.9144                   22325229.3204
   6789097.35946   5297658.99243  24902793.4144                   24902791.8524
 11  8 21  2 51  0.0000000  0  9G12G26G30G05G15G25G29G02G21
 -14390511.02047 -11201919.65645  22667157.6884                   22667154.7384
  -7124569.96547  -5541125.07845  22426147.5234                   22426145.4614
 -10239041.00047  -7966417.87145  22289145.0864                   22289142.7034
 -21126506.96148 -16450369.98446  21124546.6884                   21124543.9264
   -245886.23847   -181018.47345  23222871.4064                   23222868.6644
 -13388766.56648 -10421204.11746  21987937.7194                   21987937.6054
 -12480671.90248  -9715684.07046  21525493.0314                   21525489.9494
 -21301112.91848 -16586224.93445  22329292.9694                   22329288.4454
   6709499.09046   5235634.50443  24887645.9844                   24887645.0234
 11  8 21  2 51 30.0000000  0  9G12G26G30G05G15G25G29G02G21
 -14326856.18447 -11152318.49645  22679270.8204                   22679268.0274
  -7226205.95347  -5620321.88745  22406807.3444                   22406805.1214
 -10207296.25847  -7941681.71545  22295185.9144                   22295183.7424
 -21089057.16048 -16421188.33246  21131673.0704                   21131669.8244
   -364213.59847   -273221.56644  23200353.6724                   23200351.5704
 -13370061.86348 -10406629.03946  21991497.1884                   21991496.9384
 -12573580.75448  -9788080.54746  21507812.7194                   21507809.7894
 -21279688.79748 -16569530.80145  22333369.6024                   22333365.4224
   6629894.60946   5173605.14543  24872497.5084                   24872496.8204
 11  8 21  2 52  0.0000000  0  9G12G26G30G05G15G25G29G02G21
 -14262992.20747 -11102554.38345  22691424.0474                   22691420.8164
  -7327484.54347  -5699240.22745  22387533.9454                   22387531.6094
 -10175136.45747  -7916622.14545  22301305.4224                   22301303.5664
 -21051254.38347 -16391731.64146  21138866.9924                   21138863.8364
   -482439.80547   -365345.83244  23177856.3754                   23177853.7194
 -13350887.06648 -10391687.65246  21995146.0944                   21995145.7074
 -12666240.14848  -9860282.62946  21490180.6174                   21490177.5164
 -21258167.68748 -16552761.11345  22337465.1024                   22337460.3554
   6550285.49246   5111572.19943  24857348.5554                   24857347.2584
 11  8 21  2 52 30.0000000  0  9G12G26G30G05G15G25G29G02G21
 -14198924.50047 -11052631.50445  22703615.0704                   22703612.2194
  -7428404.86347  -5777879.39845  22368329.7424                   22368327.4144
 -10142567.11747  -7891243.43445  22307503.3914                   22307501.5594
 -21013103.96548 -16362004.04746  21146126.8914                   21146123.7424
   -600564.55947   -457391.03944  23155377.5394                   23155375.3364
 -13331247.27748 -10376383.93746  21998883.5394                   21998883.3164
 -12758650.32448  -9932290.50846  21472595.3284                   21472592.3444
 -21236551.89147 -16535917.63345  22341578.4064                   22341573.8754
   6470668.12946   5049532.82043  24842198.5634                   24842196.7234
 11  8 21  2 53  0.0000000  0  9G12G26G30G05G15G25G29G02G21
 -14134655.40647 -11002551.69945  22715845.2114                   22715842.1374
  -7528962.27347  -5856235.77045  22349194.3754                   22349191.9384
 -10109590.04747  -7865547.02045  22313778.5164                   22313776.9264
 -20974607.09848 -16332006.48846  21153452.4224                   21153449.1684
   -718583.72747   -549354.00444  23132919.4224                   23132917.3554
 -13311143.63347 -10360718.76646  22002709.0784                   22002708.4264
 -12850807.53548 -10004101.27746  21455058.4224                   21455055.3794
 -21214840.32047 -16518999.52745  22345709.8444                   22345705.2544
   6391042.89846   4987487.29743  24827045.9844                   24827044.3714
 11  8 21  2 53 30.0000000  0  9G12G26G30G05G15G25G29G02G21
 -14070187.03547 -10952316.62545  22728112.8674                   22728109.9304
  -7629152.01647  -5934305.62945  22330128.2344                   22330126.2114
 -10076207.10947  -7839534.35945  22320131.6254                   22320129.3794
 -20935765.36348 -16301740.21146  21160843.5864                   21160840.7194
   -836493.28547   -641231.52745  23110482.1024                   23110479.7774
 -13290577.53548 -10344693.24246  22006622.7424                   22006622.5864
 -12942708.60248 -10075712.44546  21437569.8984                   21437567.1724
 -21193031.35947 -16502005.53145  22349860.2504                   22349855.5944
   6311410.84446   4925436.48443  24811893.1884                   24811890.8054
 11  8 21  2 54  0.0000000  0  9G12G26G30G05G15G25G29G02G21
 -14005523.11347 -10901929.17245  22740418.2584                   22740415.6604
  -7728971.23047  -6012086.79345  22311133.7114                   22311131.3484
 -10042421.82447  -7813208.16845  22326560.3524                   22326558.6174
 -20896581.86348 -16271207.62546  21168300.0314                   21168297.3554
   -954291.10947   -733022.00845  23088066.3054                   23088063.5084
 -13269551.90248 -10328309.63746  22010623.5864                   22010623.6294
 -13034352.14848 -10147122.95346  21420131.0554                   21420127.8364
 -21171125.55947 -16484936.09045  22354028.9304                   22354023.8594
   6231770.09046   4863378.87943  24796737.5554                   24796735.5514
 11  8 21  2 54 30.0000000  0  9G12G26G30G05G15G25G29G02G21
 -13940666.70347 -10851391.73045  22752760.0314                   22752757.2424
  -7828416.61347  -6089576.66045  22292209.4534                   22292207.0824
 -10008237.21147  -7786570.81245  22333065.7974                   22333063.4384
 -20857058.96548 -16240410.57446  21175821.3284                   21175818.2974
  -1071973.98047   -824722.92245  23065671.6024                   23065669.4104
 -13248069.19148 -10311569.86746  22014711.8444                   22014711.4614
 -13125735.74248 -10218330.90246  21402741.2734                   21402738.1844
 -21149122.36347 -16467790.75445  22358215.8754                   22358210.5394
   6152120.32446   4801314.28543  24781579.6884                   24781578.5044
 11  8 21  2 55  0.0000000  0  9G12G26G30G05G15G25G29G02G21
 -13875621.19147 -10800706.94145  22765137.8834                   22765135.5204
  -7927484.64847  -6166772.47745  22273357.5394                   22273355.4694
  -9973656.23447  -7759624.60945  22339645.8364                   22339643.7344
 -20817199.52048 -16209351.27346  21183406.0164                   21183403.0234
  -1189539.02047   -916332.00045  23043299.8054                   23043296.8794
 -13226131.94548 -10294475.90246  22018886.3054                   22018885.8914
 -13216857.02748 -10289334.47746  21385401.3054                   21385398.2274
 -21127021.90647 -16450569.61345  22362421.4384                   22362416.5084
   6072460.75046   4739242.05143  24766421.7034                   24766419.5864
 11  8 21  2 55 30.0000000  0  9G12G26G30G05G15G25G29G02G21
 -13810388.69547 -10749876.43745  22777551.5554                   22777548.6054
  -8026171.18047  -6243671.01245  22254578.1254                   22254575.8364
  -9938681.19547  -7732371.33245  22346301.7114                   22346298.9964
 -20777005.26648 -16178031.08246  21191055.1174                   21191051.8244
  -1306982.17647  -1007846.09845  23020951.0944                   23020948.8554
 -13203741.74248 -10277029.00446  22023146.8524                   22023146.9454
 -13307712.68448 -10360131.05946  21368112.1804                   21368109.0394
 -21104823.09447 -16433271.83645  22366645.8204                   22366641.3014
   5992791.75846   4677162.43443  24751260.6484                   24751258.9534
 11  8 21  2 56  0.0000000  0  9G12G26G30G05G15G25G29G02G21
 -13744972.70347 -10698902.95745  22789999.1024                   22789996.7934
  -8124472.81647  -6320269.64845  22235871.8444                   22235869.5554
  -9903315.04347  -7704813.30145  22353031.6724                   22353029.4884
 -20736479.07448 -16146452.23446  21198766.5944                   21198763.8554
  -1424300.91047  -1099263.23845  22998625.4224                   22998623.5824
 -13180901.31248 -10259231.25846  22027493.5554                   22027493.4654
 -13398301.37948 -10430719.61746  21350873.8984                   21350870.5004
 -21082525.98447 -16415897.46945  22370888.4384                   22370884.1214
   5913112.40646   4615074.79743  24736097.8134                   24736095.9024
 11  8 21  2 56 30.0000000  0 10G12G26G18G30G05G15G25G29G02G21
 -13679377.92647 -10647790.16845  22802481.7034                   22802479.3634
  -8222387.52047  -6396566.77045  22217239.4224                   22217236.9614
   9287864.65656   7247745.99253  24693184.1484                   24693182.0004
  -9867562.48047  -7676954.16845  22359835.1564                   22359833.1994
 -20695624.48448 -16114617.49646  21206541.0944                   21206538.0784
  -1541493.77047  -1190582.30145  22976324.5234                   22976322.4414
 -13157614.65648 -10241085.80546  22031924.6334                   22031924.1484
 -13488621.93748 -10501099.24646  21333686.1484                   21333682.9614
 -21060131.53548 -16398447.24645  22375150.1024                   22375145.7814
   5833420.64846   4552977.47743  24720933.8444                   24720930.8284
 11  8 21  2 57  0.0000000  0 10G12G26G18G30G05G15G25G29G02G21
 -13613615.33247 -10596546.59845  22814995.9844                   22814993.2344
  -8319919.83647  -6472565.93745  22198679.6954                   22198677.1844
   9174895.84446   7159718.50043  24671686.2424                   24671684.5084
  -9831434.23847  -7648802.30545  22366710.1804                   22366708.1254
 -20654452.18748 -16082535.19146  21214375.8524                   21214372.8874
  -1658565.47747  -1281806.95345  22954046.5634                   22954044.9884
 -13133892.03547 -10222600.64846  22036438.7504                   22036438.2074
 -13578679.82048 -10571274.19146  21316548.4774                   21316545.5474
 -21037647.46147 -16380927.18745  22379428.4454                   22379424.3794
   5753708.17246   4490864.01243  24705764.4844                   24705761.0124
 11  8 21  2 57 30.0000000  0 10G12G26G18G30G05G15G25G29G02G21
 -13547689.31647 -10545175.69145  22827541.2974                   22827538.4104
  -8417067.43447  -6548265.32045  22180192.7194                   22180190.8594
   9062085.16846   7071814.27043  24650218.7814                   24650218.3094
  -9794934.60947  -7620361.04745  22373655.4844                   22373653.7074
 -20612966.15248 -16050208.41046  21222270.7584                   21222267.5274
  -1775514.23447  -1372935.80545  22931791.8444                   22931790.0634
 -13109737.21547 -10203778.71146  22041035.4144                   22041035.2384
 -13668474.03148 -10641243.67646  21299461.3364                   21299458.6334
 -21015074.59047 -16363337.93745  22383724.2584                   22383719.8094
   5673972.98846   4428732.80943  24690591.7034                   24690588.1484
 11  8 21  2 58  0.0000000  0 10G12G26G18G30G05G15G25G29G02G21
 -13481602.04347 -10493679.12545  22840117.6884                   22840114.8244
  -8513826.09847  -6623661.63745  22161780.1954                   22161778.3244
   8949435.06345   6984035.17643  24628781.3594                   24628781.2544
  -9758065.90247  -7591632.20345  22380672.2274                   22380669.5474
 -20571167.98448 -16017638.41446  21230224.3914                   21230221.1604
  -1892336.33647  -1463965.96545  22909561.4924                   22909559.1644
 -13085152.07448 -10184621.45346  22045713.7894                   22045714.0434
 -13758001.54348 -10711005.34446  21282424.6024                   21282421.7384
 -20992412.09047 -16345678.85545  22388036.9384                   22388032.2974
   5594215.27346   4366584.11743  24675413.5084                   24675411.1094
 11  8 21  2 58 30.0000000  0 10G12G26G18G30G05G15G25G29G02G21
 -13415352.74247 -10442056.32045  22852724.2894                   22852721.4884
  -8610188.15247  -6698748.91045  22143443.3754                   22143440.7114
   8836950.86345   6896385.34443  24607376.2114                   24607377.0274
  -9720826.77747  -7562614.70745  22387758.2274                   22387755.1094
 -20529055.89148 -15984823.80946  21238238.2664                   21238235.1414
  -2009024.13347  -1554891.46545  22887356.5634                   22887354.3674
 -13060134.68448 -10165127.39146  22050474.4384                   22050474.4104
 -13847255.41448 -10780553.78146  21265440.0784                   21265437.7664
 -20969655.25847 -16327946.26245  22392367.4454                   22392362.0904
   5514438.69946   4304420.70343  24660233.5314                   24660229.7774
 11  8 21  2 59  0.0000000  0 10G12G26G18G30G05G15G25G29G02G21
 -13348941.96947 -10390307.69145  22865361.5234                   22865358.6454
  -8706147.41047  -6773522.33245  22125183.0084                   22125180.0434
   8724636.31346   6808867.73443  24586004.5394                   24586003.6644
  -9683217.66847  -7533308.91045  22394914.9844                   22394912.4534
 -20486629.84848 -15951764.55946  21246311.6644                   21246308.7734
  -2125572.35247  -1645708.20345  22865178.2194                   22865176.1094
 -13034685.10248 -10145296.54746  22055317.2344                   22055317.3874
 -13936231.10948 -10849885.45746  21248508.6644                   21248505.8634
 -20946801.32847 -16310138.01245  22396716.3674                   22396711.0124
   5434645.42646   4242244.25843  24645048.5784                   24645045.8554
 11  8 21  2 59 30.0000000  0 10G12G26G18G30G05G15G25G29G02G21
 -13282370.39847 -10338433.77045  22878029.8364                   22878027.0514
  -8801698.43047  -6847977.63745  22107000.2894                   22106997.5594
   8612494.87546   6721484.94143  24564664.8284                   24564663.7664
  -9645239.42247  -7503715.48845  22402142.3054                   22402139.8554
 -20443890.06648 -15918460.84046  21254444.8834                   21254441.6254
  -2241976.02747  -1736412.31645  22843027.5234                   22843024.9534
 -13008803.62548 -10125129.16846  22060242.3914                   22060242.2194
 -14024923.89848 -10918996.70346  21231631.0474                   21231628.5474
 -20923847.59847 -16292252.00045  22401083.7584                   22401078.6644
   5354836.87146   4180055.93843  24629860.9384                   24629858.7274
 11  8 21  3  0  0.0000000  0 10G12G26G18G30G05G15G25G29G02G21
 -13215644.44947 -10286439.54745  22890727.1724                   22890724.8444
  -8896841.19547  -6922114.80145  22088894.5554                   22088892.2734
   8500524.50446   6634235.43043  24543357.4144                   24543355.8554
  -9606898.53547  -7473839.48845  22409437.8754                   22409435.7734
 -20400842.88348 -15884917.57846  21262636.1484                   21262633.3554
  -2358234.98047  -1827003.65245  22820903.7344                   22820901.3674
 -12982496.34048 -10104629.98846  22065248.5234                   22065248.3524
 -14113335.09848 -10987888.52046  21214806.9614                   21214804.0354
 -20900797.41847 -16274290.81645  22405469.9614                   22405465.3284
   5275009.12946   4117852.60243  24614670.5084                   24614667.8404
 11  8 21  3  0 30.0000000  0 10G12G26G18G30G05G15G25G29G02G21
 -13148763.89847 -10234324.85245  22903453.6954                   22903451.6174
  -8991568.48047  -6995928.24645  22070869.6564                   22070866.9694
   8388729.83246   6547122.78143  24522083.8134                   24522081.0234
  -9568194.29747  -7443680.35945  22416803.1414                   22416801.0394
 -20357486.68048 -15851133.52746  21270886.2664                   21270883.2464
  -2474342.54747  -1917477.02045  22798809.6094                   22798806.9654
 -12955762.01248 -10083798.04346  22070335.8914                   22070335.6024
 -14201458.64848 -11056556.18746  21198037.5314                   21198034.9224
 -20877646.65647 -16256251.24645  22409875.6414                   22409870.6094
   5195165.48046   4055636.88343  24599476.0704                   24599473.1024
 11  8 21  3  1  0.0000000  0 10G12G26G18G30G05G15G25G29G02G21
 -13081730.48847 -10182091.05145  22916210.5164                   22916207.8284
  -9085875.78547  -7069414.43045  22052922.8284                   22052920.4344
   8277113.63346   6460149.22343  24500843.7504                   24500841.5084
  -9529128.69547  -7413239.64145  22424237.0704                   22424234.9344
 -20313822.87948 -15817109.78546  21279195.5314                   21279192.6604
  -2590294.63747  -2007829.24245  22776744.2424                   22776741.5274
 -12928602.15648 -10062634.52746  22075504.1414                   22075503.6414
 -14289291.10248 -11124997.04346  21181323.4844                   21181320.9144
 -20854393.56647 -16238131.94145  22414300.1564                   22414295.2974
   5115306.49646   3993409.16843  24584279.8594                   24584276.8404
 11  8 21  3  1 30.0000000  0 10G12G26G18G30G05G15G25G29G02G21
 -13014549.83247 -10129742.51245  22928994.5314                   22928991.7074
  -9179762.11347  -7142572.57445  22035056.6254                   22035054.4534
   8165674.18046   6373313.40243  24479637.3364                   24479635.4024
  -9489707.21547  -7382521.60945  22431738.2424                   22431736.4064
 -20269856.80948 -15782850.50046  21287561.9144                   21287558.9964
  -2706090.58247  -2098059.79745  22754709.4304                   22754706.5514
 -12901021.81248 -10041143.35546  22080752.6024                   22080752.3984
 -14376832.36348 -11193210.98846  21164664.8134                   21164661.8834
 -20831040.53947 -16219934.77345  22418744.7584                   22418739.5824
   5035429.12546   3931167.17643  24569079.6094                   24569076.7814
 11  8 21  3  2  0.0000000  0 10G12G26G18G30G05G15G25G29G02G21
 -12947223.33647 -10077280.33245  22941805.9694                   22941803.6294
  -9273222.17247  -7215398.56645  22017271.7424                   22017269.5274
   8054414.65246   6286617.74643  24458464.6954                   24458463.5164
  -9449931.03147  -7351527.18745  22439307.8204                   22439305.5204
 -20225588.93748 -15748356.05546  21295986.0704                   21295983.2384
  -2821725.39547  -2188164.80145  22732704.6254                   22732701.9534
 -12873021.74648 -10019325.12546  22086081.0004                   22086080.4774
 -14464078.44148 -11261194.92646  21148062.6024                   21148059.6954
 -20807585.40247 -16201658.04345  22423208.2274                   22423203.2424
   4955534.74646   3868911.86343  24553876.6094                   24553873.4104
 11  8 21  3  2 30.0000000  0 10G12G26G18G30G05G15G25G29G02G21
 -12879754.69947 -10024707.37945  22954644.5944                   22954642.2734
  -9366253.22747  -7287890.26245  21999568.8754                   21999566.1644
   7943335.93446   6200063.03143  24437327.3754                   24437324.8594
  -9409803.81647  -7320259.23045  22446944.0394                   22446941.7234
 -20181022.19548 -15713628.71946  21304466.6804                   21304463.5234
  -2937196.80147  -2278142.46945  22710730.7274                   22710728.7384
 -12844605.14848  -9997182.32446  22091488.4304                   22091487.9574
 -14551027.36748 -11328947.30546  21131516.8204                   21131513.7504
 -20784028.23848 -16183301.80945  22427690.8054                   22427686.5744
   4875622.25047   3806642.46943  24538669.9774                   24538667.3874
 11  8 21  3  3  0.0000000  0 10G12G26G18G30G05G15G25G29G02G21
 -12812147.26247  -9972026.29345  22967509.7034                   22967507.3794
  -9458852.24247  -7360045.30145  21981947.5864                   21981945.0594
   7832438.86746   6113649.78543  24416224.1724                   24416221.6174
  -9369329.12547  -7288720.52345  22454645.7274                   22454644.0044
 -20136159.82848 -15678671.03146  21313003.8594                   21313000.7074
  -3052502.01647  -2367990.64145  22688788.8054                   22688786.7074
 -12815775.07448  -9974717.33246  22096974.5314                   22096974.6214
 -14637677.51647 -11396466.88346  21115027.4144                   21115024.7194
 -20760369.31247 -16164866.28145  22432193.5474                   22432188.0354
   4795690.85946   3744358.34844  24523458.8834                   24523456.6524
 11  8 21  3  3 30.0000000  0 10G12G26G18G30G05G15G25G29G02G21
 -12744401.95347  -9919237.75445  22980401.3674                   22980398.7734
  -9551013.43047  -7431859.18045  21964410.0164                   21964407.7384
   7721726.69946   6027380.71143  24395156.4384                   24395153.9384
  -9328507.66047  -7256911.60245  22462414.1024                   22462411.8794
 -20091001.73048 -15643482.89846  21321597.0474                   21321593.7424
  -3167635.71547  -2457705.16045  22666880.0944                   22666877.3834
 -12786531.88348  -9951930.43046  22102539.3594                   22102538.9964
 -14724024.18048 -11463749.96546  21098596.0944                   21098593.5944
 -20736605.95347 -16146349.36745  22436715.2894                   22436710.3324
   4715742.27346   3682060.82043  24508245.2814                   24508242.5554
 11  8 21  3  4  0.0000000  0 10G12G26G18G30G05G15G25G29G02G21
 -12676524.28947  -9866346.09445  22993318.3984                   22993316.2194
  -9642736.20747  -7503331.44945  21946955.2734                   21946953.6724
   7611198.27746   5941254.82443  24374123.0554                   24374121.7624
  -9287345.03147  -7224836.83645  22470246.9304                   22470244.9574
 -20045553.25048 -15608068.48046  21330245.2894                   21330242.5314
  -3282597.35947  -2547285.59445  22645003.0864                   22645000.9534
 -12756880.77347  -9928825.67246  22108181.7194                   22108181.3164
 -14810067.54748 -11530796.72346  21082223.1644                   21082219.8244
 -20712740.09847 -16127752.57845  22441256.6334                   22441251.9104
   4635773.39546   3619747.47743  24493027.6254                   24493025.3244
 11  8 21  3  4 30.0000000  0 10G12G26G18G30G05G15G25G29G02G21
 -12608516.81647  -9813353.27345  23006260.3914                   23006257.1684
  -9734016.68747  -7574459.06645  21929585.6024                   21929583.2114
   7500855.57046   5855273.63343  24353125.5234                   24353123.8714
  -9245843.86747  -7192498.27345  22478144.6724                   22478141.9024
 -19999816.02748 -15572429.07846  21338949.2114                   21338945.7154
  -3397383.21547  -2636729.07045  22623160.2424                   22623157.8244
 -12726823.89547  -9905404.73046  22113901.2344                   22113901.4024
 -14895804.50448 -11597604.71146  21065907.6884                   21065904.9064
 -20688771.11347 -16109075.42645  22445818.1884                   22445812.9304
   4555784.32046   3557418.42644  24477806.8134                   24477803.8914
 11  8 21  3  5  0.0000000  0 10G12G26G18G30G05G15G25G29G02G21
 -12540384.28947  -9760263.01245  23019225.3674                   23019222.9654
  -9824852.81247  -7645240.43045  21912299.9844                   21912297.1094
   7390697.44946   5769436.24243  24332163.5554                   24332161.4734
  -9204008.81247  -7159899.52345  22486104.9144                   22486102.8794
 -19953794.32048 -15536567.98846  21347706.9304                   21347703.8554
  -3511991.74247  -2726034.36745  22601350.7974                   22601348.2544
 -12696365.42647  -9881670.86746  22119697.1024                   22119697.2274
 -14981234.31648 -11664173.36346  21049651.2734                   21049648.2664
 -20664700.11747 -16090318.79345  22450398.3984                   22450393.2194
   4475772.98046   3495072.02343  24462581.0004                   24462577.8054
 11  8 21  3  5 30.0000000  0 10G12G26G18G30G05G15G25G29G02G21
 -12472125.40647  -9707074.31245  23032214.8444                   23032212.1254
  -9915237.19547  -7715669.78945  21895100.5394                   21895097.6914
   7280729.60946   5683747.13343  24311237.1484                   24311234.9574
  -9161838.53547  -7127039.57845  22494130.0394                   22494127.9414
 -19907486.39148 -15500483.87546  21356518.7274                   21356515.6644
  -3626415.52747  -2815195.72345  22579576.5314                   22579573.7584
 -12665503.73448  -9857622.78946  22125570.1884                   22125570.2424
 -15066350.33648 -11730497.51246  21033453.9694                   21033450.7894
 -20640522.25847 -16071478.88345  22454998.7734                   22454993.6414
   4395743.17646   3432711.21944  24447351.8284                   24447348.9384
 11  8 21  3  6  0.0000000  0 10G12G26G18G30G05G15G25G29G02G21
 -12403744.76647  -9653790.71145  23045227.0164                   23045224.6804
 -10005167.80147  -7785745.56245  21877986.7424                   21877985.3524
   7170951.96946   5598206.16843  24290347.0554                   24290344.3054
  -9119337.79347  -7093922.11345  22502217.6254                   22502216.0274
 -19860896.20348 -15464179.82046  21365384.5634                   21365381.4774
  -3740652.87547  -2904211.78145  22557838.0634                   22557835.4144
 -12634243.05147  -9833263.81646  22131518.7814                   22131518.8954
 -15151151.76248 -11796576.51246  21017316.7344                   21017313.6724
 -20616238.46947 -16052556.43745  22459619.8364                   22459614.9964
   4315692.80146   3370334.41443  24432117.9844                   24432114.8594
 11  8 21  3  6 30.0000000  0 10G12G26G18G30G05G15G25G29G02G21
 -12335245.69547  -9600414.84045  23058261.3914                   23058259.5514
 -10094641.69147  -7855465.43745  21860960.7584                   21860958.4104
   7061365.31346   5512814.08643  24269493.1334                   24269491.0204
  -9076509.99647  -7060549.81645  22510367.6724                   22510365.3134
 -19814026.42648 -15427657.90246  21374303.6174                   21374300.8524
  -3854701.53147  -2993080.82445  22536134.9454                   22536132.6644
 -12602586.50447  -9808596.38346  22137542.7504                   22137542.8164
 -15235636.64148 -11862408.85946  21001239.8364                   21001236.8554
 -20591849.24647 -16033551.84445  22464260.9694                   22464255.7194
   4235621.31346   3307941.16443  24416881.1174                   24416877.9384
 11  8 21  3  7  0.0000000  0 10G12G26G18G30G05G15G25G29G02G21
 -12266632.60547  -9546950.13345  23071318.2894                   23071316.2304
 -10183656.92247  -7924827.92245  21844021.8204                   21844018.8134
   6951969.63346   5427570.78543  24248675.7194                   24248674.1334
  -9033359.45347  -7026926.00845  22518578.4844                   22518576.5044
 -19766880.63748 -15390920.90646  21383275.2974                   21383272.4454
  -3968559.16047  -3081800.99645  22514468.5004                   22514466.2734
 -12570537.94547  -9783623.47746  22143641.8054                   22143641.5004
 -15319804.01648 -11927993.79746  20985223.3284                   20985220.4414
 -20567355.02747 -16014465.45345  22468922.3914                   22468916.8284
   4155526.86346   3245530.05543  24401638.5474                   24401636.4844
 11  8 21  3  7 30.0000000  0 10G12G26G18G30G05G15G25G29G02G21
 -12197905.91447  -9493396.89545  23084396.7894                   23084394.3984
 -10272207.27047  -7993828.16845  21827171.1484                   21827168.0394
   6842768.57046   5342479.17643  24227896.4694                   24227894.3954
  -8989886.67647  -6993051.12145  22526851.5084                   22526849.0004
 -19719458.99648 -15353968.97346  21392299.3914                   21392296.0784
  -4082220.23847  -3170368.02045  22492839.6884                   22492837.2114
 -12538097.48847  -9758345.20746  22149814.7664                   22149814.7384
 -15403648.34848 -11993327.00846  20969268.3754                   20969265.4804
 -20542752.86747 -15995294.93445  22473604.5704                   22473599.1174
   4075411.75046   3183102.80143  24386394.0474                   24386390.3874
 11  8 21  3  8  0.0000000  0 10G12G26G18G30G05G15G25G29G02G21
 -12129071.60547  -9439759.78945  23097495.5084                   23097493.2734
 -10360292.57047  -8062466.04345  21810408.8834                   21810406.8594
   6733760.44146   5257537.85243  24207151.9614                   24207150.1214
  -8946097.54347  -6958929.72345  22535184.2504                   22535182.1254
 -19671766.62948 -15316806.08246  21401374.7664                   21401371.6954
  -4195683.97347  -3258781.25045  22471248.3204                   22471246.3404
 -12505270.67247  -9732765.86346  22156061.5004                   22156061.1884
 -15487170.64148 -12058409.28146  20953374.4144                   20953371.5084
 -20518045.23847 -15976042.23445  22478305.5784                   22478301.2344
   3995272.47346   3120656.71143  24371143.6644                   24371140.9614
 11  8 21  3  8 30.0000000  0 10G12G26G18G30G05G15G25G29G02G21
 -12060131.46147  -9386040.24245  23110614.2424                   23110612.0004
 -10447908.24247  -8130737.95745  21793736.2664                   21793734.5704
   6624947.36346   5172748.53543  24186445.2584                   24186442.7584
  -8901994.14847  -6924563.44945  22543576.6564                   22543574.6024
 -19623804.90248 -15279433.27746  21410501.5634                   21410498.6564
  -4308946.51647  -3347037.73445  22449695.1094                   22449692.8914
 -12472059.18047  -9706886.77746  22162381.5314                   22162381.2704
 -15570367.21948 -12123237.74246  20937542.6334                   20937539.6174
 -20493230.59047 -15956706.15645  22483027.9454                   22483022.8954
   3915109.86346   3058192.43043  24355888.6414                   24355886.2304
 11  8 21  3  9  0.0000000  0 10G12G26G18G30G05G15G25G29G02G21
 -11991088.86347  -9332240.83245  23123752.6644                   23123749.9694
 -10535051.69147  -8198641.90645  21777153.1564                   21777151.1604
   6516330.33246   5088111.95743  24165775.9224                   24165773.4064
  -8857580.14147  -6889955.12945  22552028.1024                   22552026.1294
 -19575577.14148 -15241853.17646  21419679.2734                   21419675.6884
  -4422005.35947  -3435135.49645  22428180.6954                   22428178.4104
 -12438466.27347  -9680710.49646  22168773.7814                   22168773.6684
 -15653236.42248 -12187811.12146  20921772.7424                   20921769.9454
 -20468309.15247 -15937286.84445  22487769.9534                   22487765.2154
   3834923.03146   2995709.31643  24340629.4224                   24340626.6024
 11  8 21  3  9 30.0000000  0 10G12G26G18G30G05G15G25G29G02G21
 -11921947.75447  -9278364.68745  23136910.0554                   23136907.6054
 -10621720.19547  -8266175.78145  21760660.6884                   21760658.1604
   6407909.66446   5003628.40243  24145144.4144                   24145141.7854
  -8812859.26647  -6855107.70745  22560538.6954                   22560536.4844
 -19527085.96148 -15204067.82846  21428906.7194                   21428902.8874
  -4534857.78947  -3523072.41045  22406705.0784                   22406703.1804
 -12404495.30947  -9654239.62546  22175238.4694                   22175238.5124
 -15735776.31648 -12252127.89146  20906066.2424                   20906063.0434
 -20443281.01647 -15917784.40245  22492532.3834                   22492527.9414
   3754710.90646   2933206.44543  24325366.1254                   24325362.5984
 11  8 21  3 10  0.0000000  0 10G12G26G18G30G05G15G25G29G02G21
 -11852709.33647  -9224412.69945  23150085.3444                   23150083.0124
 -10707908.77047  -8333335.66845  21744259.6884                   21744257.3404
   6299688.18846   4919300.05143  24124550.6174                   24124548.3094
  -8767832.82847  -6820022.17245  22569107.0084                   22569104.6254
 -19478332.05948 -15166077.76646  21438184.2504                   21438180.6564
  -4647499.16847  -3610844.87945  22385270.4694                   22385267.8674
 -12370147.32047  -9627474.96546  22181774.9144                   22181774.5824
 -15817982.69547 -12316184.77046  20890422.8054                   20890419.7734
 -20418143.85947 -15898197.01245  22497316.1254                   22497311.6914
   3674474.65646   2870684.78143  24310096.8204                   24310094.1054
 11  8 21  3 10 30.0000000  0 10G12G26G18G30G05G15G25G29G02G21
 -11783378.03546  -9170388.33644  23163278.2894                   23163276.1054
 -10793615.26647  -8400119.92645  21727950.4924                   21727947.4694
   6191665.87546   4835126.86343  24103995.0394                   24103992.3954
  -8722505.20747  -6784701.96145  22577732.8594                   22577730.3554
 -19429319.24248 -15127885.94946  21447510.7974                   21447507.3984
  -4759927.26647  -3698451.13745  22363875.9694                   22363873.7234
 -12335426.28147  -9600419.61746  22188382.1724                   22188381.7304
 -15899854.40648 -12379980.87946  20874842.8674                   20874840.0434
 -20392898.54347 -15878525.35545  22502119.6414                   22502115.8284
   3594212.71546   2808143.06643  24294824.5084                   24294820.8914
 11  8 21  3 11  0.0000000  0 10G12G26G18G30G05G15G25G29G02G21
 -11713956.43447  -9116293.61744  23176489.4694                   23176487.1954
 -10878836.27747  -8466525.88345  21711733.6724                   21711730.7664
   6083844.02746   4751109.93043  24083476.7734                   24083474.7384
  -8676879.49647  -6749149.46945  22586414.7194                   22586412.5204
 -19380050.10548 -15089494.40646  21456886.5634                   21456883.2664
  -4872138.98447  -3785888.80145  22342523.2194                   22342520.2704
 -12300334.85247  -9573075.65646  22195059.7274                   22195059.1484
 -15981389.01248 -12443514.31246  20859327.7034                   20859324.5704
 -20367544.44947 -15858768.93745  22506944.9224                   22506940.5474
   3513924.78946   2745581.12143  24279544.7504                   24279542.5234
 11  8 21  3 11 30.0000000  0 10G12G26G18G30G05G15G25G29G02G21
 -11644446.86346  -9062130.34844  23189717.0164                   23189714.2034
 -10963568.06247  -8532550.60945  21695609.4224                   21695606.4414
   5976224.55547   4667250.70743  24062997.5554                   24062994.9494
  -8630958.02747  -6713366.52045  22595153.4844                   22595151.1604
 -19330526.13348 -15050904.28546  21466310.8134                   21466307.4534
  -4984130.58247  -3873154.93045  22321211.8834                   22321209.1214
 -12264875.13747  -9545444.71545  22201807.3204                   22201807.1804
 -16062583.62148 -12506782.81246  20843876.7274                   20843873.3484
 -20342080.62947 -15838927.01645  22511791.0784                   22511786.3634
   3433611.44146   2682999.34843  24264262.1484                   24264259.4144
 11  8 21  3 12  0.0000000  0 10G12G26G18G30G05G15G25G29G02G21
 -11574851.17247  -9007899.96544  23202960.9694                   23202957.8204
 -11047806.63347  -8598191.01245  21679579.1724                   21679576.3284
   5868809.48047   4583550.73843  24042556.8524                   24042554.5704
  -8584743.00047  -6677354.80945  22603947.7664                   22603946.0474
 -19280748.66448 -15012116.64546  21475783.1094                   21475780.0004
  -5095897.81247  -3960246.24245  22299942.8834                   22299940.5274
 -12229048.97347  -9517528.24645  22208624.6174                   22208624.5084
 -16143434.68448 -12569783.61746  20828491.4694                   20828488.0354
 -20316505.53147 -15818998.39145  22516657.0944                   22516652.2544
   3353272.73846   2620397.82843  24248974.9064                   24248971.9494
 11  8 21  3 12 30.0000000  0 10G12G26G18G30G05G15G25G29G02G21
 -11505173.20347  -8953605.46545  23216219.1334                   23216217.2464
 -11131549.02047  -8663444.78945  21663643.6024                   21663641.2934
   5761599.04346   4500010.27743  24022154.9064                   24022152.9104
  -8538238.17247  -6641117.30545  22612797.3674                   22612795.6024
 -19230720.85548 -14973133.92246  21485303.1254                   21485299.6684
  -5207438.40647  -4047160.94145  22278717.1024                   22278715.1094
 -12192859.78147  -9489328.88745  22215511.4534                   22215511.7384
 -16223940.62948 -12632515.48846  20813171.6094                   20813168.5824
 -20290819.22347 -15798983.11745  22521545.2504                   22521540.5554
   3272908.05146   2557776.09043  24233681.7584                   24233679.2464
 11  8 21  3 13  0.0000000  0 10G12G26G18G30G05G15G25G29G02G21
 -11435415.58646  -8899248.91445  23229493.6024                   23229491.6254
 -11214791.68447  -8728309.17245  21647803.0864                   21647800.7894
   5654595.11346   4416630.69543  24001792.7974                   24001790.4344
  -8491446.18447  -6604656.03945  22621701.6804                   22621699.7114
 -19180444.58648 -14933957.59446  21494869.8914                   21494866.7774
  -5318748.38347  -4133895.95345  22257536.3204                   22257533.2304
 -12156309.77047  -9460848.37946  22222466.6024                   22222466.8404
 -16304098.39148 -12694976.05946  20797918.0164                   20797914.8834
 -20265020.75847 -15778880.43445  22526454.7504                   22526449.7664
   3192517.67646   2495134.28143  24218384.1174                   24218380.7894
 11  8 21  3 13 30.0000000  0 10G12G26G18G30G05G15G25G29G02G21
 -11365582.69946  -8844833.71945  23242782.7194                   23242780.3674
 -11297532.91047  -8792782.80945  21632057.7894                   21632055.1454
   5547797.22746   4333411.69943  23981469.8204                   23981467.6454
  -8444371.59447  -6567974.55545  22630659.8444                   22630657.4924
 -19129923.63748 -14894590.61346  21504483.8524                   21504480.5234
  -5429825.94547  -4220449.85245  22236398.7274                   22236396.0124
 -12119403.36747  -9432090.16445  22229489.8364                   22229489.5434
 -16383907.27348 -12757164.78146  20782730.7194                   20782727.7734
 -20239111.03947 -15758691.04745  22531385.2194                   22531380.2424
   3112099.74246   2432471.02044  24203081.1024                   24203077.7464
 11  8 21  3 14  0.0000000  0 10G12G26G18G30G05G15G25G29G02G21
 -11295675.12146  -8790360.30144  23256086.0634                   23256083.0784
 -11379767.29347  -8856861.52045  21616409.1174                   21616406.1844
   5441208.66846   4250355.82043  23961186.8204                   23961184.0124
  -8397015.19547  -6531073.49645  22639671.5164                   22639668.9104
 -19079158.30948 -14855033.21946  21514144.3834                   21514141.0234
  -5540666.06247  -4306818.73445  22215306.6414                   22215303.7774
 -12082140.94947  -9403054.54345  22236580.4384                   22236580.2384
 -16463362.52047 -12819077.94146  20767610.9144                   20767607.5904
 -20213087.17647 -15738412.74645  22536337.0234                   22536332.1214
   3031655.80546   2369787.48444  24187773.3204                   24187770.3634
 11  8 21  3 14 30.0000000  0 10G12G26G18G30G05G15G25G29G02G21
 -11225696.59846  -8735831.60944  23269402.0314                   23269399.5084
 -11461492.62547  -8920543.55545  21600858.0004                   21600854.3984
   5334829.77046   4167463.27743  23940943.4614                   23940940.2974
  -8349381.10247  -6493956.04745  22648735.1564                   22648733.7624
 -19028151.82848 -14815287.89846  21523850.2814                   21523847.3714
  -5651266.36747  -4393000.75045  22194259.6414                   22194256.8134
 -12044526.28147  -9373744.43045  22243738.2194                   22243738.5084
 -16542462.66848 -12880714.41446  20752558.8754                   20752555.4344
 -20186950.03547 -15718046.16045  22541310.7734                   22541306.0204
   2951185.04746   2307083.05543  24172459.8914                   24172456.6374
 11  8 21  3 15  0.0000000  0 10G12G26G18G30G05G15G25G29G02G21
 -11155651.16046  -8681250.78544  23282731.1804                   23282728.8714
 -11542706.53947  -8983827.09045  21585402.7034                   21585400.5434
   5228660.79746   4084734.31643  23920739.4694                   23920736.4384
  -8301473.33247  -6456625.34845  22657852.1804                   22657850.1844
 -18976907.29748 -14775357.08646  21533601.9384                   21533599.0514
  -5761624.07447  -4478993.71945  22173259.3444                   22173256.4494
 -12006563.05547  -9344162.71545  22250962.5164                   22250962.3914
 -16621205.76648 -12942072.64846  20737574.3134                   20737571.1334
 -20160699.80947 -15697591.48045  22546305.8444                   22546301.2234
   2870686.52346   2244356.98843  24157141.8444                   24157137.5944
 11  8 21  3 15 30.0000000  0 10G12G26G18G30G05G15G25G29G02G21
 -11085543.16846  -8626621.19544  23296072.5864                   23296070.2704
 -11623407.98847  -9046711.30545  21570045.5944                   21570043.5904
   5122700.67246   4002168.09843  23900576.0634                   23900573.6414
  -8253296.95747  -6419085.33245  22667019.7504                   22667017.9694
 -18925429.21948 -14735244.28946  21543397.9144                   21543395.2934
  -5871738.48447  -4564797.12145  22152305.3834                   22152302.3054
 -11968256.09847  -9314313.16445  22258252.5004                   22258252.4184
 -16699591.68048 -13003152.57046  20722657.9774                   20722654.8404
 -20134337.85547 -15677049.70745  22551322.8984                   22551317.9024
   2790157.43846   2181607.09044  24141817.1254                   24141813.9064
